<?xml version="1.0" encoding="UTF-8" standalone="no" ?>
<gpx xmlns="http://www.topografix.com/GPX/1/1" xmlns:xsi="http://www.w3.org/2001/XMLSchema-instance" xsi:schemaLocation="http://www.topografix.com/GPX/1/1 http://www.topografix.com/GPX/1/1/gpx.xsd" version="1.1" creator="VisuGPX - https://www.visugpx.com">
  <metadata>
    <name>VTT 23 02 25</name>
  </metadata>
  <trk>
    <name><![CDATA[VTT 23 02 25]]></name>
    <extensions>
      <line xmlns="http://www.topografix.com/GPX/gpx_style/0/2">
        <color>0000FF</color>
        <width>4</width>
      </line>
    </extensions>
    <trkseg>
      <trkpt lat="46.32431" lon="-0.58366">
        <ele>7.15</ele>
        <time>2025-02-16T16:18:11.000Z</time>
      </trkpt>
      <trkpt lat="46.32443" lon="-0.58324">
        <ele>6.96</ele>
        <time>2025-02-16T16:18:11.006Z</time>
      </trkpt>
      <trkpt lat="46.32448" lon="-0.58304">
        <ele>6.74</ele>
        <time>2025-02-16T16:18:11.015Z</time>
      </trkpt>
      <trkpt lat="46.32432" lon="-0.58289">
        <ele>6.64</ele>
        <time>2025-02-16T16:18:11.028Z</time>
      </trkpt>
      <trkpt lat="46.32405" lon="-0.58265">
        <ele>6.81</ele>
        <time>2025-02-16T16:18:11.047Z</time>
      </trkpt>
      <trkpt lat="46.32379" lon="-0.5824">
        <ele>6.87</ele>
        <time>2025-02-16T16:18:11.073Z</time>
      </trkpt>
      <trkpt lat="46.32352" lon="-0.58216">
        <ele>6.89</ele>
        <time>2025-02-16T16:18:11.105Z</time>
      </trkpt>
      <trkpt lat="46.32326" lon="-0.58192">
        <ele>7</ele>
        <time>2025-02-16T16:18:11.143Z</time>
      </trkpt>
      <trkpt lat="46.32299" lon="-0.58167">
        <ele>6.87</ele>
        <time>2025-02-16T16:18:11.188Z</time>
      </trkpt>
      <trkpt lat="46.32288" lon="-0.58157">
        <ele>6.68</ele>
        <time>2025-02-16T16:18:11.235Z</time>
      </trkpt>
      <trkpt lat="46.32262" lon="-0.58132">
        <ele>6.26</ele>
        <time>2025-02-16T16:18:11.288Z</time>
      </trkpt>
      <trkpt lat="46.32235" lon="-0.58108">
        <ele>5.94</ele>
        <time>2025-02-16T16:18:11.348Z</time>
      </trkpt>
      <trkpt lat="46.32224" lon="-0.58097">
        <ele>5.75</ele>
        <time>2025-02-16T16:18:11.410Z</time>
      </trkpt>
      <trkpt lat="46.32206" lon="-0.58081">
        <ele>5.7</ele>
        <time>2025-02-16T16:18:11.477Z</time>
      </trkpt>
      <trkpt lat="46.32213" lon="-0.58073">
        <ele>5.57</ele>
        <time>2025-02-16T16:18:11.545Z</time>
      </trkpt>
      <trkpt lat="46.3223" lon="-0.58064">
        <ele>5.42</ele>
        <time>2025-02-16T16:18:11.617Z</time>
      </trkpt>
      <trkpt lat="46.32247" lon="-0.5806">
        <ele>5.3</ele>
        <time>2025-02-16T16:18:11.693Z</time>
      </trkpt>
      <trkpt lat="46.32247" lon="-0.58059">
        <ele>5.25</ele>
        <time>2025-02-16T16:18:11.769Z</time>
      </trkpt>
      <trkpt lat="46.32278" lon="-0.5805">
        <ele>5.29</ele>
        <time>2025-02-16T16:18:11.851Z</time>
      </trkpt>
      <trkpt lat="46.32278" lon="-0.5805">
        <ele>5.32</ele>
        <time>2025-02-16T16:18:11.933Z</time>
      </trkpt>
      <trkpt lat="46.32295" lon="-0.58012">
        <ele>5.62</ele>
        <time>2025-02-16T16:18:12.021Z</time>
      </trkpt>
      <trkpt lat="46.32299" lon="-0.58004">
        <ele>5.81</ele>
        <time>2025-02-16T16:18:12.111Z</time>
      </trkpt>
      <trkpt lat="46.32315" lon="-0.57965">
        <ele>5.94</ele>
        <time>2025-02-16T16:18:12.207Z</time>
      </trkpt>
      <trkpt lat="46.32318" lon="-0.57958">
        <ele>6.04</ele>
        <time>2025-02-16T16:18:12.304Z</time>
      </trkpt>
      <trkpt lat="46.32334" lon="-0.57919">
        <ele>5.99</ele>
        <time>2025-02-16T16:18:12.407Z</time>
      </trkpt>
      <trkpt lat="46.32351" lon="-0.5788">
        <ele>5.95</ele>
        <time>2025-02-16T16:18:12.517Z</time>
      </trkpt>
      <trkpt lat="46.32367" lon="-0.57842">
        <ele>5.92</ele>
        <time>2025-02-16T16:18:12.633Z</time>
      </trkpt>
      <trkpt lat="46.3238" lon="-0.57811">
        <ele>5.92</ele>
        <time>2025-02-16T16:18:12.754Z</time>
      </trkpt>
      <trkpt lat="46.324" lon="-0.57776">
        <ele>5.8</ele>
        <time>2025-02-16T16:18:12.881Z</time>
      </trkpt>
      <trkpt lat="46.32406" lon="-0.57764">
        <ele>5.72</ele>
        <time>2025-02-16T16:18:13.010Z</time>
      </trkpt>
      <trkpt lat="46.32426" lon="-0.57729">
        <ele>5.49</ele>
        <time>2025-02-16T16:18:13.146Z</time>
      </trkpt>
      <trkpt lat="46.32445" lon="-0.57693">
        <ele>5.39</ele>
        <time>2025-02-16T16:18:13.288Z</time>
      </trkpt>
      <trkpt lat="46.32451" lon="-0.57683">
        <ele>5.33</ele>
        <time>2025-02-16T16:18:13.432Z</time>
      </trkpt>
      <trkpt lat="46.32462" lon="-0.57662">
        <ele>5.34</ele>
        <time>2025-02-16T16:18:13.579Z</time>
      </trkpt>
      <trkpt lat="46.32477" lon="-0.57622">
        <ele>5.36</ele>
        <time>2025-02-16T16:18:13.733Z</time>
      </trkpt>
      <trkpt lat="46.3248" lon="-0.57615">
        <ele>5.32</ele>
        <time>2025-02-16T16:18:13.888Z</time>
      </trkpt>
      <trkpt lat="46.32493" lon="-0.57573">
        <ele>5.27</ele>
        <time>2025-02-16T16:18:14.049Z</time>
      </trkpt>
      <trkpt lat="46.32494" lon="-0.57569">
        <ele>5.21</ele>
        <time>2025-02-16T16:18:14.211Z</time>
      </trkpt>
      <trkpt lat="46.32507" lon="-0.57528">
        <ele>5.15</ele>
        <time>2025-02-16T16:18:14.379Z</time>
      </trkpt>
      <trkpt lat="46.32509" lon="-0.57522">
        <ele>5.07</ele>
        <time>2025-02-16T16:18:14.548Z</time>
      </trkpt>
      <trkpt lat="46.3252" lon="-0.57493">
        <ele>5</ele>
        <time>2025-02-16T16:18:14.721Z</time>
      </trkpt>
      <trkpt lat="46.32523" lon="-0.57476">
        <ele>4.92</ele>
        <time>2025-02-16T16:18:14.897Z</time>
      </trkpt>
      <trkpt lat="46.32538" lon="-0.57438">
        <ele>4.79</ele>
        <time>2025-02-16T16:18:15.079Z</time>
      </trkpt>
      <trkpt lat="46.32556" lon="-0.57401">
        <ele>4.55</ele>
        <time>2025-02-16T16:18:15.267Z</time>
      </trkpt>
      <trkpt lat="46.32562" lon="-0.5739">
        <ele>4.35</ele>
        <time>2025-02-16T16:18:15.457Z</time>
      </trkpt>
      <trkpt lat="46.32581" lon="-0.57354">
        <ele>4.04</ele>
        <time>2025-02-16T16:18:15.653Z</time>
      </trkpt>
      <trkpt lat="46.326" lon="-0.57317">
        <ele>3.76</ele>
        <time>2025-02-16T16:18:15.856Z</time>
      </trkpt>
      <trkpt lat="46.32602" lon="-0.57312">
        <ele>3.57</ele>
        <time>2025-02-16T16:18:16.060Z</time>
      </trkpt>
      <trkpt lat="46.32613" lon="-0.57291">
        <ele>3.41</ele>
        <time>2025-02-16T16:18:16.267Z</time>
      </trkpt>
      <trkpt lat="46.32632" lon="-0.57255">
        <ele>3.32</ele>
        <time>2025-02-16T16:18:16.481Z</time>
      </trkpt>
      <trkpt lat="46.3264" lon="-0.57241">
        <ele>3.25</ele>
        <time>2025-02-16T16:18:16.697Z</time>
      </trkpt>
      <trkpt lat="46.32653" lon="-0.57209">
        <ele>3.21</ele>
        <time>2025-02-16T16:18:16.918Z</time>
      </trkpt>
      <trkpt lat="46.32665" lon="-0.57167">
        <ele>3.21</ele>
        <time>2025-02-16T16:18:17.145Z</time>
      </trkpt>
      <trkpt lat="46.32668" lon="-0.57158">
        <ele>3.18</ele>
        <time>2025-02-16T16:18:17.374Z</time>
      </trkpt>
      <trkpt lat="46.32674" lon="-0.57134">
        <ele>3.17</ele>
        <time>2025-02-16T16:18:17.606Z</time>
      </trkpt>
      <trkpt lat="46.3268" lon="-0.57089">
        <ele>3.11</ele>
        <time>2025-02-16T16:18:17.845Z</time>
      </trkpt>
      <trkpt lat="46.32682" lon="-0.57072">
        <ele>3.04</ele>
        <time>2025-02-16T16:18:18.086Z</time>
      </trkpt>
      <trkpt lat="46.32683" lon="-0.57027">
        <ele>3.06</ele>
        <time>2025-02-16T16:18:18.333Z</time>
      </trkpt>
      <trkpt lat="46.32684" lon="-0.56981">
        <ele>3.11</ele>
        <time>2025-02-16T16:18:18.587Z</time>
      </trkpt>
      <trkpt lat="46.32684" lon="-0.56978">
        <ele>3.11</ele>
        <time>2025-02-16T16:18:18.841Z</time>
      </trkpt>
      <trkpt lat="46.32682" lon="-0.56933">
        <ele>3.11</ele>
        <time>2025-02-16T16:18:19.101Z</time>
      </trkpt>
      <trkpt lat="46.3268" lon="-0.56896">
        <ele>3.06</ele>
        <time>2025-02-16T16:18:19.367Z</time>
      </trkpt>
      <trkpt lat="46.32681" lon="-0.56851">
        <ele>3.01</ele>
        <time>2025-02-16T16:18:19.639Z</time>
      </trkpt>
      <trkpt lat="46.32681" lon="-0.56826">
        <ele>3</ele>
        <time>2025-02-16T16:18:19.914Z</time>
      </trkpt>
      <trkpt lat="46.32681" lon="-0.56795">
        <ele>3</ele>
        <time>2025-02-16T16:18:20.194Z</time>
      </trkpt>
      <trkpt lat="46.32684" lon="-0.5678">
        <ele>2.95</ele>
        <time>2025-02-16T16:18:20.476Z</time>
      </trkpt>
      <trkpt lat="46.32692" lon="-0.56736">
        <ele>2.91</ele>
        <time>2025-02-16T16:18:20.764Z</time>
      </trkpt>
      <trkpt lat="46.32701" lon="-0.56692">
        <ele>2.9</ele>
        <time>2025-02-16T16:18:21.058Z</time>
      </trkpt>
      <trkpt lat="46.32703" lon="-0.56679">
        <ele>2.88</ele>
        <time>2025-02-16T16:18:21.354Z</time>
      </trkpt>
      <trkpt lat="46.32712" lon="-0.56635">
        <ele>2.83</ele>
        <time>2025-02-16T16:18:21.657Z</time>
      </trkpt>
      <trkpt lat="46.32721" lon="-0.56592">
        <ele>2.86</ele>
        <time>2025-02-16T16:18:21.966Z</time>
      </trkpt>
      <trkpt lat="46.32723" lon="-0.56579">
        <ele>2.86</ele>
        <time>2025-02-16T16:18:22.277Z</time>
      </trkpt>
      <trkpt lat="46.32734" lon="-0.56536">
        <ele>2.85</ele>
        <time>2025-02-16T16:18:22.594Z</time>
      </trkpt>
      <trkpt lat="46.32742" lon="-0.56506">
        <ele>2.78</ele>
        <time>2025-02-16T16:18:22.915Z</time>
      </trkpt>
      <trkpt lat="46.32751" lon="-0.56463">
        <ele>2.66</ele>
        <time>2025-02-16T16:18:23.243Z</time>
      </trkpt>
      <trkpt lat="46.32756" lon="-0.5644">
        <ele>2.65</ele>
        <time>2025-02-16T16:18:23.574Z</time>
      </trkpt>
      <trkpt lat="46.32762" lon="-0.56406">
        <ele>2.65</ele>
        <time>2025-02-16T16:18:23.910Z</time>
      </trkpt>
      <trkpt lat="46.32766" lon="-0.56361">
        <ele>2.78</ele>
        <time>2025-02-16T16:18:24.252Z</time>
      </trkpt>
      <trkpt lat="46.3277" lon="-0.56316">
        <ele>2.93</ele>
        <time>2025-02-16T16:18:24.601Z</time>
      </trkpt>
      <trkpt lat="46.32771" lon="-0.56303">
        <ele>3</ele>
        <time>2025-02-16T16:18:24.951Z</time>
      </trkpt>
      <trkpt lat="46.32775" lon="-0.56258">
        <ele>3.04</ele>
        <time>2025-02-16T16:18:25.308Z</time>
      </trkpt>
      <trkpt lat="46.32778" lon="-0.56215">
        <ele>3.03</ele>
        <time>2025-02-16T16:18:25.671Z</time>
      </trkpt>
      <trkpt lat="46.32775" lon="-0.56194">
        <ele>3.07</ele>
        <time>2025-02-16T16:18:26.037Z</time>
      </trkpt>
      <trkpt lat="46.32769" lon="-0.56168">
        <ele>3.21</ele>
        <time>2025-02-16T16:18:26.406Z</time>
      </trkpt>
      <trkpt lat="46.32754" lon="-0.56128">
        <ele>3.26</ele>
        <time>2025-02-16T16:18:26.782Z</time>
      </trkpt>
      <trkpt lat="46.32751" lon="-0.56121">
        <ele>3.44</ele>
        <time>2025-02-16T16:18:27.159Z</time>
      </trkpt>
      <trkpt lat="46.32736" lon="-0.56081">
        <ele>3.72</ele>
        <time>2025-02-16T16:18:27.542Z</time>
      </trkpt>
      <trkpt lat="46.3272" lon="-0.56042">
        <ele>3.9</ele>
        <time>2025-02-16T16:18:27.931Z</time>
      </trkpt>
      <trkpt lat="46.32716" lon="-0.5603">
        <ele>4.09</ele>
        <time>2025-02-16T16:18:28.322Z</time>
      </trkpt>
      <trkpt lat="46.32703" lon="-0.55989">
        <ele>4.18</ele>
        <time>2025-02-16T16:18:28.720Z</time>
      </trkpt>
      <trkpt lat="46.32701" lon="-0.55982">
        <ele>4.38</ele>
        <time>2025-02-16T16:18:29.119Z</time>
      </trkpt>
      <trkpt lat="46.32696" lon="-0.55958">
        <ele>4.6</ele>
        <time>2025-02-16T16:18:29.521Z</time>
      </trkpt>
      <trkpt lat="46.32689" lon="-0.55914">
        <ele>4.84</ele>
        <time>2025-02-16T16:18:29.929Z</time>
      </trkpt>
      <trkpt lat="46.32684" lon="-0.55881">
        <ele>5.13</ele>
        <time>2025-02-16T16:18:30.342Z</time>
      </trkpt>
      <trkpt lat="46.32677" lon="-0.55848">
        <ele>5.56</ele>
        <time>2025-02-16T16:18:30.760Z</time>
      </trkpt>
      <trkpt lat="46.3267" lon="-0.55835">
        <ele>5.89</ele>
        <time>2025-02-16T16:18:31.180Z</time>
      </trkpt>
      <trkpt lat="46.32659" lon="-0.55825">
        <ele>6.21</ele>
        <time>2025-02-16T16:18:31.603Z</time>
      </trkpt>
      <trkpt lat="46.32651" lon="-0.5582">
        <ele>6.45</ele>
        <time>2025-02-16T16:18:32.027Z</time>
      </trkpt>
      <trkpt lat="46.32628" lon="-0.55814">
        <ele>6.6</ele>
        <time>2025-02-16T16:18:32.456Z</time>
      </trkpt>
      <trkpt lat="46.32607" lon="-0.55814">
        <ele>6.64</ele>
        <time>2025-02-16T16:18:32.889Z</time>
      </trkpt>
      <trkpt lat="46.32596" lon="-0.55811">
        <ele>6.7</ele>
        <time>2025-02-16T16:18:33.324Z</time>
      </trkpt>
      <trkpt lat="46.3257" lon="-0.55808">
        <ele>6.64</ele>
        <time>2025-02-16T16:18:33.765Z</time>
      </trkpt>
      <trkpt lat="46.32539" lon="-0.558">
        <ele>6.66</ele>
        <time>2025-02-16T16:18:34.212Z</time>
      </trkpt>
      <trkpt lat="46.32522" lon="-0.55796">
        <ele>6.67</ele>
        <time>2025-02-16T16:18:34.662Z</time>
      </trkpt>
      <trkpt lat="46.32494" lon="-0.55781">
        <ele>6.81</ele>
        <time>2025-02-16T16:18:35.118Z</time>
      </trkpt>
      <trkpt lat="46.32471" lon="-0.55763">
        <ele>6.81</ele>
        <time>2025-02-16T16:18:35.580Z</time>
      </trkpt>
      <trkpt lat="46.32446" lon="-0.55755">
        <ele>6.68</ele>
        <time>2025-02-16T16:18:36.047Z</time>
      </trkpt>
      <trkpt lat="46.32436" lon="-0.55754">
        <ele>6.57</ele>
        <time>2025-02-16T16:18:36.516Z</time>
      </trkpt>
      <trkpt lat="46.32422" lon="-0.55758">
        <ele>6.44</ele>
        <time>2025-02-16T16:18:36.988Z</time>
      </trkpt>
      <trkpt lat="46.32393" lon="-0.55771">
        <ele>6.25</ele>
        <time>2025-02-16T16:18:37.466Z</time>
      </trkpt>
      <trkpt lat="46.32374" lon="-0.55781">
        <ele>6.14</ele>
        <time>2025-02-16T16:18:37.948Z</time>
      </trkpt>
      <trkpt lat="46.32364" lon="-0.55785">
        <ele>6.07</ele>
        <time>2025-02-16T16:18:38.432Z</time>
      </trkpt>
      <trkpt lat="46.3235" lon="-0.55785">
        <ele>6</ele>
        <time>2025-02-16T16:18:38.919Z</time>
      </trkpt>
      <trkpt lat="46.3234" lon="-0.55781">
        <ele>5.87</ele>
        <time>2025-02-16T16:18:39.408Z</time>
      </trkpt>
      <trkpt lat="46.32329" lon="-0.5577">
        <ele>5.76</ele>
        <time>2025-02-16T16:18:39.899Z</time>
      </trkpt>
      <trkpt lat="46.32321" lon="-0.55757">
        <ele>5.64</ele>
        <time>2025-02-16T16:18:40.393Z</time>
      </trkpt>
      <trkpt lat="46.32311" lon="-0.55714">
        <ele>5.5</ele>
        <time>2025-02-16T16:18:40.893Z</time>
      </trkpt>
      <trkpt lat="46.32303" lon="-0.55683">
        <ele>5.36</ele>
        <time>2025-02-16T16:18:41.398Z</time>
      </trkpt>
      <trkpt lat="46.32293" lon="-0.5564">
        <ele>5.29</ele>
        <time>2025-02-16T16:18:41.909Z</time>
      </trkpt>
      <trkpt lat="46.32292" lon="-0.55634">
        <ele>5.25</ele>
        <time>2025-02-16T16:18:42.421Z</time>
      </trkpt>
      <trkpt lat="46.32283" lon="-0.55591">
        <ele>5.24</ele>
        <time>2025-02-16T16:18:42.939Z</time>
      </trkpt>
      <trkpt lat="46.32278" lon="-0.5557">
        <ele>5.23</ele>
        <time>2025-02-16T16:18:43.460Z</time>
      </trkpt>
      <trkpt lat="46.32275" lon="-0.55525">
        <ele>5.24</ele>
        <time>2025-02-16T16:18:43.987Z</time>
      </trkpt>
      <trkpt lat="46.32275" lon="-0.55524">
        <ele>5.25</ele>
        <time>2025-02-16T16:18:44.515Z</time>
      </trkpt>
      <trkpt lat="46.32276" lon="-0.55479">
        <ele>5.27</ele>
        <time>2025-02-16T16:18:45.049Z</time>
      </trkpt>
      <trkpt lat="46.32278" lon="-0.55433">
        <ele>5.32</ele>
        <time>2025-02-16T16:18:45.589Z</time>
      </trkpt>
      <trkpt lat="46.32278" lon="-0.55421">
        <ele>5.41</ele>
        <time>2025-02-16T16:18:46.131Z</time>
      </trkpt>
      <trkpt lat="46.3228" lon="-0.55395">
        <ele>5.58</ele>
        <time>2025-02-16T16:18:46.676Z</time>
      </trkpt>
      <trkpt lat="46.32278" lon="-0.5535">
        <ele>5.63</ele>
        <time>2025-02-16T16:18:47.228Z</time>
      </trkpt>
      <trkpt lat="46.32278" lon="-0.55343">
        <ele>5.72</ele>
        <time>2025-02-16T16:18:47.781Z</time>
      </trkpt>
      <trkpt lat="46.32275" lon="-0.55298">
        <ele>5.83</ele>
        <time>2025-02-16T16:18:48.340Z</time>
      </trkpt>
      <trkpt lat="46.32275" lon="-0.55291">
        <ele>5.95</ele>
        <time>2025-02-16T16:18:48.900Z</time>
      </trkpt>
      <trkpt lat="46.32273" lon="-0.55262">
        <ele>6.09</ele>
        <time>2025-02-16T16:18:49.464Z</time>
      </trkpt>
      <trkpt lat="46.32269" lon="-0.55242">
        <ele>6.22</ele>
        <time>2025-02-16T16:18:50.031Z</time>
      </trkpt>
      <trkpt lat="46.32259" lon="-0.55199">
        <ele>6.3</ele>
        <time>2025-02-16T16:18:50.604Z</time>
      </trkpt>
      <trkpt lat="46.32258" lon="-0.55196">
        <ele>6.39</ele>
        <time>2025-02-16T16:18:51.178Z</time>
      </trkpt>
      <trkpt lat="46.32261" lon="-0.55164">
        <ele>6.49</ele>
        <time>2025-02-16T16:18:51.756Z</time>
      </trkpt>
      <trkpt lat="46.32268" lon="-0.5512">
        <ele>6.53</ele>
        <time>2025-02-16T16:18:52.340Z</time>
      </trkpt>
      <trkpt lat="46.32272" lon="-0.55098">
        <ele>6.61</ele>
        <time>2025-02-16T16:18:52.927Z</time>
      </trkpt>
      <trkpt lat="46.32279" lon="-0.55054">
        <ele>6.71</ele>
        <time>2025-02-16T16:18:53.521Z</time>
      </trkpt>
      <trkpt lat="46.32281" lon="-0.55043">
        <ele>6.8</ele>
        <time>2025-02-16T16:18:54.116Z</time>
      </trkpt>
      <trkpt lat="46.32279" lon="-0.55043">
        <ele>6.88</ele>
        <time>2025-02-16T16:18:54.712Z</time>
      </trkpt>
      <trkpt lat="46.32285" lon="-0.54998">
        <ele>7.03</ele>
        <time>2025-02-16T16:18:55.314Z</time>
      </trkpt>
      <trkpt lat="46.32286" lon="-0.54987">
        <ele>7.09</ele>
        <time>2025-02-16T16:18:55.917Z</time>
      </trkpt>
      <trkpt lat="46.32302" lon="-0.54949">
        <ele>7.15</ele>
        <time>2025-02-16T16:18:56.527Z</time>
      </trkpt>
      <trkpt lat="46.32313" lon="-0.54917">
        <ele>7.19</ele>
        <time>2025-02-16T16:18:57.142Z</time>
      </trkpt>
      <trkpt lat="46.32316" lon="-0.54892">
        <ele>7.25</ele>
        <time>2025-02-16T16:18:57.760Z</time>
      </trkpt>
      <trkpt lat="46.32315" lon="-0.5487">
        <ele>7.26</ele>
        <time>2025-02-16T16:18:58.381Z</time>
      </trkpt>
      <trkpt lat="46.3231" lon="-0.54834">
        <ele>7.25</ele>
        <time>2025-02-16T16:18:59.007Z</time>
      </trkpt>
      <trkpt lat="46.32308" lon="-0.54792">
        <ele>7.27</ele>
        <time>2025-02-16T16:18:59.639Z</time>
      </trkpt>
      <trkpt lat="46.32311" lon="-0.54763">
        <ele>7.26</ele>
        <time>2025-02-16T16:19:00.275Z</time>
      </trkpt>
      <trkpt lat="46.32318" lon="-0.54735">
        <ele>7.2</ele>
        <time>2025-02-16T16:19:00.915Z</time>
      </trkpt>
      <trkpt lat="46.32328" lon="-0.54719">
        <ele>7.15</ele>
        <time>2025-02-16T16:19:01.558Z</time>
      </trkpt>
      <trkpt lat="46.32347" lon="-0.5469">
        <ele>7.13</ele>
        <time>2025-02-16T16:19:02.207Z</time>
      </trkpt>
      <trkpt lat="46.32349" lon="-0.54678">
        <ele>7.15</ele>
        <time>2025-02-16T16:19:02.857Z</time>
      </trkpt>
      <trkpt lat="46.32338" lon="-0.54665">
        <ele>7.25</ele>
        <time>2025-02-16T16:19:03.510Z</time>
      </trkpt>
      <trkpt lat="46.32332" lon="-0.54654">
        <ele>7.34</ele>
        <time>2025-02-16T16:19:04.165Z</time>
      </trkpt>
      <trkpt lat="46.32335" lon="-0.54609">
        <ele>7.51</ele>
        <time>2025-02-16T16:19:04.827Z</time>
      </trkpt>
      <trkpt lat="46.32336" lon="-0.54592">
        <ele>7.58</ele>
        <time>2025-02-16T16:19:05.491Z</time>
      </trkpt>
      <trkpt lat="46.32334" lon="-0.54585">
        <ele>7.65</ele>
        <time>2025-02-16T16:19:06.156Z</time>
      </trkpt>
      <trkpt lat="46.3233" lon="-0.54579">
        <ele>7.72</ele>
        <time>2025-02-16T16:19:06.822Z</time>
      </trkpt>
      <trkpt lat="46.32318" lon="-0.54575">
        <ele>7.77</ele>
        <time>2025-02-16T16:19:07.491Z</time>
      </trkpt>
      <trkpt lat="46.32315" lon="-0.54574">
        <ele>7.8</ele>
        <time>2025-02-16T16:19:08.160Z</time>
      </trkpt>
      <trkpt lat="46.32284" lon="-0.54567">
        <ele>7.77</ele>
        <time>2025-02-16T16:19:08.835Z</time>
      </trkpt>
      <trkpt lat="46.32253" lon="-0.54559">
        <ele>7.8</ele>
        <time>2025-02-16T16:19:09.517Z</time>
      </trkpt>
      <trkpt lat="46.32227" lon="-0.54553">
        <ele>7.83</ele>
        <time>2025-02-16T16:19:10.204Z</time>
      </trkpt>
      <trkpt lat="46.32197" lon="-0.54542">
        <ele>7.77</ele>
        <time>2025-02-16T16:19:10.897Z</time>
      </trkpt>
      <trkpt lat="46.32189" lon="-0.54539">
        <ele>7.75</ele>
        <time>2025-02-16T16:19:11.592Z</time>
      </trkpt>
      <trkpt lat="46.32177" lon="-0.54539">
        <ele>7.7</ele>
        <time>2025-02-16T16:19:12.289Z</time>
      </trkpt>
      <trkpt lat="46.32146" lon="-0.54546">
        <ele>7.62</ele>
        <time>2025-02-16T16:19:12.993Z</time>
      </trkpt>
      <trkpt lat="46.32143" lon="-0.54547">
        <ele>7.68</ele>
        <time>2025-02-16T16:19:13.697Z</time>
      </trkpt>
      <trkpt lat="46.32112" lon="-0.54556">
        <ele>7.85</ele>
        <time>2025-02-16T16:19:14.407Z</time>
      </trkpt>
      <trkpt lat="46.32092" lon="-0.54561">
        <ele>8.02</ele>
        <time>2025-02-16T16:19:15.122Z</time>
      </trkpt>
      <trkpt lat="46.32061" lon="-0.5457">
        <ele>8.19</ele>
        <time>2025-02-16T16:19:15.843Z</time>
      </trkpt>
      <trkpt lat="46.3203" lon="-0.54579">
        <ele>8.35</ele>
        <time>2025-02-16T16:19:16.570Z</time>
      </trkpt>
      <trkpt lat="46.32011" lon="-0.54584">
        <ele>8.55</ele>
        <time>2025-02-16T16:19:17.301Z</time>
      </trkpt>
      <trkpt lat="46.3198" lon="-0.54584">
        <ele>8.81</ele>
        <time>2025-02-16T16:19:18.038Z</time>
      </trkpt>
      <trkpt lat="46.31948" lon="-0.54583">
        <ele>9.03</ele>
        <time>2025-02-16T16:19:18.782Z</time>
      </trkpt>
      <trkpt lat="46.31948" lon="-0.54583">
        <ele>9.25</ele>
        <time>2025-02-16T16:19:19.526Z</time>
      </trkpt>
      <trkpt lat="46.31918" lon="-0.54583">
        <ele>9.51</ele>
        <time>2025-02-16T16:19:20.276Z</time>
      </trkpt>
      <trkpt lat="46.31887" lon="-0.54587">
        <ele>9.73</ele>
        <time>2025-02-16T16:19:21.032Z</time>
      </trkpt>
      <trkpt lat="46.31868" lon="-0.54589">
        <ele>9.94</ele>
        <time>2025-02-16T16:19:21.792Z</time>
      </trkpt>
      <trkpt lat="46.31867" lon="-0.54585">
        <ele>10.16</ele>
        <time>2025-02-16T16:19:22.552Z</time>
      </trkpt>
      <trkpt lat="46.31863" lon="-0.54577">
        <ele>10.38</ele>
        <time>2025-02-16T16:19:23.314Z</time>
      </trkpt>
      <trkpt lat="46.31858" lon="-0.5457">
        <ele>10.61</ele>
        <time>2025-02-16T16:19:24.077Z</time>
      </trkpt>
      <trkpt lat="46.31852" lon="-0.54567">
        <ele>10.8</ele>
        <time>2025-02-16T16:19:24.841Z</time>
      </trkpt>
      <trkpt lat="46.31854" lon="-0.54539">
        <ele>11</ele>
        <time>2025-02-16T16:19:25.609Z</time>
      </trkpt>
      <trkpt lat="46.31853" lon="-0.54511">
        <ele>11.09</ele>
        <time>2025-02-16T16:19:26.381Z</time>
      </trkpt>
      <trkpt lat="46.3185" lon="-0.54475">
        <ele>11.12</ele>
        <time>2025-02-16T16:19:27.158Z</time>
      </trkpt>
      <trkpt lat="46.31847" lon="-0.54432">
        <ele>11.23</ele>
        <time>2025-02-16T16:19:27.941Z</time>
      </trkpt>
      <trkpt lat="46.31839" lon="-0.54405">
        <ele>11.34</ele>
        <time>2025-02-16T16:19:28.728Z</time>
      </trkpt>
      <trkpt lat="46.31822" lon="-0.54367">
        <ele>11.45</ele>
        <time>2025-02-16T16:19:29.521Z</time>
      </trkpt>
      <trkpt lat="46.31822" lon="-0.54366">
        <ele>11.46</ele>
        <time>2025-02-16T16:19:30.315Z</time>
      </trkpt>
      <trkpt lat="46.31816" lon="-0.5435">
        <ele>11.42</ele>
        <time>2025-02-16T16:19:31.111Z</time>
      </trkpt>
      <trkpt lat="46.31802" lon="-0.5431">
        <ele>11.35</ele>
        <time>2025-02-16T16:19:31.913Z</time>
      </trkpt>
      <trkpt lat="46.31796" lon="-0.54293">
        <ele>11.26</ele>
        <time>2025-02-16T16:19:32.718Z</time>
      </trkpt>
      <trkpt lat="46.31784" lon="-0.54251">
        <ele>11.1</ele>
        <time>2025-02-16T16:19:33.529Z</time>
      </trkpt>
      <trkpt lat="46.31783" lon="-0.54247">
        <ele>10.98</ele>
        <time>2025-02-16T16:19:34.341Z</time>
      </trkpt>
      <trkpt lat="46.31767" lon="-0.54208">
        <ele>10.87</ele>
        <time>2025-02-16T16:19:35.159Z</time>
      </trkpt>
      <trkpt lat="46.31766" lon="-0.54207">
        <ele>10.7</ele>
        <time>2025-02-16T16:19:35.977Z</time>
      </trkpt>
      <trkpt lat="46.31761" lon="-0.54195">
        <ele>10.52</ele>
        <time>2025-02-16T16:19:36.797Z</time>
      </trkpt>
      <trkpt lat="46.31758" lon="-0.5419">
        <ele>10.31</ele>
        <time>2025-02-16T16:19:37.618Z</time>
      </trkpt>
      <trkpt lat="46.31754" lon="-0.54189">
        <ele>10.08</ele>
        <time>2025-02-16T16:19:38.440Z</time>
      </trkpt>
      <trkpt lat="46.31748" lon="-0.54195">
        <ele>9.84</ele>
        <time>2025-02-16T16:19:39.263Z</time>
      </trkpt>
      <trkpt lat="46.31723" lon="-0.54217">
        <ele>9.53</ele>
        <time>2025-02-16T16:19:40.092Z</time>
      </trkpt>
      <trkpt lat="46.31702" lon="-0.54233">
        <ele>9.23</ele>
        <time>2025-02-16T16:19:40.926Z</time>
      </trkpt>
      <trkpt lat="46.3168" lon="-0.54241">
        <ele>8.93</ele>
        <time>2025-02-16T16:19:41.765Z</time>
      </trkpt>
      <trkpt lat="46.31652" lon="-0.5424">
        <ele>8.6</ele>
        <time>2025-02-16T16:19:42.609Z</time>
      </trkpt>
      <trkpt lat="46.31621" lon="-0.54235">
        <ele>8.17</ele>
        <time>2025-02-16T16:19:43.460Z</time>
      </trkpt>
      <trkpt lat="46.31589" lon="-0.5423">
        <ele>7.85</ele>
        <time>2025-02-16T16:19:44.317Z</time>
      </trkpt>
      <trkpt lat="46.31558" lon="-0.54225">
        <ele>7.49</ele>
        <time>2025-02-16T16:19:45.180Z</time>
      </trkpt>
      <trkpt lat="46.3155" lon="-0.54224">
        <ele>7.16</ele>
        <time>2025-02-16T16:19:46.045Z</time>
      </trkpt>
      <trkpt lat="46.31519" lon="-0.54222">
        <ele>6.83</ele>
        <time>2025-02-16T16:19:46.916Z</time>
      </trkpt>
      <trkpt lat="46.31518" lon="-0.54222">
        <ele>6.57</ele>
        <time>2025-02-16T16:19:47.787Z</time>
      </trkpt>
      <trkpt lat="46.31521" lon="-0.54188">
        <ele>6.32</ele>
        <time>2025-02-16T16:19:48.663Z</time>
      </trkpt>
      <trkpt lat="46.31524" lon="-0.54143">
        <ele>6.15</ele>
        <time>2025-02-16T16:19:49.545Z</time>
      </trkpt>
      <trkpt lat="46.31524" lon="-0.54133">
        <ele>5.95</ele>
        <time>2025-02-16T16:19:50.429Z</time>
      </trkpt>
      <trkpt lat="46.31522" lon="-0.54113">
        <ele>5.78</ele>
        <time>2025-02-16T16:19:51.315Z</time>
      </trkpt>
      <trkpt lat="46.31517" lon="-0.54076">
        <ele>5.59</ele>
        <time>2025-02-16T16:19:52.207Z</time>
      </trkpt>
      <trkpt lat="46.31507" lon="-0.54033">
        <ele>5.45</ele>
        <time>2025-02-16T16:19:53.105Z</time>
      </trkpt>
      <trkpt lat="46.31504" lon="-0.54018">
        <ele>5.31</ele>
        <time>2025-02-16T16:19:54.005Z</time>
      </trkpt>
      <trkpt lat="46.31495" lon="-0.53975">
        <ele>5.22</ele>
        <time>2025-02-16T16:19:54.911Z</time>
      </trkpt>
      <trkpt lat="46.31488" lon="-0.53941">
        <ele>5.21</ele>
        <time>2025-02-16T16:19:55.822Z</time>
      </trkpt>
      <trkpt lat="46.31481" lon="-0.53925">
        <ele>5.18</ele>
        <time>2025-02-16T16:19:56.736Z</time>
      </trkpt>
      <trkpt lat="46.31468" lon="-0.53908">
        <ele>5.12</ele>
        <time>2025-02-16T16:19:57.653Z</time>
      </trkpt>
      <trkpt lat="46.31447" lon="-0.53875">
        <ele>5.09</ele>
        <time>2025-02-16T16:19:58.577Z</time>
      </trkpt>
      <trkpt lat="46.3144" lon="-0.53864">
        <ele>5.09</ele>
        <time>2025-02-16T16:19:59.503Z</time>
      </trkpt>
      <trkpt lat="46.31422" lon="-0.53828">
        <ele>5.03</ele>
        <time>2025-02-16T16:20:00.435Z</time>
      </trkpt>
      <trkpt lat="46.31415" lon="-0.53808">
        <ele>5.05</ele>
        <time>2025-02-16T16:20:01.370Z</time>
      </trkpt>
      <trkpt lat="46.31404" lon="-0.53765">
        <ele>5.07</ele>
        <time>2025-02-16T16:20:02.311Z</time>
      </trkpt>
      <trkpt lat="46.31395" lon="-0.53729">
        <ele>5.16</ele>
        <time>2025-02-16T16:20:03.258Z</time>
      </trkpt>
      <trkpt lat="46.31393" lon="-0.53706">
        <ele>5.23</ele>
        <time>2025-02-16T16:20:04.208Z</time>
      </trkpt>
      <trkpt lat="46.31394" lon="-0.5368">
        <ele>5.3</ele>
        <time>2025-02-16T16:20:05.161Z</time>
      </trkpt>
      <trkpt lat="46.31397" lon="-0.53643">
        <ele>5.33</ele>
        <time>2025-02-16T16:20:06.120Z</time>
      </trkpt>
      <trkpt lat="46.31394" lon="-0.5364">
        <ele>5.4</ele>
        <time>2025-02-16T16:20:07.079Z</time>
      </trkpt>
      <trkpt lat="46.31391" lon="-0.53595">
        <ele>5.53</ele>
        <time>2025-02-16T16:20:08.045Z</time>
      </trkpt>
      <trkpt lat="46.31391" lon="-0.53594">
        <ele>5.6</ele>
        <time>2025-02-16T16:20:09.011Z</time>
      </trkpt>
      <trkpt lat="46.31388" lon="-0.53549">
        <ele>5.69</ele>
        <time>2025-02-16T16:20:09.983Z</time>
      </trkpt>
      <trkpt lat="46.31388" lon="-0.53547">
        <ele>5.76</ele>
        <time>2025-02-16T16:20:10.955Z</time>
      </trkpt>
      <trkpt lat="46.31386" lon="-0.53508">
        <ele>5.86</ele>
        <time>2025-02-16T16:20:11.933Z</time>
      </trkpt>
      <trkpt lat="46.31382" lon="-0.53463">
        <ele>5.93</ele>
        <time>2025-02-16T16:20:12.917Z</time>
      </trkpt>
      <trkpt lat="46.31381" lon="-0.53448">
        <ele>5.98</ele>
        <time>2025-02-16T16:20:13.903Z</time>
      </trkpt>
      <trkpt lat="46.31382" lon="-0.53413">
        <ele>5.98</ele>
        <time>2025-02-16T16:20:14.894Z</time>
      </trkpt>
      <trkpt lat="46.31384" lon="-0.53395">
        <ele>6</ele>
        <time>2025-02-16T16:20:15.887Z</time>
      </trkpt>
      <trkpt lat="46.3139" lon="-0.53371">
        <ele>6.03</ele>
        <time>2025-02-16T16:20:16.884Z</time>
      </trkpt>
      <trkpt lat="46.31409" lon="-0.53335">
        <ele>6.06</ele>
        <time>2025-02-16T16:20:17.887Z</time>
      </trkpt>
      <trkpt lat="46.31426" lon="-0.53301">
        <ele>6.13</ele>
        <time>2025-02-16T16:20:18.896Z</time>
      </trkpt>
      <trkpt lat="46.31436" lon="-0.53283">
        <ele>6.23</ele>
        <time>2025-02-16T16:20:19.908Z</time>
      </trkpt>
      <trkpt lat="46.31454" lon="-0.53246">
        <ele>6.32</ele>
        <time>2025-02-16T16:20:20.927Z</time>
      </trkpt>
      <trkpt lat="46.31455" lon="-0.53244">
        <ele>6.44</ele>
        <time>2025-02-16T16:20:21.946Z</time>
      </trkpt>
      <trkpt lat="46.3146" lon="-0.53225">
        <ele>6.62</ele>
        <time>2025-02-16T16:20:22.968Z</time>
      </trkpt>
      <trkpt lat="46.31464" lon="-0.532">
        <ele>6.81</ele>
        <time>2025-02-16T16:20:23.993Z</time>
      </trkpt>
      <trkpt lat="46.31472" lon="-0.53156">
        <ele>7.03</ele>
        <time>2025-02-16T16:20:25.024Z</time>
      </trkpt>
      <trkpt lat="46.31478" lon="-0.53125">
        <ele>7.2</ele>
        <time>2025-02-16T16:20:26.060Z</time>
      </trkpt>
      <trkpt lat="46.31488" lon="-0.53082">
        <ele>7.43</ele>
        <time>2025-02-16T16:20:27.102Z</time>
      </trkpt>
      <trkpt lat="46.31495" lon="-0.53051">
        <ele>7.59</ele>
        <time>2025-02-16T16:20:28.149Z</time>
      </trkpt>
      <trkpt lat="46.31507" lon="-0.53016">
        <ele>7.67</ele>
        <time>2025-02-16T16:20:29.201Z</time>
      </trkpt>
      <trkpt lat="46.31519" lon="-0.53">
        <ele>7.79</ele>
        <time>2025-02-16T16:20:30.256Z</time>
      </trkpt>
      <trkpt lat="46.31544" lon="-0.52972">
        <ele>7.91</ele>
        <time>2025-02-16T16:20:31.318Z</time>
      </trkpt>
      <trkpt lat="46.31545" lon="-0.52971">
        <ele>8.08</ele>
        <time>2025-02-16T16:20:32.380Z</time>
      </trkpt>
      <trkpt lat="46.31569" lon="-0.52941">
        <ele>8.26</ele>
        <time>2025-02-16T16:20:33.448Z</time>
      </trkpt>
      <trkpt lat="46.31578" lon="-0.52929">
        <ele>8.44</ele>
        <time>2025-02-16T16:20:34.519Z</time>
      </trkpt>
      <trkpt lat="46.31601" lon="-0.52898">
        <ele>8.64</ele>
        <time>2025-02-16T16:20:35.596Z</time>
      </trkpt>
      <trkpt lat="46.31622" lon="-0.5287">
        <ele>8.83</ele>
        <time>2025-02-16T16:20:36.679Z</time>
      </trkpt>
      <trkpt lat="46.31637" lon="-0.52851">
        <ele>8.97</ele>
        <time>2025-02-16T16:20:37.766Z</time>
      </trkpt>
      <trkpt lat="46.31649" lon="-0.52842">
        <ele>9.09</ele>
        <time>2025-02-16T16:20:38.856Z</time>
      </trkpt>
      <trkpt lat="46.31679" lon="-0.5283">
        <ele>9.24</ele>
        <time>2025-02-16T16:20:39.952Z</time>
      </trkpt>
      <trkpt lat="46.3171" lon="-0.52821">
        <ele>9.5</ele>
        <time>2025-02-16T16:20:41.054Z</time>
      </trkpt>
      <trkpt lat="46.31721" lon="-0.52817">
        <ele>9.7</ele>
        <time>2025-02-16T16:20:42.158Z</time>
      </trkpt>
      <trkpt lat="46.31739" lon="-0.52815">
        <ele>9.92</ele>
        <time>2025-02-16T16:20:43.266Z</time>
      </trkpt>
      <trkpt lat="46.31756" lon="-0.52812">
        <ele>10.17</ele>
        <time>2025-02-16T16:20:44.377Z</time>
      </trkpt>
      <trkpt lat="46.31769" lon="-0.52807">
        <ele>10.38</ele>
        <time>2025-02-16T16:20:45.491Z</time>
      </trkpt>
      <trkpt lat="46.3179" lon="-0.5279">
        <ele>10.55</ele>
        <time>2025-02-16T16:20:46.610Z</time>
      </trkpt>
      <trkpt lat="46.31816" lon="-0.52764">
        <ele>10.66</ele>
        <time>2025-02-16T16:20:47.735Z</time>
      </trkpt>
      <trkpt lat="46.31819" lon="-0.5276">
        <ele>10.7</ele>
        <time>2025-02-16T16:20:48.861Z</time>
      </trkpt>
      <trkpt lat="46.31842" lon="-0.52729">
        <ele>10.73</ele>
        <time>2025-02-16T16:20:49.993Z</time>
      </trkpt>
      <trkpt lat="46.31865" lon="-0.52697">
        <ele>10.75</ele>
        <time>2025-02-16T16:20:51.132Z</time>
      </trkpt>
      <trkpt lat="46.3188" lon="-0.52676">
        <ele>10.66</ele>
        <time>2025-02-16T16:20:52.275Z</time>
      </trkpt>
      <trkpt lat="46.31899" lon="-0.52655">
        <ele>10.47</ele>
        <time>2025-02-16T16:20:53.423Z</time>
      </trkpt>
      <trkpt lat="46.31908" lon="-0.52647">
        <ele>10.28</ele>
        <time>2025-02-16T16:20:54.573Z</time>
      </trkpt>
      <trkpt lat="46.31939" lon="-0.52638">
        <ele>10.09</ele>
        <time>2025-02-16T16:20:55.729Z</time>
      </trkpt>
      <trkpt lat="46.31962" lon="-0.52631">
        <ele>9.83</ele>
        <time>2025-02-16T16:20:56.890Z</time>
      </trkpt>
      <trkpt lat="46.31993" lon="-0.52621">
        <ele>9.46</ele>
        <time>2025-02-16T16:20:58.057Z</time>
      </trkpt>
      <trkpt lat="46.32" lon="-0.52619">
        <ele>9.15</ele>
        <time>2025-02-16T16:20:59.226Z</time>
      </trkpt>
      <trkpt lat="46.32006" lon="-0.52616">
        <ele>8.83</ele>
        <time>2025-02-16T16:21:00.396Z</time>
      </trkpt>
      <trkpt lat="46.32018" lon="-0.52604">
        <ele>8.46</ele>
        <time>2025-02-16T16:21:01.569Z</time>
      </trkpt>
      <trkpt lat="46.32042" lon="-0.52575">
        <ele>7.99</ele>
        <time>2025-02-16T16:21:02.748Z</time>
      </trkpt>
      <trkpt lat="46.32054" lon="-0.5256">
        <ele>7.61</ele>
        <time>2025-02-16T16:21:03.930Z</time>
      </trkpt>
      <trkpt lat="46.32075" lon="-0.52527">
        <ele>7.3</ele>
        <time>2025-02-16T16:21:05.119Z</time>
      </trkpt>
      <trkpt lat="46.3208" lon="-0.52519">
        <ele>7.03</ele>
        <time>2025-02-16T16:21:06.309Z</time>
      </trkpt>
      <trkpt lat="46.32096" lon="-0.52493">
        <ele>6.79</ele>
        <time>2025-02-16T16:21:07.504Z</time>
      </trkpt>
      <trkpt lat="46.32116" lon="-0.52467">
        <ele>6.58</ele>
        <time>2025-02-16T16:21:08.704Z</time>
      </trkpt>
      <trkpt lat="46.32123" lon="-0.5246">
        <ele>6.39</ele>
        <time>2025-02-16T16:21:09.906Z</time>
      </trkpt>
      <trkpt lat="46.32136" lon="-0.52453">
        <ele>6.22</ele>
        <time>2025-02-16T16:21:11.111Z</time>
      </trkpt>
      <trkpt lat="46.32148" lon="-0.52451">
        <ele>5.99</ele>
        <time>2025-02-16T16:21:12.318Z</time>
      </trkpt>
      <trkpt lat="46.32179" lon="-0.5246">
        <ele>5.74</ele>
        <time>2025-02-16T16:21:13.531Z</time>
      </trkpt>
      <trkpt lat="46.32181" lon="-0.52461">
        <ele>5.56</ele>
        <time>2025-02-16T16:21:14.745Z</time>
      </trkpt>
      <trkpt lat="46.32203" lon="-0.5247">
        <ele>5.33</ele>
        <time>2025-02-16T16:21:15.963Z</time>
      </trkpt>
      <trkpt lat="46.3221" lon="-0.52473">
        <ele>5.18</ele>
        <time>2025-02-16T16:21:17.183Z</time>
      </trkpt>
      <trkpt lat="46.32217" lon="-0.5247">
        <ele>5.07</ele>
        <time>2025-02-16T16:21:18.404Z</time>
      </trkpt>
      <trkpt lat="46.32227" lon="-0.52472">
        <ele>5</ele>
        <time>2025-02-16T16:21:19.627Z</time>
      </trkpt>
      <trkpt lat="46.32243" lon="-0.52474">
        <ele>4.97</ele>
        <time>2025-02-16T16:21:20.854Z</time>
      </trkpt>
      <trkpt lat="46.32254" lon="-0.52473">
        <ele>4.93</ele>
        <time>2025-02-16T16:21:22.083Z</time>
      </trkpt>
      <trkpt lat="46.32274" lon="-0.52464">
        <ele>4.92</ele>
        <time>2025-02-16T16:21:23.316Z</time>
      </trkpt>
      <trkpt lat="46.32287" lon="-0.52453">
        <ele>4.93</ele>
        <time>2025-02-16T16:21:24.552Z</time>
      </trkpt>
      <trkpt lat="46.32296" lon="-0.5244">
        <ele>4.95</ele>
        <time>2025-02-16T16:21:25.791Z</time>
      </trkpt>
      <trkpt lat="46.32304" lon="-0.5242">
        <ele>4.95</ele>
        <time>2025-02-16T16:21:27.033Z</time>
      </trkpt>
      <trkpt lat="46.32314" lon="-0.52388">
        <ele>4.97</ele>
        <time>2025-02-16T16:21:28.280Z</time>
      </trkpt>
      <trkpt lat="46.32321" lon="-0.52366">
        <ele>5.03</ele>
        <time>2025-02-16T16:21:29.530Z</time>
      </trkpt>
      <trkpt lat="46.32323" lon="-0.52348">
        <ele>5.06</ele>
        <time>2025-02-16T16:21:30.782Z</time>
      </trkpt>
      <trkpt lat="46.32324" lon="-0.52316">
        <ele>5.05</ele>
        <time>2025-02-16T16:21:32.039Z</time>
      </trkpt>
      <trkpt lat="46.32329" lon="-0.52293">
        <ele>5.07</ele>
        <time>2025-02-16T16:21:33.299Z</time>
      </trkpt>
      <trkpt lat="46.3234" lon="-0.52273">
        <ele>5.11</ele>
        <time>2025-02-16T16:21:34.563Z</time>
      </trkpt>
      <trkpt lat="46.32347" lon="-0.52267">
        <ele>5.15</ele>
        <time>2025-02-16T16:21:35.828Z</time>
      </trkpt>
      <trkpt lat="46.32355" lon="-0.52265">
        <ele>5.2</ele>
        <time>2025-02-16T16:21:37.095Z</time>
      </trkpt>
      <trkpt lat="46.32362" lon="-0.52258">
        <ele>5.22</ele>
        <time>2025-02-16T16:21:38.364Z</time>
      </trkpt>
      <trkpt lat="46.32375" lon="-0.52234">
        <ele>5.25</ele>
        <time>2025-02-16T16:21:39.637Z</time>
      </trkpt>
      <trkpt lat="46.32385" lon="-0.52222">
        <ele>5.29</ele>
        <time>2025-02-16T16:21:40.913Z</time>
      </trkpt>
      <trkpt lat="46.32414" lon="-0.52205">
        <ele>5.28</ele>
        <time>2025-02-16T16:21:42.195Z</time>
      </trkpt>
      <trkpt lat="46.32415" lon="-0.52204">
        <ele>5.34</ele>
        <time>2025-02-16T16:21:43.477Z</time>
      </trkpt>
      <trkpt lat="46.32435" lon="-0.52194">
        <ele>5.4</ele>
        <time>2025-02-16T16:21:44.763Z</time>
      </trkpt>
      <trkpt lat="46.32443" lon="-0.52192">
        <ele>5.48</ele>
        <time>2025-02-16T16:21:46.051Z</time>
      </trkpt>
      <trkpt lat="46.32456" lon="-0.52191">
        <ele>5.57</ele>
        <time>2025-02-16T16:21:47.342Z</time>
      </trkpt>
      <trkpt lat="46.32476" lon="-0.52196">
        <ele>5.66</ele>
        <time>2025-02-16T16:21:48.637Z</time>
      </trkpt>
      <trkpt lat="46.32507" lon="-0.52206">
        <ele>5.77</ele>
        <time>2025-02-16T16:21:49.938Z</time>
      </trkpt>
      <trkpt lat="46.32507" lon="-0.52206">
        <ele>5.89</ele>
        <time>2025-02-16T16:21:51.239Z</time>
      </trkpt>
      <trkpt lat="46.32537" lon="-0.5222">
        <ele>6.03</ele>
        <time>2025-02-16T16:21:52.546Z</time>
      </trkpt>
      <trkpt lat="46.32555" lon="-0.52229">
        <ele>6.22</ele>
        <time>2025-02-16T16:21:53.857Z</time>
      </trkpt>
      <trkpt lat="46.32566" lon="-0.52231">
        <ele>6.37</ele>
        <time>2025-02-16T16:21:55.170Z</time>
      </trkpt>
      <trkpt lat="46.32574" lon="-0.5223">
        <ele>6.52</ele>
        <time>2025-02-16T16:21:56.485Z</time>
      </trkpt>
      <trkpt lat="46.3258" lon="-0.52228">
        <ele>6.67</ele>
        <time>2025-02-16T16:21:57.801Z</time>
      </trkpt>
      <trkpt lat="46.32601" lon="-0.52227">
        <ele>6.86</ele>
        <time>2025-02-16T16:21:59.121Z</time>
      </trkpt>
      <trkpt lat="46.32611" lon="-0.52227">
        <ele>7.03</ele>
        <time>2025-02-16T16:22:00.443Z</time>
      </trkpt>
      <trkpt lat="46.32619" lon="-0.52222">
        <ele>7.22</ele>
        <time>2025-02-16T16:22:01.767Z</time>
      </trkpt>
      <trkpt lat="46.32645" lon="-0.52196">
        <ele>7.45</ele>
        <time>2025-02-16T16:22:03.097Z</time>
      </trkpt>
      <trkpt lat="46.32646" lon="-0.52194">
        <ele>7.58</ele>
        <time>2025-02-16T16:22:04.428Z</time>
      </trkpt>
      <trkpt lat="46.3265" lon="-0.52181">
        <ele>7.67</ele>
        <time>2025-02-16T16:22:05.761Z</time>
      </trkpt>
      <trkpt lat="46.32654" lon="-0.52175">
        <ele>7.77</ele>
        <time>2025-02-16T16:22:07.095Z</time>
      </trkpt>
      <trkpt lat="46.32663" lon="-0.52173">
        <ele>7.9</ele>
        <time>2025-02-16T16:22:08.431Z</time>
      </trkpt>
      <trkpt lat="46.32689" lon="-0.52148">
        <ele>7.95</ele>
        <time>2025-02-16T16:22:09.773Z</time>
      </trkpt>
      <trkpt lat="46.32699" lon="-0.52139">
        <ele>8.02</ele>
        <time>2025-02-16T16:22:11.117Z</time>
      </trkpt>
      <trkpt lat="46.32724" lon="-0.5212">
        <ele>8.11</ele>
        <time>2025-02-16T16:22:12.467Z</time>
      </trkpt>
      <trkpt lat="46.32751" lon="-0.52096">
        <ele>8.26</ele>
        <time>2025-02-16T16:22:13.823Z</time>
      </trkpt>
      <trkpt lat="46.32762" lon="-0.52086">
        <ele>8.38</ele>
        <time>2025-02-16T16:22:15.182Z</time>
      </trkpt>
      <trkpt lat="46.32789" lon="-0.52062">
        <ele>8.49</ele>
        <time>2025-02-16T16:22:16.547Z</time>
      </trkpt>
      <trkpt lat="46.32816" lon="-0.52039">
        <ele>8.58</ele>
        <time>2025-02-16T16:22:17.918Z</time>
      </trkpt>
      <trkpt lat="46.32818" lon="-0.52037">
        <ele>8.66</ele>
        <time>2025-02-16T16:22:19.290Z</time>
      </trkpt>
      <trkpt lat="46.32833" lon="-0.52023">
        <ele>8.72</ele>
        <time>2025-02-16T16:22:20.666Z</time>
      </trkpt>
      <trkpt lat="46.32843" lon="-0.52016">
        <ele>8.76</ele>
        <time>2025-02-16T16:22:22.044Z</time>
      </trkpt>
      <trkpt lat="46.32847" lon="-0.52006">
        <ele>8.78</ele>
        <time>2025-02-16T16:22:23.423Z</time>
      </trkpt>
      <trkpt lat="46.32855" lon="-0.51998">
        <ele>8.82</ele>
        <time>2025-02-16T16:22:24.804Z</time>
      </trkpt>
      <trkpt lat="46.3286" lon="-0.51998">
        <ele>8.89</ele>
        <time>2025-02-16T16:22:26.186Z</time>
      </trkpt>
      <trkpt lat="46.32869" lon="-0.51995">
        <ele>8.98</ele>
        <time>2025-02-16T16:22:27.570Z</time>
      </trkpt>
      <trkpt lat="46.32894" lon="-0.51974">
        <ele>9.05</ele>
        <time>2025-02-16T16:22:28.960Z</time>
      </trkpt>
      <trkpt lat="46.3292" lon="-0.51956">
        <ele>9.19</ele>
        <time>2025-02-16T16:22:30.356Z</time>
      </trkpt>
      <trkpt lat="46.32931" lon="-0.5195">
        <ele>9.29</ele>
        <time>2025-02-16T16:22:31.754Z</time>
      </trkpt>
      <trkpt lat="46.32932" lon="-0.51947">
        <ele>9.32</ele>
        <time>2025-02-16T16:22:33.153Z</time>
      </trkpt>
      <trkpt lat="46.3296" lon="-0.51925">
        <ele>9.39</ele>
        <time>2025-02-16T16:22:34.558Z</time>
      </trkpt>
      <trkpt lat="46.32974" lon="-0.51914">
        <ele>9.41</ele>
        <time>2025-02-16T16:22:35.966Z</time>
      </trkpt>
      <trkpt lat="46.33002" lon="-0.51893">
        <ele>9.42</ele>
        <time>2025-02-16T16:22:37.380Z</time>
      </trkpt>
      <trkpt lat="46.33018" lon="-0.51881">
        <ele>9.39</ele>
        <time>2025-02-16T16:22:38.798Z</time>
      </trkpt>
      <trkpt lat="46.33041" lon="-0.51862">
        <ele>9.29</ele>
        <time>2025-02-16T16:22:40.221Z</time>
      </trkpt>
      <trkpt lat="46.33046" lon="-0.51854">
        <ele>9.2</ele>
        <time>2025-02-16T16:22:41.646Z</time>
      </trkpt>
      <trkpt lat="46.33059" lon="-0.5182">
        <ele>9.03</ele>
        <time>2025-02-16T16:22:43.076Z</time>
      </trkpt>
      <trkpt lat="46.33075" lon="-0.51781">
        <ele>9.03</ele>
        <time>2025-02-16T16:22:44.513Z</time>
      </trkpt>
      <trkpt lat="46.33081" lon="-0.51768">
        <ele>8.96</ele>
        <time>2025-02-16T16:22:45.952Z</time>
      </trkpt>
      <trkpt lat="46.33096" lon="-0.51728">
        <ele>8.82</ele>
        <time>2025-02-16T16:22:47.397Z</time>
      </trkpt>
      <trkpt lat="46.33107" lon="-0.517">
        <ele>8.8</ele>
        <time>2025-02-16T16:22:48.846Z</time>
      </trkpt>
      <trkpt lat="46.33124" lon="-0.51662">
        <ele>8.92</ele>
        <time>2025-02-16T16:22:50.302Z</time>
      </trkpt>
      <trkpt lat="46.33136" lon="-0.51634">
        <ele>8.91</ele>
        <time>2025-02-16T16:22:51.762Z</time>
      </trkpt>
      <trkpt lat="46.33154" lon="-0.51597">
        <ele>8.96</ele>
        <time>2025-02-16T16:22:53.229Z</time>
      </trkpt>
      <trkpt lat="46.33172" lon="-0.51559">
        <ele>8.95</ele>
        <time>2025-02-16T16:22:54.702Z</time>
      </trkpt>
      <trkpt lat="46.33189" lon="-0.51521">
        <ele>8.85</ele>
        <time>2025-02-16T16:22:56.181Z</time>
      </trkpt>
      <trkpt lat="46.33197" lon="-0.51505">
        <ele>8.79</ele>
        <time>2025-02-16T16:22:57.663Z</time>
      </trkpt>
      <trkpt lat="46.33214" lon="-0.51467">
        <ele>8.82</ele>
        <time>2025-02-16T16:22:59.151Z</time>
      </trkpt>
      <trkpt lat="46.33231" lon="-0.51428">
        <ele>8.75</ele>
        <time>2025-02-16T16:23:00.646Z</time>
      </trkpt>
      <trkpt lat="46.33233" lon="-0.51423">
        <ele>8.72</ele>
        <time>2025-02-16T16:23:02.141Z</time>
      </trkpt>
      <trkpt lat="46.33255" lon="-0.5139">
        <ele>8.7</ele>
        <time>2025-02-16T16:23:03.643Z</time>
      </trkpt>
      <trkpt lat="46.3326" lon="-0.51382">
        <ele>8.7</ele>
        <time>2025-02-16T16:23:05.146Z</time>
      </trkpt>
      <trkpt lat="46.33278" lon="-0.51345">
        <ele>8.76</ele>
        <time>2025-02-16T16:23:06.656Z</time>
      </trkpt>
      <trkpt lat="46.33291" lon="-0.5132">
        <ele>8.72</ele>
        <time>2025-02-16T16:23:08.170Z</time>
      </trkpt>
      <trkpt lat="46.33308" lon="-0.51284">
        <ele>8.55</ele>
        <time>2025-02-16T16:23:09.690Z</time>
      </trkpt>
      <trkpt lat="46.33317" lon="-0.51261">
        <ele>8.42</ele>
        <time>2025-02-16T16:23:11.214Z</time>
      </trkpt>
      <trkpt lat="46.3333" lon="-0.51229">
        <ele>8.33</ele>
        <time>2025-02-16T16:23:12.743Z</time>
      </trkpt>
      <trkpt lat="46.33338" lon="-0.51207">
        <ele>8.43</ele>
        <time>2025-02-16T16:23:14.275Z</time>
      </trkpt>
      <trkpt lat="46.33358" lon="-0.51171">
        <ele>8.59</ele>
        <time>2025-02-16T16:23:15.813Z</time>
      </trkpt>
      <trkpt lat="46.33365" lon="-0.51158">
        <ele>8.72</ele>
        <time>2025-02-16T16:23:17.354Z</time>
      </trkpt>
      <trkpt lat="46.3337" lon="-0.51142">
        <ele>8.9</ele>
        <time>2025-02-16T16:23:18.897Z</time>
      </trkpt>
      <trkpt lat="46.33371" lon="-0.51116">
        <ele>9.09</ele>
        <time>2025-02-16T16:23:20.444Z</time>
      </trkpt>
      <trkpt lat="46.33371" lon="-0.51071">
        <ele>9.3</ele>
        <time>2025-02-16T16:23:21.997Z</time>
      </trkpt>
      <trkpt lat="46.33371" lon="-0.51025">
        <ele>9.53</ele>
        <time>2025-02-16T16:23:23.556Z</time>
      </trkpt>
      <trkpt lat="46.33371" lon="-0.51012">
        <ele>9.81</ele>
        <time>2025-02-16T16:23:25.117Z</time>
      </trkpt>
      <trkpt lat="46.33369" lon="-0.50982">
        <ele>10.18</ele>
        <time>2025-02-16T16:23:26.682Z</time>
      </trkpt>
      <trkpt lat="46.33363" lon="-0.50971">
        <ele>10.55</ele>
        <time>2025-02-16T16:23:28.249Z</time>
      </trkpt>
      <trkpt lat="46.33359" lon="-0.5096">
        <ele>10.85</ele>
        <time>2025-02-16T16:23:29.818Z</time>
      </trkpt>
      <trkpt lat="46.33339" lon="-0.50925">
        <ele>11.26</ele>
        <time>2025-02-16T16:23:31.393Z</time>
      </trkpt>
      <trkpt lat="46.33338" lon="-0.50924">
        <ele>11.46</ele>
        <time>2025-02-16T16:23:32.969Z</time>
      </trkpt>
      <trkpt lat="46.33324" lon="-0.50905">
        <ele>11.66</ele>
        <time>2025-02-16T16:23:34.548Z</time>
      </trkpt>
      <trkpt lat="46.33298" lon="-0.5088">
        <ele>11.87</ele>
        <time>2025-02-16T16:23:36.134Z</time>
      </trkpt>
      <trkpt lat="46.33294" lon="-0.50876">
        <ele>11.94</ele>
        <time>2025-02-16T16:23:37.721Z</time>
      </trkpt>
      <trkpt lat="46.33266" lon="-0.50855">
        <ele>11.85</ele>
        <time>2025-02-16T16:23:39.314Z</time>
      </trkpt>
      <trkpt lat="46.33263" lon="-0.50853">
        <ele>11.85</ele>
        <time>2025-02-16T16:23:40.908Z</time>
      </trkpt>
      <trkpt lat="46.33254" lon="-0.50842">
        <ele>11.79</ele>
        <time>2025-02-16T16:23:42.504Z</time>
      </trkpt>
      <trkpt lat="46.33248" lon="-0.50826">
        <ele>11.72</ele>
        <time>2025-02-16T16:23:44.103Z</time>
      </trkpt>
      <trkpt lat="46.33247" lon="-0.50804">
        <ele>11.62</ele>
        <time>2025-02-16T16:23:45.705Z</time>
      </trkpt>
      <trkpt lat="46.33251" lon="-0.50784">
        <ele>11.57</ele>
        <time>2025-02-16T16:23:47.309Z</time>
      </trkpt>
      <trkpt lat="46.33252" lon="-0.50739">
        <ele>11.46</ele>
        <time>2025-02-16T16:23:48.920Z</time>
      </trkpt>
      <trkpt lat="46.33252" lon="-0.50736">
        <ele>11.38</ele>
        <time>2025-02-16T16:23:50.531Z</time>
      </trkpt>
      <trkpt lat="46.33253" lon="-0.5071">
        <ele>11.25</ele>
        <time>2025-02-16T16:23:52.146Z</time>
      </trkpt>
      <trkpt lat="46.33267" lon="-0.50712">
        <ele>11.21</ele>
        <time>2025-02-16T16:23:53.764Z</time>
      </trkpt>
      <trkpt lat="46.33268" lon="-0.50712">
        <ele>11.15</ele>
        <time>2025-02-16T16:23:55.382Z</time>
      </trkpt>
      <trkpt lat="46.33285" lon="-0.50714">
        <ele>11.14</ele>
        <time>2025-02-16T16:23:57.003Z</time>
      </trkpt>
      <trkpt lat="46.33303" lon="-0.50719">
        <ele>11.15</ele>
        <time>2025-02-16T16:23:58.628Z</time>
      </trkpt>
      <trkpt lat="46.33334" lon="-0.50713">
        <ele>11.14</ele>
        <time>2025-02-16T16:24:00.259Z</time>
      </trkpt>
      <trkpt lat="46.33345" lon="-0.50711">
        <ele>11.15</ele>
        <time>2025-02-16T16:24:01.892Z</time>
      </trkpt>
      <trkpt lat="46.33355" lon="-0.50703">
        <ele>11.17</ele>
        <time>2025-02-16T16:24:03.528Z</time>
      </trkpt>
      <trkpt lat="46.33352" lon="-0.50658">
        <ele>11.23</ele>
        <time>2025-02-16T16:24:05.170Z</time>
      </trkpt>
      <trkpt lat="46.3335" lon="-0.50636">
        <ele>11.32</ele>
        <time>2025-02-16T16:24:06.815Z</time>
      </trkpt>
      <trkpt lat="46.33347" lon="-0.50591">
        <ele>11.44</ele>
        <time>2025-02-16T16:24:08.466Z</time>
      </trkpt>
      <trkpt lat="46.33346" lon="-0.50584">
        <ele>11.61</ele>
        <time>2025-02-16T16:24:10.118Z</time>
      </trkpt>
      <trkpt lat="46.3337" lon="-0.50576">
        <ele>11.82</ele>
        <time>2025-02-16T16:24:11.775Z</time>
      </trkpt>
      <trkpt lat="46.33401" lon="-0.50571">
        <ele>12.12</ele>
        <time>2025-02-16T16:24:13.438Z</time>
      </trkpt>
      <trkpt lat="46.33403" lon="-0.50571">
        <ele>12.39</ele>
        <time>2025-02-16T16:24:15.102Z</time>
      </trkpt>
      <trkpt lat="46.3342" lon="-0.50572">
        <ele>12.77</ele>
        <time>2025-02-16T16:24:16.769Z</time>
      </trkpt>
      <trkpt lat="46.33433" lon="-0.50575">
        <ele>13.15</ele>
        <time>2025-02-16T16:24:18.439Z</time>
      </trkpt>
      <trkpt lat="46.33444" lon="-0.50582">
        <ele>13.56</ele>
        <time>2025-02-16T16:24:20.111Z</time>
      </trkpt>
      <trkpt lat="46.33468" lon="-0.50604">
        <ele>14.1</ele>
        <time>2025-02-16T16:24:21.789Z</time>
      </trkpt>
      <trkpt lat="46.33492" lon="-0.50634">
        <ele>14.53</ele>
        <time>2025-02-16T16:24:23.473Z</time>
      </trkpt>
      <trkpt lat="46.33507" lon="-0.50652">
        <ele>15.01</ele>
        <time>2025-02-16T16:24:25.161Z</time>
      </trkpt>
      <trkpt lat="46.3352" lon="-0.50666">
        <ele>15.53</ele>
        <time>2025-02-16T16:24:26.852Z</time>
      </trkpt>
      <trkpt lat="46.33547" lon="-0.50682">
        <ele>16.1</ele>
        <time>2025-02-16T16:24:28.549Z</time>
      </trkpt>
      <trkpt lat="46.33571" lon="-0.5069">
        <ele>16.71</ele>
        <time>2025-02-16T16:24:30.251Z</time>
      </trkpt>
      <trkpt lat="46.33583" lon="-0.50689">
        <ele>17.44</ele>
        <time>2025-02-16T16:24:31.956Z</time>
      </trkpt>
      <trkpt lat="46.33612" lon="-0.50684">
        <ele>18.29</ele>
        <time>2025-02-16T16:24:33.666Z</time>
      </trkpt>
      <trkpt lat="46.33614" lon="-0.50665">
        <ele>19.14</ele>
        <time>2025-02-16T16:24:35.379Z</time>
      </trkpt>
      <trkpt lat="46.33618" lon="-0.50633">
        <ele>20.12</ele>
        <time>2025-02-16T16:24:37.097Z</time>
      </trkpt>
      <trkpt lat="46.33623" lon="-0.50608">
        <ele>21.09</ele>
        <time>2025-02-16T16:24:38.818Z</time>
      </trkpt>
      <trkpt lat="46.33631" lon="-0.50584">
        <ele>22.15</ele>
        <time>2025-02-16T16:24:40.543Z</time>
      </trkpt>
      <trkpt lat="46.33647" lon="-0.50551">
        <ele>23.26</ele>
        <time>2025-02-16T16:24:42.273Z</time>
      </trkpt>
      <trkpt lat="46.33671" lon="-0.50521">
        <ele>24.33</ele>
        <time>2025-02-16T16:24:44.010Z</time>
      </trkpt>
      <trkpt lat="46.33671" lon="-0.50521">
        <ele>25.21</ele>
        <time>2025-02-16T16:24:45.747Z</time>
      </trkpt>
      <trkpt lat="46.33684" lon="-0.50506">
        <ele>26.09</ele>
        <time>2025-02-16T16:24:47.487Z</time>
      </trkpt>
      <trkpt lat="46.33692" lon="-0.50491">
        <ele>26.95</ele>
        <time>2025-02-16T16:24:49.230Z</time>
      </trkpt>
      <trkpt lat="46.33694" lon="-0.50472">
        <ele>27.77</ele>
        <time>2025-02-16T16:24:50.975Z</time>
      </trkpt>
      <trkpt lat="46.33692" lon="-0.50458">
        <ele>28.52</ele>
        <time>2025-02-16T16:24:52.722Z</time>
      </trkpt>
      <trkpt lat="46.33683" lon="-0.50445">
        <ele>29.21</ele>
        <time>2025-02-16T16:24:54.472Z</time>
      </trkpt>
      <trkpt lat="46.33656" lon="-0.50422">
        <ele>29.86</ele>
        <time>2025-02-16T16:24:56.228Z</time>
      </trkpt>
      <trkpt lat="46.33652" lon="-0.50419">
        <ele>30.47</ele>
        <time>2025-02-16T16:24:57.985Z</time>
      </trkpt>
      <trkpt lat="46.33624" lon="-0.50399">
        <ele>31.1</ele>
        <time>2025-02-16T16:24:59.748Z</time>
      </trkpt>
      <trkpt lat="46.33596" lon="-0.50378">
        <ele>31.65</ele>
        <time>2025-02-16T16:25:01.518Z</time>
      </trkpt>
      <trkpt lat="46.33589" lon="-0.50373">
        <ele>32.11</ele>
        <time>2025-02-16T16:25:03.289Z</time>
      </trkpt>
      <trkpt lat="46.33576" lon="-0.50368">
        <ele>32.53</ele>
        <time>2025-02-16T16:25:05.063Z</time>
      </trkpt>
      <trkpt lat="46.33545" lon="-0.50365">
        <ele>32.84</ele>
        <time>2025-02-16T16:25:06.843Z</time>
      </trkpt>
      <trkpt lat="46.33536" lon="-0.50364">
        <ele>33.15</ele>
        <time>2025-02-16T16:25:08.625Z</time>
      </trkpt>
      <trkpt lat="46.33511" lon="-0.50355">
        <ele>33.37</ele>
        <time>2025-02-16T16:25:10.412Z</time>
      </trkpt>
      <trkpt lat="46.33494" lon="-0.50335">
        <ele>33.61</ele>
        <time>2025-02-16T16:25:12.203Z</time>
      </trkpt>
      <trkpt lat="46.3349" lon="-0.5033">
        <ele>33.85</ele>
        <time>2025-02-16T16:25:13.996Z</time>
      </trkpt>
      <trkpt lat="46.33493" lon="-0.50316">
        <ele>34.08</ele>
        <time>2025-02-16T16:25:15.791Z</time>
      </trkpt>
      <trkpt lat="46.33496" lon="-0.50306">
        <ele>34.28</ele>
        <time>2025-02-16T16:25:17.587Z</time>
      </trkpt>
      <trkpt lat="46.3351" lon="-0.50265">
        <ele>34.59</ele>
        <time>2025-02-16T16:25:19.389Z</time>
      </trkpt>
      <trkpt lat="46.33511" lon="-0.50263">
        <ele>34.71</ele>
        <time>2025-02-16T16:25:21.192Z</time>
      </trkpt>
      <trkpt lat="46.33526" lon="-0.50223">
        <ele>34.89</ele>
        <time>2025-02-16T16:25:23.001Z</time>
      </trkpt>
      <trkpt lat="46.33533" lon="-0.50206">
        <ele>34.94</ele>
        <time>2025-02-16T16:25:24.813Z</time>
      </trkpt>
      <trkpt lat="46.33537" lon="-0.50193">
        <ele>34.95</ele>
        <time>2025-02-16T16:25:26.627Z</time>
      </trkpt>
      <trkpt lat="46.33539" lon="-0.50195">
        <ele>34.9</ele>
        <time>2025-02-16T16:25:28.441Z</time>
      </trkpt>
      <trkpt lat="46.3354" lon="-0.502">
        <ele>34.8</ele>
        <time>2025-02-16T16:25:30.256Z</time>
      </trkpt>
      <trkpt lat="46.33539" lon="-0.50214">
        <ele>34.66</ele>
        <time>2025-02-16T16:25:32.073Z</time>
      </trkpt>
      <trkpt lat="46.33532" lon="-0.50233">
        <ele>34.47</ele>
        <time>2025-02-16T16:25:33.893Z</time>
      </trkpt>
      <trkpt lat="46.33525" lon="-0.50258">
        <ele>34.21</ele>
        <time>2025-02-16T16:25:35.717Z</time>
      </trkpt>
      <trkpt lat="46.33528" lon="-0.50269">
        <ele>33.93</ele>
        <time>2025-02-16T16:25:37.542Z</time>
      </trkpt>
      <trkpt lat="46.33555" lon="-0.50294">
        <ele>33.63</ele>
        <time>2025-02-16T16:25:39.374Z</time>
      </trkpt>
      <trkpt lat="46.33555" lon="-0.50294">
        <ele>33.36</ele>
        <time>2025-02-16T16:25:41.206Z</time>
      </trkpt>
      <trkpt lat="46.33579" lon="-0.50314">
        <ele>33.07</ele>
        <time>2025-02-16T16:25:43.043Z</time>
      </trkpt>
      <trkpt lat="46.33607" lon="-0.50336">
        <ele>32.7</ele>
        <time>2025-02-16T16:25:44.887Z</time>
      </trkpt>
      <trkpt lat="46.33634" lon="-0.50358">
        <ele>32.38</ele>
        <time>2025-02-16T16:25:46.737Z</time>
      </trkpt>
      <trkpt lat="46.33662" lon="-0.5038">
        <ele>31.99</ele>
        <time>2025-02-16T16:25:48.593Z</time>
      </trkpt>
      <trkpt lat="46.33689" lon="-0.50402">
        <ele>31.64</ele>
        <time>2025-02-16T16:25:50.455Z</time>
      </trkpt>
      <trkpt lat="46.33717" lon="-0.50424">
        <ele>31.35</ele>
        <time>2025-02-16T16:25:52.324Z</time>
      </trkpt>
      <trkpt lat="46.33744" lon="-0.50446">
        <ele>30.94</ele>
        <time>2025-02-16T16:25:54.199Z</time>
      </trkpt>
      <trkpt lat="46.33772" lon="-0.50469">
        <ele>30.52</ele>
        <time>2025-02-16T16:25:56.080Z</time>
      </trkpt>
      <trkpt lat="46.33791" lon="-0.50484">
        <ele>30.14</ele>
        <time>2025-02-16T16:25:57.966Z</time>
      </trkpt>
      <trkpt lat="46.33819" lon="-0.50506">
        <ele>29.83</ele>
        <time>2025-02-16T16:25:59.858Z</time>
      </trkpt>
      <trkpt lat="46.33846" lon="-0.50527">
        <ele>29.5</ele>
        <time>2025-02-16T16:26:01.756Z</time>
      </trkpt>
      <trkpt lat="46.3386" lon="-0.50538">
        <ele>29.12</ele>
        <time>2025-02-16T16:26:03.657Z</time>
      </trkpt>
      <trkpt lat="46.33887" lon="-0.50561">
        <ele>28.7</ele>
        <time>2025-02-16T16:26:05.565Z</time>
      </trkpt>
      <trkpt lat="46.33914" lon="-0.50584">
        <ele>28.3</ele>
        <time>2025-02-16T16:26:07.479Z</time>
      </trkpt>
      <trkpt lat="46.3392" lon="-0.50589">
        <ele>27.95</ele>
        <time>2025-02-16T16:26:09.394Z</time>
      </trkpt>
      <trkpt lat="46.33946" lon="-0.50614">
        <ele>27.63</ele>
        <time>2025-02-16T16:26:11.316Z</time>
      </trkpt>
      <trkpt lat="46.33959" lon="-0.50626">
        <ele>27.28</ele>
        <time>2025-02-16T16:26:13.241Z</time>
      </trkpt>
      <trkpt lat="46.33985" lon="-0.50653">
        <ele>26.93</ele>
        <time>2025-02-16T16:26:15.172Z</time>
      </trkpt>
      <trkpt lat="46.3401" lon="-0.5068">
        <ele>26.6</ele>
        <time>2025-02-16T16:26:17.109Z</time>
      </trkpt>
      <trkpt lat="46.34035" lon="-0.50706">
        <ele>26.22</ele>
        <time>2025-02-16T16:26:19.053Z</time>
      </trkpt>
      <trkpt lat="46.34039" lon="-0.5071">
        <ele>25.88</ele>
        <time>2025-02-16T16:26:20.998Z</time>
      </trkpt>
      <trkpt lat="46.34065" lon="-0.50737">
        <ele>25.55</ele>
        <time>2025-02-16T16:26:22.949Z</time>
      </trkpt>
      <trkpt lat="46.3409" lon="-0.50763">
        <ele>25.18</ele>
        <time>2025-02-16T16:26:24.906Z</time>
      </trkpt>
      <trkpt lat="46.34093" lon="-0.50766">
        <ele>24.88</ele>
        <time>2025-02-16T16:26:26.864Z</time>
      </trkpt>
      <trkpt lat="46.34119" lon="-0.50793">
        <ele>24.58</ele>
        <time>2025-02-16T16:26:28.828Z</time>
      </trkpt>
      <trkpt lat="46.34123" lon="-0.50797">
        <ele>24.32</ele>
        <time>2025-02-16T16:26:30.793Z</time>
      </trkpt>
      <trkpt lat="46.34142" lon="-0.50812">
        <ele>24.02</ele>
        <time>2025-02-16T16:26:32.763Z</time>
      </trkpt>
      <trkpt lat="46.34156" lon="-0.50819">
        <ele>23.79</ele>
        <time>2025-02-16T16:26:34.736Z</time>
      </trkpt>
      <trkpt lat="46.3417" lon="-0.50818">
        <ele>23.63</ele>
        <time>2025-02-16T16:26:36.711Z</time>
      </trkpt>
      <trkpt lat="46.34178" lon="-0.50816">
        <ele>23.57</ele>
        <time>2025-02-16T16:26:38.688Z</time>
      </trkpt>
      <trkpt lat="46.34208" lon="-0.50802">
        <ele>23.63</ele>
        <time>2025-02-16T16:26:40.671Z</time>
      </trkpt>
      <trkpt lat="46.34208" lon="-0.50802">
        <ele>23.72</ele>
        <time>2025-02-16T16:26:42.654Z</time>
      </trkpt>
      <trkpt lat="46.34218" lon="-0.50797">
        <ele>23.9</ele>
        <time>2025-02-16T16:26:44.639Z</time>
      </trkpt>
      <trkpt lat="46.3423" lon="-0.5078">
        <ele>24.2</ele>
        <time>2025-02-16T16:26:46.628Z</time>
      </trkpt>
      <trkpt lat="46.34236" lon="-0.50778">
        <ele>24.51</ele>
        <time>2025-02-16T16:26:48.618Z</time>
      </trkpt>
      <trkpt lat="46.3424" lon="-0.50783">
        <ele>24.85</ele>
        <time>2025-02-16T16:26:50.609Z</time>
      </trkpt>
      <trkpt lat="46.34245" lon="-0.50813">
        <ele>25.25</ele>
        <time>2025-02-16T16:26:52.604Z</time>
      </trkpt>
      <trkpt lat="46.34252" lon="-0.50857">
        <ele>25.83</ele>
        <time>2025-02-16T16:26:54.606Z</time>
      </trkpt>
      <trkpt lat="46.34254" lon="-0.50868">
        <ele>26.43</ele>
        <time>2025-02-16T16:26:56.609Z</time>
      </trkpt>
      <trkpt lat="46.34262" lon="-0.5091">
        <ele>27.18</ele>
        <time>2025-02-16T16:26:58.618Z</time>
      </trkpt>
      <trkpt lat="46.34267" lon="-0.50918">
        <ele>27.87</ele>
        <time>2025-02-16T16:27:00.629Z</time>
      </trkpt>
      <trkpt lat="46.34293" lon="-0.50944">
        <ele>28.76</ele>
        <time>2025-02-16T16:27:02.646Z</time>
      </trkpt>
      <trkpt lat="46.34319" lon="-0.50969">
        <ele>29.55</ele>
        <time>2025-02-16T16:27:04.669Z</time>
      </trkpt>
      <trkpt lat="46.34345" lon="-0.50995">
        <ele>30.36</ele>
        <time>2025-02-16T16:27:06.699Z</time>
      </trkpt>
      <trkpt lat="46.34371" lon="-0.51021">
        <ele>31.15</ele>
        <time>2025-02-16T16:27:08.735Z</time>
      </trkpt>
      <trkpt lat="46.34397" lon="-0.51046">
        <ele>31.94</ele>
        <time>2025-02-16T16:27:10.777Z</time>
      </trkpt>
      <trkpt lat="46.34405" lon="-0.51054">
        <ele>32.75</ele>
        <time>2025-02-16T16:27:12.821Z</time>
      </trkpt>
      <trkpt lat="46.34431" lon="-0.5108">
        <ele>33.68</ele>
        <time>2025-02-16T16:27:14.871Z</time>
      </trkpt>
      <trkpt lat="46.34435" lon="-0.51084">
        <ele>34.52</ele>
        <time>2025-02-16T16:27:16.922Z</time>
      </trkpt>
      <trkpt lat="46.34444" lon="-0.5109">
        <ele>35.41</ele>
        <time>2025-02-16T16:27:18.975Z</time>
      </trkpt>
      <trkpt lat="46.34459" lon="-0.51092">
        <ele>36.35</ele>
        <time>2025-02-16T16:27:21.031Z</time>
      </trkpt>
      <trkpt lat="46.3447" lon="-0.51097">
        <ele>37.22</ele>
        <time>2025-02-16T16:27:23.090Z</time>
      </trkpt>
      <trkpt lat="46.34474" lon="-0.51102">
        <ele>38</ele>
        <time>2025-02-16T16:27:25.150Z</time>
      </trkpt>
      <trkpt lat="46.3448" lon="-0.51099">
        <ele>38.76</ele>
        <time>2025-02-16T16:27:27.211Z</time>
      </trkpt>
      <trkpt lat="46.34492" lon="-0.51097">
        <ele>39.52</ele>
        <time>2025-02-16T16:27:29.274Z</time>
      </trkpt>
      <trkpt lat="46.34508" lon="-0.51097">
        <ele>40.21</ele>
        <time>2025-02-16T16:27:31.341Z</time>
      </trkpt>
      <trkpt lat="46.34536" lon="-0.51111">
        <ele>40.87</ele>
        <time>2025-02-16T16:27:33.414Z</time>
      </trkpt>
      <trkpt lat="46.34549" lon="-0.51118">
        <ele>41.47</ele>
        <time>2025-02-16T16:27:35.489Z</time>
      </trkpt>
      <trkpt lat="46.34558" lon="-0.5112">
        <ele>42</ele>
        <time>2025-02-16T16:27:37.566Z</time>
      </trkpt>
      <trkpt lat="46.3458" lon="-0.51119">
        <ele>42.45</ele>
        <time>2025-02-16T16:27:39.648Z</time>
      </trkpt>
      <trkpt lat="46.34594" lon="-0.51113">
        <ele>42.92</ele>
        <time>2025-02-16T16:27:41.732Z</time>
      </trkpt>
      <trkpt lat="46.34607" lon="-0.51103">
        <ele>43.34</ele>
        <time>2025-02-16T16:27:43.819Z</time>
      </trkpt>
      <trkpt lat="46.34634" lon="-0.5108">
        <ele>43.85</ele>
        <time>2025-02-16T16:27:45.913Z</time>
      </trkpt>
      <trkpt lat="46.34639" lon="-0.51076">
        <ele>44.15</ele>
        <time>2025-02-16T16:27:48.008Z</time>
      </trkpt>
      <trkpt lat="46.34661" lon="-0.5106">
        <ele>44.45</ele>
        <time>2025-02-16T16:27:50.108Z</time>
      </trkpt>
      <trkpt lat="46.3469" lon="-0.51041">
        <ele>44.6</ele>
        <time>2025-02-16T16:27:52.214Z</time>
      </trkpt>
      <trkpt lat="46.34705" lon="-0.51031">
        <ele>44.7</ele>
        <time>2025-02-16T16:27:54.323Z</time>
      </trkpt>
      <trkpt lat="46.34731" lon="-0.51005">
        <ele>44.71</ele>
        <time>2025-02-16T16:27:56.439Z</time>
      </trkpt>
      <trkpt lat="46.34735" lon="-0.51001">
        <ele>44.65</ele>
        <time>2025-02-16T16:27:58.556Z</time>
      </trkpt>
      <trkpt lat="46.34748" lon="-0.50984">
        <ele>44.55</ele>
        <time>2025-02-16T16:28:00.676Z</time>
      </trkpt>
      <trkpt lat="46.3476" lon="-0.50965">
        <ele>44.42</ele>
        <time>2025-02-16T16:28:02.800Z</time>
      </trkpt>
      <trkpt lat="46.34781" lon="-0.50931">
        <ele>44.24</ele>
        <time>2025-02-16T16:28:04.930Z</time>
      </trkpt>
      <trkpt lat="46.34784" lon="-0.50926">
        <ele>43.95</ele>
        <time>2025-02-16T16:28:07.061Z</time>
      </trkpt>
      <trkpt lat="46.34802" lon="-0.50889">
        <ele>43.65</ele>
        <time>2025-02-16T16:28:09.198Z</time>
      </trkpt>
      <trkpt lat="46.34802" lon="-0.50888">
        <ele>43.27</ele>
        <time>2025-02-16T16:28:11.335Z</time>
      </trkpt>
      <trkpt lat="46.34817" lon="-0.50852">
        <ele>42.84</ele>
        <time>2025-02-16T16:28:13.478Z</time>
      </trkpt>
      <trkpt lat="46.34827" lon="-0.50836">
        <ele>42.37</ele>
        <time>2025-02-16T16:28:15.624Z</time>
      </trkpt>
      <trkpt lat="46.34848" lon="-0.5081">
        <ele>41.85</ele>
        <time>2025-02-16T16:28:17.776Z</time>
      </trkpt>
      <trkpt lat="46.34872" lon="-0.50781">
        <ele>41.25</ele>
        <time>2025-02-16T16:28:19.934Z</time>
      </trkpt>
      <trkpt lat="46.34876" lon="-0.50777">
        <ele>40.9</ele>
        <time>2025-02-16T16:28:22.093Z</time>
      </trkpt>
      <trkpt lat="46.34901" lon="-0.50749">
        <ele>40.52</ele>
        <time>2025-02-16T16:28:24.258Z</time>
      </trkpt>
      <trkpt lat="46.34925" lon="-0.5072">
        <ele>40.18</ele>
        <time>2025-02-16T16:28:26.430Z</time>
      </trkpt>
      <trkpt lat="46.3495" lon="-0.50692">
        <ele>40.04</ele>
        <time>2025-02-16T16:28:28.608Z</time>
      </trkpt>
      <trkpt lat="46.34954" lon="-0.50687">
        <ele>40.1</ele>
        <time>2025-02-16T16:28:30.787Z</time>
      </trkpt>
      <trkpt lat="46.34979" lon="-0.50659">
        <ele>40.3</ele>
        <time>2025-02-16T16:28:32.972Z</time>
      </trkpt>
      <trkpt lat="46.34981" lon="-0.50656">
        <ele>40.59</ele>
        <time>2025-02-16T16:28:35.158Z</time>
      </trkpt>
      <trkpt lat="46.35002" lon="-0.50627">
        <ele>41.01</ele>
        <time>2025-02-16T16:28:37.350Z</time>
      </trkpt>
      <trkpt lat="46.35014" lon="-0.5061">
        <ele>41.57</ele>
        <time>2025-02-16T16:28:39.545Z</time>
      </trkpt>
      <trkpt lat="46.35035" lon="-0.50576">
        <ele>42.41</ele>
        <time>2025-02-16T16:28:41.746Z</time>
      </trkpt>
      <trkpt lat="46.35053" lon="-0.50548">
        <ele>43.38</ele>
        <time>2025-02-16T16:28:43.953Z</time>
      </trkpt>
      <trkpt lat="46.35073" lon="-0.50513">
        <ele>44.51</ele>
        <time>2025-02-16T16:28:46.166Z</time>
      </trkpt>
      <trkpt lat="46.35082" lon="-0.50496">
        <ele>45.56</ele>
        <time>2025-02-16T16:28:48.382Z</time>
      </trkpt>
      <trkpt lat="46.35094" lon="-0.50467">
        <ele>46.69</ele>
        <time>2025-02-16T16:28:50.603Z</time>
      </trkpt>
      <trkpt lat="46.3511" lon="-0.50427">
        <ele>47.9</ele>
        <time>2025-02-16T16:28:52.830Z</time>
      </trkpt>
      <trkpt lat="46.3511" lon="-0.50426">
        <ele>49</ele>
        <time>2025-02-16T16:28:55.057Z</time>
      </trkpt>
      <trkpt lat="46.35125" lon="-0.50398">
        <ele>50.16</ele>
        <time>2025-02-16T16:28:57.289Z</time>
      </trkpt>
      <trkpt lat="46.35137" lon="-0.50379">
        <ele>51.29</ele>
        <time>2025-02-16T16:28:59.525Z</time>
      </trkpt>
      <trkpt lat="46.35152" lon="-0.5036">
        <ele>52.44</ele>
        <time>2025-02-16T16:29:01.765Z</time>
      </trkpt>
      <trkpt lat="46.3518" lon="-0.50338">
        <ele>53.71</ele>
        <time>2025-02-16T16:29:04.011Z</time>
      </trkpt>
      <trkpt lat="46.35202" lon="-0.50321">
        <ele>54.94</ele>
        <time>2025-02-16T16:29:06.262Z</time>
      </trkpt>
      <trkpt lat="46.3523" lon="-0.50301">
        <ele>56.13</ele>
        <time>2025-02-16T16:29:08.519Z</time>
      </trkpt>
      <trkpt lat="46.35248" lon="-0.50289">
        <ele>57.18</ele>
        <time>2025-02-16T16:29:10.780Z</time>
      </trkpt>
      <trkpt lat="46.35277" lon="-0.5027">
        <ele>58.24</ele>
        <time>2025-02-16T16:29:13.047Z</time>
      </trkpt>
      <trkpt lat="46.35306" lon="-0.50252">
        <ele>59.23</ele>
        <time>2025-02-16T16:29:15.321Z</time>
      </trkpt>
      <trkpt lat="46.35334" lon="-0.50233">
        <ele>60.08</ele>
        <time>2025-02-16T16:29:17.601Z</time>
      </trkpt>
      <trkpt lat="46.3535" lon="-0.50223">
        <ele>60.86</ele>
        <time>2025-02-16T16:29:19.885Z</time>
      </trkpt>
      <trkpt lat="46.35363" lon="-0.50212">
        <ele>61.62</ele>
        <time>2025-02-16T16:29:22.172Z</time>
      </trkpt>
      <trkpt lat="46.35385" lon="-0.50183">
        <ele>62.38</ele>
        <time>2025-02-16T16:29:24.465Z</time>
      </trkpt>
      <trkpt lat="46.35408" lon="-0.50153">
        <ele>63.07</ele>
        <time>2025-02-16T16:29:26.764Z</time>
      </trkpt>
      <trkpt lat="46.35411" lon="-0.50149">
        <ele>63.65</ele>
        <time>2025-02-16T16:29:29.064Z</time>
      </trkpt>
      <trkpt lat="46.35436" lon="-0.50121">
        <ele>64.16</ele>
        <time>2025-02-16T16:29:31.370Z</time>
      </trkpt>
      <trkpt lat="46.35442" lon="-0.50113">
        <ele>64.58</ele>
        <time>2025-02-16T16:29:33.677Z</time>
      </trkpt>
      <trkpt lat="46.35468" lon="-0.50087">
        <ele>64.94</ele>
        <time>2025-02-16T16:29:35.991Z</time>
      </trkpt>
      <trkpt lat="46.35494" lon="-0.50062">
        <ele>65.27</ele>
        <time>2025-02-16T16:29:38.311Z</time>
      </trkpt>
      <trkpt lat="46.3552" lon="-0.50036">
        <ele>65.54</ele>
        <time>2025-02-16T16:29:40.637Z</time>
      </trkpt>
      <trkpt lat="46.35527" lon="-0.50029">
        <ele>65.69</ele>
        <time>2025-02-16T16:29:42.965Z</time>
      </trkpt>
      <trkpt lat="46.35556" lon="-0.50011">
        <ele>65.76</ele>
        <time>2025-02-16T16:29:45.299Z</time>
      </trkpt>
      <trkpt lat="46.3558" lon="-0.49995">
        <ele>65.75</ele>
        <time>2025-02-16T16:29:47.639Z</time>
      </trkpt>
      <trkpt lat="46.35586" lon="-0.49991">
        <ele>65.68</ele>
        <time>2025-02-16T16:29:49.980Z</time>
      </trkpt>
      <trkpt lat="46.35614" lon="-0.49971">
        <ele>65.51</ele>
        <time>2025-02-16T16:29:52.327Z</time>
      </trkpt>
      <trkpt lat="46.35638" lon="-0.49954">
        <ele>65.29</ele>
        <time>2025-02-16T16:29:54.680Z</time>
      </trkpt>
      <trkpt lat="46.35666" lon="-0.49932">
        <ele>65.08</ele>
        <time>2025-02-16T16:29:57.039Z</time>
      </trkpt>
      <trkpt lat="46.35692" lon="-0.49912">
        <ele>64.79</ele>
        <time>2025-02-16T16:29:59.404Z</time>
      </trkpt>
      <trkpt lat="46.35709" lon="-0.49896">
        <ele>64.44</ele>
        <time>2025-02-16T16:30:01.773Z</time>
      </trkpt>
      <trkpt lat="46.35732" lon="-0.49865">
        <ele>64.03</ele>
        <time>2025-02-16T16:30:04.148Z</time>
      </trkpt>
      <trkpt lat="46.35734" lon="-0.49863">
        <ele>63.59</ele>
        <time>2025-02-16T16:30:06.524Z</time>
      </trkpt>
      <trkpt lat="46.35747" lon="-0.49845">
        <ele>63.07</ele>
        <time>2025-02-16T16:30:08.903Z</time>
      </trkpt>
      <trkpt lat="46.3577" lon="-0.49815">
        <ele>62.57</ele>
        <time>2025-02-16T16:30:11.289Z</time>
      </trkpt>
      <trkpt lat="46.35787" lon="-0.49793">
        <ele>62.05</ele>
        <time>2025-02-16T16:30:13.679Z</time>
      </trkpt>
      <trkpt lat="46.35766" lon="-0.49759">
        <ele>61.36</ele>
        <time>2025-02-16T16:30:16.075Z</time>
      </trkpt>
      <trkpt lat="46.35755" lon="-0.49742">
        <ele>60.73</ele>
        <time>2025-02-16T16:30:18.475Z</time>
      </trkpt>
      <trkpt lat="46.35743" lon="-0.49723">
        <ele>60.15</ele>
        <time>2025-02-16T16:30:20.878Z</time>
      </trkpt>
      <trkpt lat="46.3573" lon="-0.49704">
        <ele>59.53</ele>
        <time>2025-02-16T16:30:23.285Z</time>
      </trkpt>
      <trkpt lat="46.35709" lon="-0.49671">
        <ele>58.87</ele>
        <time>2025-02-16T16:30:25.698Z</time>
      </trkpt>
      <trkpt lat="46.35698" lon="-0.49654">
        <ele>58.23</ele>
        <time>2025-02-16T16:30:28.114Z</time>
      </trkpt>
      <trkpt lat="46.35677" lon="-0.4962">
        <ele>57.56</ele>
        <time>2025-02-16T16:30:30.537Z</time>
      </trkpt>
      <trkpt lat="46.35656" lon="-0.49587">
        <ele>56.81</ele>
        <time>2025-02-16T16:30:32.966Z</time>
      </trkpt>
      <trkpt lat="46.35634" lon="-0.49553">
        <ele>56.2</ele>
        <time>2025-02-16T16:30:35.401Z</time>
      </trkpt>
      <trkpt lat="46.35613" lon="-0.4952">
        <ele>55.67</ele>
        <time>2025-02-16T16:30:37.843Z</time>
      </trkpt>
      <trkpt lat="46.35592" lon="-0.49486">
        <ele>55.17</ele>
        <time>2025-02-16T16:30:40.291Z</time>
      </trkpt>
      <trkpt lat="46.35584" lon="-0.49474">
        <ele>54.73</ele>
        <time>2025-02-16T16:30:42.741Z</time>
      </trkpt>
      <trkpt lat="46.35576" lon="-0.49462">
        <ele>54.4</ele>
        <time>2025-02-16T16:30:45.193Z</time>
      </trkpt>
      <trkpt lat="46.35588" lon="-0.4942">
        <ele>54.14</ele>
        <time>2025-02-16T16:30:47.652Z</time>
      </trkpt>
      <trkpt lat="46.3559" lon="-0.49412">
        <ele>54.01</ele>
        <time>2025-02-16T16:30:50.112Z</time>
      </trkpt>
      <trkpt lat="46.35595" lon="-0.49387">
        <ele>53.98</ele>
        <time>2025-02-16T16:30:52.576Z</time>
      </trkpt>
      <trkpt lat="46.35601" lon="-0.49358">
        <ele>54</ele>
        <time>2025-02-16T16:30:55.044Z</time>
      </trkpt>
      <trkpt lat="46.35605" lon="-0.49324">
        <ele>54.08</ele>
        <time>2025-02-16T16:30:57.516Z</time>
      </trkpt>
      <trkpt lat="46.35605" lon="-0.49295">
        <ele>54.27</ele>
        <time>2025-02-16T16:30:59.993Z</time>
      </trkpt>
      <trkpt lat="46.35601" lon="-0.49255">
        <ele>54.59</ele>
        <time>2025-02-16T16:31:02.475Z</time>
      </trkpt>
      <trkpt lat="46.35596" lon="-0.4921">
        <ele>54.96</ele>
        <time>2025-02-16T16:31:04.963Z</time>
      </trkpt>
      <trkpt lat="46.35594" lon="-0.49194">
        <ele>55.38</ele>
        <time>2025-02-16T16:31:07.454Z</time>
      </trkpt>
      <trkpt lat="46.35591" lon="-0.49149">
        <ele>55.99</ele>
        <time>2025-02-16T16:31:09.951Z</time>
      </trkpt>
      <trkpt lat="46.35588" lon="-0.49104">
        <ele>56.6</ele>
        <time>2025-02-16T16:31:12.454Z</time>
      </trkpt>
      <trkpt lat="46.35587" lon="-0.49091">
        <ele>57.14</ele>
        <time>2025-02-16T16:31:14.959Z</time>
      </trkpt>
      <trkpt lat="46.35587" lon="-0.49046">
        <ele>57.77</ele>
        <time>2025-02-16T16:31:17.470Z</time>
      </trkpt>
      <trkpt lat="46.35587" lon="-0.4904">
        <ele>58.32</ele>
        <time>2025-02-16T16:31:19.982Z</time>
      </trkpt>
      <trkpt lat="46.35591" lon="-0.49006">
        <ele>58.92</ele>
        <time>2025-02-16T16:31:22.499Z</time>
      </trkpt>
      <trkpt lat="46.35599" lon="-0.48962">
        <ele>59.51</ele>
        <time>2025-02-16T16:31:25.022Z</time>
      </trkpt>
      <trkpt lat="46.35606" lon="-0.48919">
        <ele>59.95</ele>
        <time>2025-02-16T16:31:27.551Z</time>
      </trkpt>
      <trkpt lat="46.35614" lon="-0.48875">
        <ele>60.42</ele>
        <time>2025-02-16T16:31:30.087Z</time>
      </trkpt>
      <trkpt lat="46.35622" lon="-0.48831">
        <ele>60.89</ele>
        <time>2025-02-16T16:31:32.629Z</time>
      </trkpt>
      <trkpt lat="46.3563" lon="-0.48787">
        <ele>61.32</ele>
        <time>2025-02-16T16:31:35.177Z</time>
      </trkpt>
      <trkpt lat="46.35638" lon="-0.48743">
        <ele>61.67</ele>
        <time>2025-02-16T16:31:37.731Z</time>
      </trkpt>
      <trkpt lat="46.35643" lon="-0.48714">
        <ele>61.97</ele>
        <time>2025-02-16T16:31:40.290Z</time>
      </trkpt>
      <trkpt lat="46.35649" lon="-0.48669">
        <ele>62.25</ele>
        <time>2025-02-16T16:31:42.855Z</time>
      </trkpt>
      <trkpt lat="46.35651" lon="-0.48653">
        <ele>62.44</ele>
        <time>2025-02-16T16:31:45.422Z</time>
      </trkpt>
      <trkpt lat="46.35653" lon="-0.48608">
        <ele>62.51</ele>
        <time>2025-02-16T16:31:47.996Z</time>
      </trkpt>
      <trkpt lat="46.35653" lon="-0.48599">
        <ele>62.61</ele>
        <time>2025-02-16T16:31:50.571Z</time>
      </trkpt>
      <trkpt lat="46.35652" lon="-0.48554">
        <ele>62.64</ele>
        <time>2025-02-16T16:31:53.152Z</time>
      </trkpt>
      <trkpt lat="46.35652" lon="-0.48517">
        <ele>62.61</ele>
        <time>2025-02-16T16:31:55.738Z</time>
      </trkpt>
      <trkpt lat="46.3565" lon="-0.48472">
        <ele>62.6</ele>
        <time>2025-02-16T16:31:58.330Z</time>
      </trkpt>
      <trkpt lat="46.35647" lon="-0.48426">
        <ele>62.48</ele>
        <time>2025-02-16T16:32:00.929Z</time>
      </trkpt>
      <trkpt lat="46.35646" lon="-0.48403">
        <ele>62.39</ele>
        <time>2025-02-16T16:32:03.531Z</time>
      </trkpt>
      <trkpt lat="46.35643" lon="-0.48358">
        <ele>62.32</ele>
        <time>2025-02-16T16:32:06.139Z</time>
      </trkpt>
      <trkpt lat="46.35642" lon="-0.48332">
        <ele>62.27</ele>
        <time>2025-02-16T16:32:08.751Z</time>
      </trkpt>
      <trkpt lat="46.35638" lon="-0.483">
        <ele>62.23</ele>
        <time>2025-02-16T16:32:11.367Z</time>
      </trkpt>
      <trkpt lat="46.35629" lon="-0.48256">
        <ele>62.24</ele>
        <time>2025-02-16T16:32:13.990Z</time>
      </trkpt>
      <trkpt lat="46.35629" lon="-0.48256">
        <ele>62.21</ele>
        <time>2025-02-16T16:32:16.613Z</time>
      </trkpt>
      <trkpt lat="46.35622" lon="-0.48212">
        <ele>62.18</ele>
        <time>2025-02-16T16:32:19.242Z</time>
      </trkpt>
      <trkpt lat="46.35615" lon="-0.48167">
        <ele>62.14</ele>
        <time>2025-02-16T16:32:21.877Z</time>
      </trkpt>
      <trkpt lat="46.35612" lon="-0.48148">
        <ele>62.1</ele>
        <time>2025-02-16T16:32:24.515Z</time>
      </trkpt>
      <trkpt lat="46.35608" lon="-0.48119">
        <ele>62.08</ele>
        <time>2025-02-16T16:32:27.157Z</time>
      </trkpt>
      <trkpt lat="46.35602" lon="-0.48101">
        <ele>62.11</ele>
        <time>2025-02-16T16:32:29.802Z</time>
      </trkpt>
      <trkpt lat="46.35584" lon="-0.48064">
        <ele>62.19</ele>
        <time>2025-02-16T16:32:32.453Z</time>
      </trkpt>
      <trkpt lat="46.35571" lon="-0.48039">
        <ele>62.2</ele>
        <time>2025-02-16T16:32:35.108Z</time>
      </trkpt>
      <trkpt lat="46.35556" lon="-0.48004">
        <ele>62.2</ele>
        <time>2025-02-16T16:32:37.769Z</time>
      </trkpt>
      <trkpt lat="46.35546" lon="-0.47974">
        <ele>62.18</ele>
        <time>2025-02-16T16:32:40.435Z</time>
      </trkpt>
      <trkpt lat="46.35544" lon="-0.47969">
        <ele>62.15</ele>
        <time>2025-02-16T16:32:43.102Z</time>
      </trkpt>
      <trkpt lat="46.3555" lon="-0.47963">
        <ele>62.1</ele>
        <time>2025-02-16T16:32:45.770Z</time>
      </trkpt>
      <trkpt lat="46.35567" lon="-0.47956">
        <ele>62.03</ele>
        <time>2025-02-16T16:32:48.442Z</time>
      </trkpt>
      <trkpt lat="46.35568" lon="-0.47956">
        <ele>61.93</ele>
        <time>2025-02-16T16:32:51.114Z</time>
      </trkpt>
      <trkpt lat="46.35599" lon="-0.47948">
        <ele>61.76</ele>
        <time>2025-02-16T16:32:53.792Z</time>
      </trkpt>
      <trkpt lat="46.3563" lon="-0.4794">
        <ele>61.63</ele>
        <time>2025-02-16T16:32:56.476Z</time>
      </trkpt>
      <trkpt lat="46.35661" lon="-0.47932">
        <ele>61.49</ele>
        <time>2025-02-16T16:32:59.167Z</time>
      </trkpt>
      <trkpt lat="46.35692" lon="-0.47924">
        <ele>61.3</ele>
        <time>2025-02-16T16:33:01.864Z</time>
      </trkpt>
      <trkpt lat="46.35695" lon="-0.47923">
        <ele>61</ele>
        <time>2025-02-16T16:33:04.562Z</time>
      </trkpt>
      <trkpt lat="46.35726" lon="-0.47914">
        <ele>60.64</ele>
        <time>2025-02-16T16:33:07.266Z</time>
      </trkpt>
      <trkpt lat="46.35757" lon="-0.47905">
        <ele>60.2</ele>
        <time>2025-02-16T16:33:09.976Z</time>
      </trkpt>
      <trkpt lat="46.35788" lon="-0.47896">
        <ele>59.71</ele>
        <time>2025-02-16T16:33:12.692Z</time>
      </trkpt>
      <trkpt lat="46.358" lon="-0.47892">
        <ele>59.19</ele>
        <time>2025-02-16T16:33:15.411Z</time>
      </trkpt>
      <trkpt lat="46.35831" lon="-0.47884">
        <ele>58.53</ele>
        <time>2025-02-16T16:33:18.136Z</time>
      </trkpt>
      <trkpt lat="46.35862" lon="-0.47875">
        <ele>57.83</ele>
        <time>2025-02-16T16:33:20.868Z</time>
      </trkpt>
      <trkpt lat="46.35871" lon="-0.47873">
        <ele>57.2</ele>
        <time>2025-02-16T16:33:23.601Z</time>
      </trkpt>
      <trkpt lat="46.35901" lon="-0.47865">
        <ele>56.47</ele>
        <time>2025-02-16T16:33:26.341Z</time>
      </trkpt>
      <trkpt lat="46.35915" lon="-0.47859">
        <ele>55.76</ele>
        <time>2025-02-16T16:33:29.083Z</time>
      </trkpt>
      <trkpt lat="46.35918" lon="-0.47855">
        <ele>55.07</ele>
        <time>2025-02-16T16:33:31.826Z</time>
      </trkpt>
      <trkpt lat="46.35938" lon="-0.4782">
        <ele>54.27</ele>
        <time>2025-02-16T16:33:34.576Z</time>
      </trkpt>
      <trkpt lat="46.35941" lon="-0.47816">
        <ele>53.57</ele>
        <time>2025-02-16T16:33:37.326Z</time>
      </trkpt>
      <trkpt lat="46.35949" lon="-0.4781">
        <ele>52.86</ele>
        <time>2025-02-16T16:33:40.078Z</time>
      </trkpt>
      <trkpt lat="46.35972" lon="-0.47806">
        <ele>52.15</ele>
        <time>2025-02-16T16:33:42.835Z</time>
      </trkpt>
      <trkpt lat="46.36003" lon="-0.47798">
        <ele>51.33</ele>
        <time>2025-02-16T16:33:45.598Z</time>
      </trkpt>
      <trkpt lat="46.3602" lon="-0.47794">
        <ele>50.59</ele>
        <time>2025-02-16T16:33:48.365Z</time>
      </trkpt>
      <trkpt lat="46.36046" lon="-0.47787">
        <ele>49.82</ele>
        <time>2025-02-16T16:33:51.137Z</time>
      </trkpt>
      <trkpt lat="46.36038" lon="-0.47743">
        <ele>49.16</ele>
        <time>2025-02-16T16:33:53.915Z</time>
      </trkpt>
      <trkpt lat="46.36035" lon="-0.47724">
        <ele>48.53</ele>
        <time>2025-02-16T16:33:56.696Z</time>
      </trkpt>
      <trkpt lat="46.36034" lon="-0.47706">
        <ele>47.92</ele>
        <time>2025-02-16T16:33:59.479Z</time>
      </trkpt>
      <trkpt lat="46.36041" lon="-0.47705">
        <ele>47.28</ele>
        <time>2025-02-16T16:34:02.264Z</time>
      </trkpt>
      <trkpt lat="46.36052" lon="-0.47692">
        <ele>46.65</ele>
        <time>2025-02-16T16:34:05.052Z</time>
      </trkpt>
      <trkpt lat="46.3607" lon="-0.47655">
        <ele>45.98</ele>
        <time>2025-02-16T16:34:07.846Z</time>
      </trkpt>
      <trkpt lat="46.36079" lon="-0.47636">
        <ele>45.32</ele>
        <time>2025-02-16T16:34:10.643Z</time>
      </trkpt>
      <trkpt lat="46.36092" lon="-0.47595">
        <ele>44.68</ele>
        <time>2025-02-16T16:34:13.446Z</time>
      </trkpt>
      <trkpt lat="46.36096" lon="-0.47582">
        <ele>44.02</ele>
        <time>2025-02-16T16:34:16.251Z</time>
      </trkpt>
      <trkpt lat="46.36109" lon="-0.47542">
        <ele>43.33</ele>
        <time>2025-02-16T16:34:19.062Z</time>
      </trkpt>
      <trkpt lat="46.36114" lon="-0.47512">
        <ele>42.67</ele>
        <time>2025-02-16T16:34:21.878Z</time>
      </trkpt>
      <trkpt lat="46.36114" lon="-0.47483">
        <ele>41.94</ele>
        <time>2025-02-16T16:34:24.698Z</time>
      </trkpt>
      <trkpt lat="46.36118" lon="-0.47458">
        <ele>41.17</ele>
        <time>2025-02-16T16:34:27.521Z</time>
      </trkpt>
      <trkpt lat="46.36121" lon="-0.47446">
        <ele>40.35</ele>
        <time>2025-02-16T16:34:30.346Z</time>
      </trkpt>
      <trkpt lat="46.36125" lon="-0.47448">
        <ele>39.5</ele>
        <time>2025-02-16T16:34:33.172Z</time>
      </trkpt>
      <trkpt lat="46.36132" lon="-0.47424">
        <ele>38.53</ele>
        <time>2025-02-16T16:34:36.002Z</time>
      </trkpt>
      <trkpt lat="46.36136" lon="-0.47398">
        <ele>37.42</ele>
        <time>2025-02-16T16:34:38.835Z</time>
      </trkpt>
      <trkpt lat="46.36145" lon="-0.47383">
        <ele>36.35</ele>
        <time>2025-02-16T16:34:41.671Z</time>
      </trkpt>
      <trkpt lat="46.36164" lon="-0.47373">
        <ele>35.31</ele>
        <time>2025-02-16T16:34:44.511Z</time>
      </trkpt>
      <trkpt lat="46.36183" lon="-0.47364">
        <ele>34.37</ele>
        <time>2025-02-16T16:34:47.355Z</time>
      </trkpt>
      <trkpt lat="46.36203" lon="-0.47361">
        <ele>33.54</ele>
        <time>2025-02-16T16:34:50.203Z</time>
      </trkpt>
      <trkpt lat="46.36205" lon="-0.47357">
        <ele>32.74</ele>
        <time>2025-02-16T16:34:53.052Z</time>
      </trkpt>
      <trkpt lat="46.36181" lon="-0.47336">
        <ele>31.89</ele>
        <time>2025-02-16T16:34:55.906Z</time>
      </trkpt>
      <trkpt lat="46.36156" lon="-0.47337">
        <ele>31.32</ele>
        <time>2025-02-16T16:34:58.765Z</time>
      </trkpt>
      <trkpt lat="46.36132" lon="-0.47338">
        <ele>30.88</ele>
        <time>2025-02-16T16:35:01.629Z</time>
      </trkpt>
      <trkpt lat="46.36123" lon="-0.47334">
        <ele>30.46</ele>
        <time>2025-02-16T16:35:04.495Z</time>
      </trkpt>
      <trkpt lat="46.36096" lon="-0.47311">
        <ele>30.11</ele>
        <time>2025-02-16T16:35:07.367Z</time>
      </trkpt>
      <trkpt lat="46.3607" lon="-0.47288">
        <ele>29.69</ele>
        <time>2025-02-16T16:35:10.245Z</time>
      </trkpt>
      <trkpt lat="46.36046" lon="-0.47265">
        <ele>29.28</ele>
        <time>2025-02-16T16:35:13.129Z</time>
      </trkpt>
      <trkpt lat="46.36025" lon="-0.47241">
        <ele>29.06</ele>
        <time>2025-02-16T16:35:16.018Z</time>
      </trkpt>
      <trkpt lat="46.36005" lon="-0.47217">
        <ele>28.93</ele>
        <time>2025-02-16T16:35:18.913Z</time>
      </trkpt>
      <trkpt lat="46.35984" lon="-0.47193">
        <ele>28.87</ele>
        <time>2025-02-16T16:35:21.813Z</time>
      </trkpt>
      <trkpt lat="46.35967" lon="-0.47173">
        <ele>28.75</ele>
        <time>2025-02-16T16:35:24.718Z</time>
      </trkpt>
      <trkpt lat="46.35948" lon="-0.47143">
        <ele>28.79</ele>
        <time>2025-02-16T16:35:27.628Z</time>
      </trkpt>
      <trkpt lat="46.35929" lon="-0.47114">
        <ele>28.82</ele>
        <time>2025-02-16T16:35:30.544Z</time>
      </trkpt>
      <trkpt lat="46.35911" lon="-0.47085">
        <ele>28.83</ele>
        <time>2025-02-16T16:35:33.465Z</time>
      </trkpt>
      <trkpt lat="46.35896" lon="-0.47052">
        <ele>28.76</ele>
        <time>2025-02-16T16:35:36.391Z</time>
      </trkpt>
      <trkpt lat="46.35882" lon="-0.4702">
        <ele>28.73</ele>
        <time>2025-02-16T16:35:39.323Z</time>
      </trkpt>
      <trkpt lat="46.35868" lon="-0.46988">
        <ele>28.73</ele>
        <time>2025-02-16T16:35:42.260Z</time>
      </trkpt>
      <trkpt lat="46.35855" lon="-0.46952">
        <ele>28.63</ele>
        <time>2025-02-16T16:35:45.203Z</time>
      </trkpt>
      <trkpt lat="46.35842" lon="-0.46916">
        <ele>28.64</ele>
        <time>2025-02-16T16:35:48.151Z</time>
      </trkpt>
      <trkpt lat="46.35829" lon="-0.4688">
        <ele>28.61</ele>
        <time>2025-02-16T16:35:51.105Z</time>
      </trkpt>
      <trkpt lat="46.35816" lon="-0.46844">
        <ele>28.48</ele>
        <time>2025-02-16T16:35:54.064Z</time>
      </trkpt>
      <trkpt lat="46.35804" lon="-0.46807">
        <ele>28.2</ele>
        <time>2025-02-16T16:35:57.029Z</time>
      </trkpt>
      <trkpt lat="46.35791" lon="-0.46769">
        <ele>28.05</ele>
        <time>2025-02-16T16:36:00.000Z</time>
      </trkpt>
      <trkpt lat="46.35779" lon="-0.46731">
        <ele>27.92</ele>
        <time>2025-02-16T16:36:02.977Z</time>
      </trkpt>
      <trkpt lat="46.35767" lon="-0.46694">
        <ele>27.8</ele>
        <time>2025-02-16T16:36:05.959Z</time>
      </trkpt>
      <trkpt lat="46.35754" lon="-0.46656">
        <ele>27.69</ele>
        <time>2025-02-16T16:36:08.947Z</time>
      </trkpt>
      <trkpt lat="46.35742" lon="-0.46619">
        <ele>27.17</ele>
        <time>2025-02-16T16:36:11.941Z</time>
      </trkpt>
      <trkpt lat="46.35729" lon="-0.46581">
        <ele>26.67</ele>
        <time>2025-02-16T16:36:14.941Z</time>
      </trkpt>
      <trkpt lat="46.35717" lon="-0.46543">
        <ele>26.2</ele>
        <time>2025-02-16T16:36:17.947Z</time>
      </trkpt>
      <trkpt lat="46.35704" lon="-0.46506">
        <ele>25.77</ele>
        <time>2025-02-16T16:36:20.958Z</time>
      </trkpt>
      <trkpt lat="46.35692" lon="-0.46469">
        <ele>25.08</ele>
        <time>2025-02-16T16:36:23.975Z</time>
      </trkpt>
      <trkpt lat="46.35677" lon="-0.46435">
        <ele>24.46</ele>
        <time>2025-02-16T16:36:26.998Z</time>
      </trkpt>
      <trkpt lat="46.35662" lon="-0.46401">
        <ele>23.8</ele>
        <time>2025-02-16T16:36:30.026Z</time>
      </trkpt>
      <trkpt lat="46.35647" lon="-0.46367">
        <ele>23.31</ele>
        <time>2025-02-16T16:36:33.060Z</time>
      </trkpt>
      <trkpt lat="46.35632" lon="-0.46334">
        <ele>22.59</ele>
        <time>2025-02-16T16:36:36.099Z</time>
      </trkpt>
      <trkpt lat="46.35628" lon="-0.46299">
        <ele>21.9</ele>
        <time>2025-02-16T16:36:39.143Z</time>
      </trkpt>
      <trkpt lat="46.35617" lon="-0.46266">
        <ele>21.38</ele>
        <time>2025-02-16T16:36:42.192Z</time>
      </trkpt>
      <trkpt lat="46.35606" lon="-0.46232">
        <ele>20.83</ele>
        <time>2025-02-16T16:36:45.246Z</time>
      </trkpt>
      <trkpt lat="46.35595" lon="-0.46198">
        <ele>20.27</ele>
        <time>2025-02-16T16:36:48.306Z</time>
      </trkpt>
      <trkpt lat="46.35588" lon="-0.46165">
        <ele>19.7</ele>
        <time>2025-02-16T16:36:51.370Z</time>
      </trkpt>
      <trkpt lat="46.3558" lon="-0.46132">
        <ele>19.14</ele>
        <time>2025-02-16T16:36:54.439Z</time>
      </trkpt>
      <trkpt lat="46.35575" lon="-0.46091">
        <ele>18.63</ele>
        <time>2025-02-16T16:36:57.514Z</time>
      </trkpt>
      <trkpt lat="46.3557" lon="-0.4605">
        <ele>18.1</ele>
        <time>2025-02-16T16:37:00.595Z</time>
      </trkpt>
      <trkpt lat="46.35565" lon="-0.4601">
        <ele>17.69</ele>
        <time>2025-02-16T16:37:03.681Z</time>
      </trkpt>
      <trkpt lat="46.35554" lon="-0.45975">
        <ele>17.41</ele>
        <time>2025-02-16T16:37:06.773Z</time>
      </trkpt>
      <trkpt lat="46.35543" lon="-0.45941">
        <ele>17.12</ele>
        <time>2025-02-16T16:37:09.870Z</time>
      </trkpt>
      <trkpt lat="46.35531" lon="-0.45906">
        <ele>16.91</ele>
        <time>2025-02-16T16:37:12.972Z</time>
      </trkpt>
      <trkpt lat="46.3552" lon="-0.45872">
        <ele>16.72</ele>
        <time>2025-02-16T16:37:16.079Z</time>
      </trkpt>
      <trkpt lat="46.35512" lon="-0.45849">
        <ele>16.66</ele>
        <time>2025-02-16T16:37:19.190Z</time>
      </trkpt>
      <trkpt lat="46.35503" lon="-0.45825">
        <ele>16.6</ele>
        <time>2025-02-16T16:37:22.305Z</time>
      </trkpt>
      <trkpt lat="46.35489" lon="-0.45796">
        <ele>16.53</ele>
        <time>2025-02-16T16:37:25.425Z</time>
      </trkpt>
      <trkpt lat="46.35475" lon="-0.45767">
        <ele>16.57</ele>
        <time>2025-02-16T16:37:28.550Z</time>
      </trkpt>
      <trkpt lat="46.35473" lon="-0.45754">
        <ele>16.7</ele>
        <time>2025-02-16T16:37:31.676Z</time>
      </trkpt>
      <trkpt lat="46.3549" lon="-0.45748">
        <ele>16.94</ele>
        <time>2025-02-16T16:37:34.806Z</time>
      </trkpt>
      <trkpt lat="46.35495" lon="-0.45743">
        <ele>17.22</ele>
        <time>2025-02-16T16:37:37.937Z</time>
      </trkpt>
      <trkpt lat="46.35497" lon="-0.45741">
        <ele>17.53</ele>
        <time>2025-02-16T16:37:41.069Z</time>
      </trkpt>
      <trkpt lat="46.35513" lon="-0.45716">
        <ele>17.94</ele>
        <time>2025-02-16T16:37:44.205Z</time>
      </trkpt>
      <trkpt lat="46.35529" lon="-0.4569">
        <ele>18.41</ele>
        <time>2025-02-16T16:37:47.346Z</time>
      </trkpt>
      <trkpt lat="46.35544" lon="-0.45668">
        <ele>18.85</ele>
        <time>2025-02-16T16:37:50.491Z</time>
      </trkpt>
      <trkpt lat="46.35559" lon="-0.45647">
        <ele>19.35</ele>
        <time>2025-02-16T16:37:53.641Z</time>
      </trkpt>
      <trkpt lat="46.35563" lon="-0.45641">
        <ele>19.82</ele>
        <time>2025-02-16T16:37:56.792Z</time>
      </trkpt>
      <trkpt lat="46.35576" lon="-0.45641">
        <ele>20.29</ele>
        <time>2025-02-16T16:37:59.945Z</time>
      </trkpt>
      <trkpt lat="46.35593" lon="-0.45656">
        <ele>20.76</ele>
        <time>2025-02-16T16:38:03.102Z</time>
      </trkpt>
      <trkpt lat="46.35609" lon="-0.45678">
        <ele>21.13</ele>
        <time>2025-02-16T16:38:06.264Z</time>
      </trkpt>
      <trkpt lat="46.35625" lon="-0.45701">
        <ele>21.6</ele>
        <time>2025-02-16T16:38:09.430Z</time>
      </trkpt>
      <trkpt lat="46.3564" lon="-0.45724">
        <ele>22</ele>
        <time>2025-02-16T16:38:12.601Z</time>
      </trkpt>
      <trkpt lat="46.35659" lon="-0.45758">
        <ele>22.41</ele>
        <time>2025-02-16T16:38:15.778Z</time>
      </trkpt>
      <trkpt lat="46.35677" lon="-0.45791">
        <ele>22.75</ele>
        <time>2025-02-16T16:38:18.961Z</time>
      </trkpt>
      <trkpt lat="46.35685" lon="-0.45795">
        <ele>23.06</ele>
        <time>2025-02-16T16:38:22.145Z</time>
      </trkpt>
      <trkpt lat="46.35716" lon="-0.45786">
        <ele>23.52</ele>
        <time>2025-02-16T16:38:25.336Z</time>
      </trkpt>
      <trkpt lat="46.35724" lon="-0.45827">
        <ele>23.62</ele>
        <time>2025-02-16T16:38:28.532Z</time>
      </trkpt>
      <trkpt lat="46.35731" lon="-0.45849">
        <ele>23.74</ele>
        <time>2025-02-16T16:38:31.732Z</time>
      </trkpt>
      <trkpt lat="46.35743" lon="-0.45883">
        <ele>23.86</ele>
        <time>2025-02-16T16:38:34.937Z</time>
      </trkpt>
      <trkpt lat="46.35755" lon="-0.45917">
        <ele>23.87</ele>
        <time>2025-02-16T16:38:38.147Z</time>
      </trkpt>
      <trkpt lat="46.35766" lon="-0.45952">
        <ele>23.8</ele>
        <time>2025-02-16T16:38:41.363Z</time>
      </trkpt>
      <trkpt lat="46.35778" lon="-0.45986">
        <ele>23.71</ele>
        <time>2025-02-16T16:38:44.584Z</time>
      </trkpt>
      <trkpt lat="46.35786" lon="-0.45997">
        <ele>23.65</ele>
        <time>2025-02-16T16:38:47.807Z</time>
      </trkpt>
      <trkpt lat="46.35808" lon="-0.46007">
        <ele>23.59</ele>
        <time>2025-02-16T16:38:51.035Z</time>
      </trkpt>
      <trkpt lat="46.3583" lon="-0.46009">
        <ele>23.52</ele>
        <time>2025-02-16T16:38:54.267Z</time>
      </trkpt>
      <trkpt lat="46.35853" lon="-0.4601">
        <ele>23.47</ele>
        <time>2025-02-16T16:38:57.504Z</time>
      </trkpt>
      <trkpt lat="46.35859" lon="-0.46012">
        <ele>23.49</ele>
        <time>2025-02-16T16:39:00.742Z</time>
      </trkpt>
      <trkpt lat="46.35868" lon="-0.46027">
        <ele>23.53</ele>
        <time>2025-02-16T16:39:03.983Z</time>
      </trkpt>
      <trkpt lat="46.35872" lon="-0.46044">
        <ele>23.61</ele>
        <time>2025-02-16T16:39:07.226Z</time>
      </trkpt>
      <trkpt lat="46.35868" lon="-0.46068">
        <ele>23.73</ele>
        <time>2025-02-16T16:39:10.473Z</time>
      </trkpt>
      <trkpt lat="46.35864" lon="-0.46091">
        <ele>23.89</ele>
        <time>2025-02-16T16:39:13.723Z</time>
      </trkpt>
      <trkpt lat="46.35853" lon="-0.46127">
        <ele>24.08</ele>
        <time>2025-02-16T16:39:16.978Z</time>
      </trkpt>
      <trkpt lat="46.35842" lon="-0.46162">
        <ele>24.36</ele>
        <time>2025-02-16T16:39:20.239Z</time>
      </trkpt>
      <trkpt lat="46.35842" lon="-0.46186">
        <ele>24.68</ele>
        <time>2025-02-16T16:39:23.503Z</time>
      </trkpt>
      <trkpt lat="46.35849" lon="-0.46207">
        <ele>24.99</ele>
        <time>2025-02-16T16:39:26.770Z</time>
      </trkpt>
      <trkpt lat="46.35849" lon="-0.46207">
        <ele>25.29</ele>
        <time>2025-02-16T16:39:30.037Z</time>
      </trkpt>
      <trkpt lat="46.35853" lon="-0.46195">
        <ele>25.63</ele>
        <time>2025-02-16T16:39:33.306Z</time>
      </trkpt>
      <trkpt lat="46.35859" lon="-0.46176">
        <ele>25.98</ele>
        <time>2025-02-16T16:39:36.578Z</time>
      </trkpt>
      <trkpt lat="46.35865" lon="-0.4616">
        <ele>26.37</ele>
        <time>2025-02-16T16:39:39.853Z</time>
      </trkpt>
      <trkpt lat="46.35875" lon="-0.46152">
        <ele>26.81</ele>
        <time>2025-02-16T16:39:43.130Z</time>
      </trkpt>
      <trkpt lat="46.35885" lon="-0.46145">
        <ele>27.3</ele>
        <time>2025-02-16T16:39:46.409Z</time>
      </trkpt>
      <trkpt lat="46.35884" lon="-0.46143">
        <ele>27.8</ele>
        <time>2025-02-16T16:39:49.688Z</time>
      </trkpt>
      <trkpt lat="46.35891" lon="-0.46138">
        <ele>28.37</ele>
        <time>2025-02-16T16:39:52.969Z</time>
      </trkpt>
      <trkpt lat="46.35902" lon="-0.46136">
        <ele>28.98</ele>
        <time>2025-02-16T16:39:56.252Z</time>
      </trkpt>
      <trkpt lat="46.35919" lon="-0.46125">
        <ele>29.66</ele>
        <time>2025-02-16T16:39:59.539Z</time>
      </trkpt>
      <trkpt lat="46.35937" lon="-0.46115">
        <ele>30.38</ele>
        <time>2025-02-16T16:40:02.830Z</time>
      </trkpt>
      <trkpt lat="46.35962" lon="-0.4611">
        <ele>31.12</ele>
        <time>2025-02-16T16:40:06.126Z</time>
      </trkpt>
      <trkpt lat="46.35966" lon="-0.4612">
        <ele>31.75</ele>
        <time>2025-02-16T16:40:09.423Z</time>
      </trkpt>
      <trkpt lat="46.35978" lon="-0.46154">
        <ele>32.4</ele>
        <time>2025-02-16T16:40:12.726Z</time>
      </trkpt>
      <trkpt lat="46.35991" lon="-0.46189">
        <ele>32.99</ele>
        <time>2025-02-16T16:40:16.034Z</time>
      </trkpt>
      <trkpt lat="46.36003" lon="-0.46224">
        <ele>33.56</ele>
        <time>2025-02-16T16:40:19.348Z</time>
      </trkpt>
      <trkpt lat="46.36016" lon="-0.4625">
        <ele>34.14</ele>
        <time>2025-02-16T16:40:22.666Z</time>
      </trkpt>
      <trkpt lat="46.36022" lon="-0.46228">
        <ele>34.78</ele>
        <time>2025-02-16T16:40:25.987Z</time>
      </trkpt>
      <trkpt lat="46.36029" lon="-0.46207">
        <ele>35.38</ele>
        <time>2025-02-16T16:40:29.311Z</time>
      </trkpt>
      <trkpt lat="46.36049" lon="-0.46178">
        <ele>35.99</ele>
        <time>2025-02-16T16:40:32.641Z</time>
      </trkpt>
      <trkpt lat="46.36069" lon="-0.4615">
        <ele>36.53</ele>
        <time>2025-02-16T16:40:35.977Z</time>
      </trkpt>
      <trkpt lat="46.36089" lon="-0.46121">
        <ele>36.97</ele>
        <time>2025-02-16T16:40:39.318Z</time>
      </trkpt>
      <trkpt lat="46.36111" lon="-0.46094">
        <ele>37.34</ele>
        <time>2025-02-16T16:40:42.665Z</time>
      </trkpt>
      <trkpt lat="46.36132" lon="-0.46067">
        <ele>37.74</ele>
        <time>2025-02-16T16:40:46.018Z</time>
      </trkpt>
      <trkpt lat="46.36153" lon="-0.4604">
        <ele>38.09</ele>
        <time>2025-02-16T16:40:49.376Z</time>
      </trkpt>
      <trkpt lat="46.36175" lon="-0.46013">
        <ele>38.39</ele>
        <time>2025-02-16T16:40:52.740Z</time>
      </trkpt>
      <trkpt lat="46.36196" lon="-0.45986">
        <ele>38.63</ele>
        <time>2025-02-16T16:40:56.110Z</time>
      </trkpt>
      <trkpt lat="46.36222" lon="-0.4596">
        <ele>38.78</ele>
        <time>2025-02-16T16:40:59.486Z</time>
      </trkpt>
      <trkpt lat="46.36248" lon="-0.45934">
        <ele>38.88</ele>
        <time>2025-02-16T16:41:02.868Z</time>
      </trkpt>
      <trkpt lat="46.36273" lon="-0.45909">
        <ele>39.05</ele>
        <time>2025-02-16T16:41:06.257Z</time>
      </trkpt>
      <trkpt lat="46.36299" lon="-0.45883">
        <ele>39.06</ele>
        <time>2025-02-16T16:41:09.652Z</time>
      </trkpt>
      <trkpt lat="46.36318" lon="-0.45854">
        <ele>38.98</ele>
        <time>2025-02-16T16:41:13.052Z</time>
      </trkpt>
      <trkpt lat="46.36337" lon="-0.45825">
        <ele>38.87</ele>
        <time>2025-02-16T16:41:16.458Z</time>
      </trkpt>
      <trkpt lat="46.36356" lon="-0.45797">
        <ele>38.75</ele>
        <time>2025-02-16T16:41:19.869Z</time>
      </trkpt>
      <trkpt lat="46.36375" lon="-0.45768">
        <ele>38.67</ele>
        <time>2025-02-16T16:41:23.286Z</time>
      </trkpt>
      <trkpt lat="46.36394" lon="-0.45739">
        <ele>38.6</ele>
        <time>2025-02-16T16:41:26.708Z</time>
      </trkpt>
      <trkpt lat="46.36408" lon="-0.45702">
        <ele>38.68</ele>
        <time>2025-02-16T16:41:30.136Z</time>
      </trkpt>
      <trkpt lat="46.36422" lon="-0.45664">
        <ele>38.7</ele>
        <time>2025-02-16T16:41:33.570Z</time>
      </trkpt>
      <trkpt lat="46.36437" lon="-0.45627">
        <ele>38.76</ele>
        <time>2025-02-16T16:41:37.010Z</time>
      </trkpt>
      <trkpt lat="46.36451" lon="-0.45589">
        <ele>38.83</ele>
        <time>2025-02-16T16:41:40.456Z</time>
      </trkpt>
      <trkpt lat="46.36466" lon="-0.45552">
        <ele>38.95</ele>
        <time>2025-02-16T16:41:43.908Z</time>
      </trkpt>
      <trkpt lat="46.3648" lon="-0.45514">
        <ele>39.2</ele>
        <time>2025-02-16T16:41:47.366Z</time>
      </trkpt>
      <trkpt lat="46.36494" lon="-0.45477">
        <ele>39.55</ele>
        <time>2025-02-16T16:41:50.830Z</time>
      </trkpt>
      <trkpt lat="46.36515" lon="-0.45448">
        <ele>39.97</ele>
        <time>2025-02-16T16:41:54.300Z</time>
      </trkpt>
      <trkpt lat="46.36535" lon="-0.45418">
        <ele>40.51</ele>
        <time>2025-02-16T16:41:57.775Z</time>
      </trkpt>
      <trkpt lat="46.36556" lon="-0.45389">
        <ele>41.13</ele>
        <time>2025-02-16T16:42:01.256Z</time>
      </trkpt>
      <trkpt lat="46.36576" lon="-0.45359">
        <ele>41.95</ele>
        <time>2025-02-16T16:42:04.743Z</time>
      </trkpt>
      <trkpt lat="46.36584" lon="-0.45336">
        <ele>42.73</ele>
        <time>2025-02-16T16:42:08.234Z</time>
      </trkpt>
      <trkpt lat="46.36591" lon="-0.45312">
        <ele>43.57</ele>
        <time>2025-02-16T16:42:11.728Z</time>
      </trkpt>
      <trkpt lat="46.36593" lon="-0.45286">
        <ele>44.42</ele>
        <time>2025-02-16T16:42:15.226Z</time>
      </trkpt>
      <trkpt lat="46.36595" lon="-0.45261">
        <ele>45.27</ele>
        <time>2025-02-16T16:42:18.727Z</time>
      </trkpt>
      <trkpt lat="46.36591" lon="-0.45227">
        <ele>46.17</ele>
        <time>2025-02-16T16:42:22.233Z</time>
      </trkpt>
      <trkpt lat="46.36587" lon="-0.45194">
        <ele>47.02</ele>
        <time>2025-02-16T16:42:25.744Z</time>
      </trkpt>
      <trkpt lat="46.36578" lon="-0.45154">
        <ele>47.86</ele>
        <time>2025-02-16T16:42:29.260Z</time>
      </trkpt>
      <trkpt lat="46.3657" lon="-0.45115">
        <ele>48.68</ele>
        <time>2025-02-16T16:42:32.782Z</time>
      </trkpt>
      <trkpt lat="46.36586" lon="-0.45105">
        <ele>49.55</ele>
        <time>2025-02-16T16:42:36.308Z</time>
      </trkpt>
      <trkpt lat="46.36604" lon="-0.45095">
        <ele>50.43</ele>
        <time>2025-02-16T16:42:39.838Z</time>
      </trkpt>
      <trkpt lat="46.36621" lon="-0.45085">
        <ele>51.29</ele>
        <time>2025-02-16T16:42:43.371Z</time>
      </trkpt>
      <trkpt lat="46.36644" lon="-0.45062">
        <ele>52.15</ele>
        <time>2025-02-16T16:42:46.910Z</time>
      </trkpt>
      <trkpt lat="46.36666" lon="-0.4504">
        <ele>52.97</ele>
        <time>2025-02-16T16:42:50.454Z</time>
      </trkpt>
      <trkpt lat="46.36664" lon="-0.45029">
        <ele>53.66</ele>
        <time>2025-02-16T16:42:54.000Z</time>
      </trkpt>
      <trkpt lat="46.36658" lon="-0.44995">
        <ele>54.3</ele>
        <time>2025-02-16T16:42:57.551Z</time>
      </trkpt>
      <trkpt lat="46.36658" lon="-0.44995">
        <ele>54.82</ele>
        <time>2025-02-16T16:43:01.102Z</time>
      </trkpt>
      <trkpt lat="46.36658" lon="-0.44992">
        <ele>55.28</ele>
        <time>2025-02-16T16:43:04.653Z</time>
      </trkpt>
      <trkpt lat="46.36647" lon="-0.44957">
        <ele>55.69</ele>
        <time>2025-02-16T16:43:08.209Z</time>
      </trkpt>
      <trkpt lat="46.36637" lon="-0.44921">
        <ele>56.03</ele>
        <time>2025-02-16T16:43:11.771Z</time>
      </trkpt>
      <trkpt lat="46.36627" lon="-0.44885">
        <ele>56.31</ele>
        <time>2025-02-16T16:43:15.338Z</time>
      </trkpt>
      <trkpt lat="46.36617" lon="-0.44844">
        <ele>56.5</ele>
        <time>2025-02-16T16:43:18.911Z</time>
      </trkpt>
      <trkpt lat="46.36606" lon="-0.44802">
        <ele>56.63</ele>
        <time>2025-02-16T16:43:22.490Z</time>
      </trkpt>
      <trkpt lat="46.36595" lon="-0.4476">
        <ele>56.69</ele>
        <time>2025-02-16T16:43:26.075Z</time>
      </trkpt>
      <trkpt lat="46.36584" lon="-0.44719">
        <ele>56.74</ele>
        <time>2025-02-16T16:43:29.667Z</time>
      </trkpt>
      <trkpt lat="46.36574" lon="-0.44677">
        <ele>56.76</ele>
        <time>2025-02-16T16:43:33.265Z</time>
      </trkpt>
      <trkpt lat="46.36563" lon="-0.44636">
        <ele>56.74</ele>
        <time>2025-02-16T16:43:36.869Z</time>
      </trkpt>
      <trkpt lat="46.36559" lon="-0.44608">
        <ele>56.69</ele>
        <time>2025-02-16T16:43:40.477Z</time>
      </trkpt>
      <trkpt lat="46.36564" lon="-0.44572">
        <ele>56.64</ele>
        <time>2025-02-16T16:43:44.090Z</time>
      </trkpt>
      <trkpt lat="46.3657" lon="-0.44535">
        <ele>56.56</ele>
        <time>2025-02-16T16:43:47.708Z</time>
      </trkpt>
      <trkpt lat="46.36559" lon="-0.44535">
        <ele>56.42</ele>
        <time>2025-02-16T16:43:51.328Z</time>
      </trkpt>
      <trkpt lat="46.36546" lon="-0.44538">
        <ele>56.27</ele>
        <time>2025-02-16T16:43:54.951Z</time>
      </trkpt>
      <trkpt lat="46.36546" lon="-0.44538">
        <ele>56.19</ele>
        <time>2025-02-16T16:43:58.574Z</time>
      </trkpt>
      <trkpt lat="46.36519" lon="-0.44542">
        <ele>56</ele>
        <time>2025-02-16T16:44:02.202Z</time>
      </trkpt>
      <trkpt lat="46.36492" lon="-0.44546">
        <ele>55.81</ele>
        <time>2025-02-16T16:44:05.836Z</time>
      </trkpt>
      <trkpt lat="46.36465" lon="-0.4455">
        <ele>55.81</ele>
        <time>2025-02-16T16:44:09.475Z</time>
      </trkpt>
      <trkpt lat="46.36439" lon="-0.44555">
        <ele>55.91</ele>
        <time>2025-02-16T16:44:13.119Z</time>
      </trkpt>
      <trkpt lat="46.36411" lon="-0.4457">
        <ele>56.06</ele>
        <time>2025-02-16T16:44:16.769Z</time>
      </trkpt>
      <trkpt lat="46.36384" lon="-0.44586">
        <ele>56.2</ele>
        <time>2025-02-16T16:44:20.425Z</time>
      </trkpt>
      <trkpt lat="46.36357" lon="-0.44602">
        <ele>56.34</ele>
        <time>2025-02-16T16:44:24.087Z</time>
      </trkpt>
      <trkpt lat="46.36332" lon="-0.44604">
        <ele>56.46</ele>
        <time>2025-02-16T16:44:27.754Z</time>
      </trkpt>
      <trkpt lat="46.36308" lon="-0.44606">
        <ele>56.65</ele>
        <time>2025-02-16T16:44:31.426Z</time>
      </trkpt>
      <trkpt lat="46.36301" lon="-0.446">
        <ele>56.91</ele>
        <time>2025-02-16T16:44:35.100Z</time>
      </trkpt>
      <trkpt lat="46.36291" lon="-0.44559">
        <ele>57.28</ele>
        <time>2025-02-16T16:44:38.780Z</time>
      </trkpt>
      <trkpt lat="46.3628" lon="-0.44518">
        <ele>57.62</ele>
        <time>2025-02-16T16:44:42.466Z</time>
      </trkpt>
      <trkpt lat="46.36269" lon="-0.44477">
        <ele>58.04</ele>
        <time>2025-02-16T16:44:46.158Z</time>
      </trkpt>
      <trkpt lat="46.36258" lon="-0.44436">
        <ele>58.33</ele>
        <time>2025-02-16T16:44:49.856Z</time>
      </trkpt>
      <trkpt lat="46.36248" lon="-0.44396">
        <ele>58.53</ele>
        <time>2025-02-16T16:44:53.560Z</time>
      </trkpt>
      <trkpt lat="46.36219" lon="-0.44412">
        <ele>58.61</ele>
        <time>2025-02-16T16:44:57.270Z</time>
      </trkpt>
      <trkpt lat="46.36191" lon="-0.44427">
        <ele>58.66</ele>
        <time>2025-02-16T16:45:00.986Z</time>
      </trkpt>
      <trkpt lat="46.36162" lon="-0.44443">
        <ele>58.6</ele>
        <time>2025-02-16T16:45:04.708Z</time>
      </trkpt>
      <trkpt lat="46.36134" lon="-0.44458">
        <ele>58.5</ele>
        <time>2025-02-16T16:45:08.436Z</time>
      </trkpt>
      <trkpt lat="46.36105" lon="-0.44474">
        <ele>58.37</ele>
        <time>2025-02-16T16:45:12.170Z</time>
      </trkpt>
      <trkpt lat="46.36077" lon="-0.4449">
        <ele>58.05</ele>
        <time>2025-02-16T16:45:15.910Z</time>
      </trkpt>
      <trkpt lat="46.36048" lon="-0.44505">
        <ele>57.67</ele>
        <time>2025-02-16T16:45:19.656Z</time>
      </trkpt>
      <trkpt lat="46.36042" lon="-0.4447">
        <ele>57.33</ele>
        <time>2025-02-16T16:45:23.407Z</time>
      </trkpt>
      <trkpt lat="46.36036" lon="-0.4443">
        <ele>56.88</ele>
        <time>2025-02-16T16:45:27.164Z</time>
      </trkpt>
      <trkpt lat="46.36029" lon="-0.44389">
        <ele>56.33</ele>
        <time>2025-02-16T16:45:30.927Z</time>
      </trkpt>
      <trkpt lat="46.36022" lon="-0.44349">
        <ele>55.72</ele>
        <time>2025-02-16T16:45:34.696Z</time>
      </trkpt>
      <trkpt lat="46.35998" lon="-0.44364">
        <ele>54.94</ele>
        <time>2025-02-16T16:45:38.470Z</time>
      </trkpt>
      <trkpt lat="46.35973" lon="-0.44379">
        <ele>54.12</ele>
        <time>2025-02-16T16:45:42.249Z</time>
      </trkpt>
      <trkpt lat="46.35953" lon="-0.44396">
        <ele>53.2</ele>
        <time>2025-02-16T16:45:46.033Z</time>
      </trkpt>
      <trkpt lat="46.35932" lon="-0.44413">
        <ele>52.22</ele>
        <time>2025-02-16T16:45:49.822Z</time>
      </trkpt>
      <trkpt lat="46.3592" lon="-0.44434">
        <ele>51.23</ele>
        <time>2025-02-16T16:45:53.615Z</time>
      </trkpt>
      <trkpt lat="46.35909" lon="-0.44454">
        <ele>50.18</ele>
        <time>2025-02-16T16:45:57.411Z</time>
      </trkpt>
      <trkpt lat="46.35894" lon="-0.44485">
        <ele>49.01</ele>
        <time>2025-02-16T16:46:01.212Z</time>
      </trkpt>
      <trkpt lat="46.35879" lon="-0.44516">
        <ele>47.79</ele>
        <time>2025-02-16T16:46:05.019Z</time>
      </trkpt>
      <trkpt lat="46.35864" lon="-0.44546">
        <ele>46.6</ele>
        <time>2025-02-16T16:46:08.831Z</time>
      </trkpt>
      <trkpt lat="46.35849" lon="-0.44573">
        <ele>45.41</ele>
        <time>2025-02-16T16:46:12.648Z</time>
      </trkpt>
      <trkpt lat="46.35834" lon="-0.446">
        <ele>44.24</ele>
        <time>2025-02-16T16:46:16.469Z</time>
      </trkpt>
      <trkpt lat="46.35823" lon="-0.44611">
        <ele>43.13</ele>
        <time>2025-02-16T16:46:20.293Z</time>
      </trkpt>
      <trkpt lat="46.35804" lon="-0.44629">
        <ele>41.97</ele>
        <time>2025-02-16T16:46:24.122Z</time>
      </trkpt>
      <trkpt lat="46.35784" lon="-0.44647">
        <ele>40.85</ele>
        <time>2025-02-16T16:46:27.955Z</time>
      </trkpt>
      <trkpt lat="46.3576" lon="-0.44655">
        <ele>39.85</ele>
        <time>2025-02-16T16:46:31.793Z</time>
      </trkpt>
      <trkpt lat="46.35736" lon="-0.44663">
        <ele>39.03</ele>
        <time>2025-02-16T16:46:35.636Z</time>
      </trkpt>
      <trkpt lat="46.35711" lon="-0.44671">
        <ele>38.41</ele>
        <time>2025-02-16T16:46:39.484Z</time>
      </trkpt>
      <trkpt lat="46.35705" lon="-0.44692">
        <ele>37.89</ele>
        <time>2025-02-16T16:46:43.336Z</time>
      </trkpt>
      <trkpt lat="46.35698" lon="-0.44714">
        <ele>37.47</ele>
        <time>2025-02-16T16:46:47.191Z</time>
      </trkpt>
      <trkpt lat="46.35684" lon="-0.4473">
        <ele>37.24</ele>
        <time>2025-02-16T16:46:51.049Z</time>
      </trkpt>
      <trkpt lat="46.3567" lon="-0.44746">
        <ele>37.13</ele>
        <time>2025-02-16T16:46:54.911Z</time>
      </trkpt>
      <trkpt lat="46.35662" lon="-0.44765">
        <ele>37.12</ele>
        <time>2025-02-16T16:46:58.776Z</time>
      </trkpt>
      <trkpt lat="46.35655" lon="-0.44782">
        <ele>37.22</ele>
        <time>2025-02-16T16:47:02.644Z</time>
      </trkpt>
      <trkpt lat="46.35655" lon="-0.44809">
        <ele>37.33</ele>
        <time>2025-02-16T16:47:06.515Z</time>
      </trkpt>
      <trkpt lat="46.35655" lon="-0.44836">
        <ele>37.52</ele>
        <time>2025-02-16T16:47:10.390Z</time>
      </trkpt>
      <trkpt lat="46.3566" lon="-0.44863">
        <ele>37.74</ele>
        <time>2025-02-16T16:47:14.269Z</time>
      </trkpt>
      <trkpt lat="46.35664" lon="-0.4489">
        <ele>38.12</ele>
        <time>2025-02-16T16:47:18.152Z</time>
      </trkpt>
      <trkpt lat="46.3564" lon="-0.44907">
        <ele>38.74</ele>
        <time>2025-02-16T16:47:22.040Z</time>
      </trkpt>
      <trkpt lat="46.35623" lon="-0.44917">
        <ele>39.31</ele>
        <time>2025-02-16T16:47:25.932Z</time>
      </trkpt>
      <trkpt lat="46.35608" lon="-0.44926">
        <ele>39.86</ele>
        <time>2025-02-16T16:47:29.827Z</time>
      </trkpt>
      <trkpt lat="46.3561" lon="-0.44937">
        <ele>40.37</ele>
        <time>2025-02-16T16:47:33.724Z</time>
      </trkpt>
      <trkpt lat="46.35617" lon="-0.44973">
        <ele>40.88</ele>
        <time>2025-02-16T16:47:37.626Z</time>
      </trkpt>
      <trkpt lat="46.35623" lon="-0.4501">
        <ele>41.37</ele>
        <time>2025-02-16T16:47:41.533Z</time>
      </trkpt>
      <trkpt lat="46.3561" lon="-0.45017">
        <ele>41.9</ele>
        <time>2025-02-16T16:47:45.443Z</time>
      </trkpt>
      <trkpt lat="46.35589" lon="-0.45029">
        <ele>42.46</ele>
        <time>2025-02-16T16:47:49.357Z</time>
      </trkpt>
      <trkpt lat="46.356" lon="-0.4507">
        <ele>43.05</ele>
        <time>2025-02-16T16:47:53.277Z</time>
      </trkpt>
      <trkpt lat="46.3561" lon="-0.45111">
        <ele>43.7</ele>
        <time>2025-02-16T16:47:57.204Z</time>
      </trkpt>
      <trkpt lat="46.35589" lon="-0.45126">
        <ele>44.33</ele>
        <time>2025-02-16T16:48:01.135Z</time>
      </trkpt>
      <trkpt lat="46.35565" lon="-0.45134">
        <ele>44.91</ele>
        <time>2025-02-16T16:48:05.071Z</time>
      </trkpt>
      <trkpt lat="46.35551" lon="-0.45144">
        <ele>45.48</ele>
        <time>2025-02-16T16:48:09.010Z</time>
      </trkpt>
      <trkpt lat="46.3553" lon="-0.45159">
        <ele>46.13</ele>
        <time>2025-02-16T16:48:12.954Z</time>
      </trkpt>
      <trkpt lat="46.35509" lon="-0.45173">
        <ele>46.76</ele>
        <time>2025-02-16T16:48:16.903Z</time>
      </trkpt>
      <trkpt lat="46.35488" lon="-0.45188">
        <ele>47.36</ele>
        <time>2025-02-16T16:48:20.856Z</time>
      </trkpt>
      <trkpt lat="46.35499" lon="-0.45218">
        <ele>47.88</ele>
        <time>2025-02-16T16:48:24.814Z</time>
      </trkpt>
      <trkpt lat="46.35511" lon="-0.45251">
        <ele>48.31</ele>
        <time>2025-02-16T16:48:28.777Z</time>
      </trkpt>
      <trkpt lat="46.35522" lon="-0.45284">
        <ele>48.75</ele>
        <time>2025-02-16T16:48:32.745Z</time>
      </trkpt>
      <trkpt lat="46.3551" lon="-0.45293">
        <ele>49.19</ele>
        <time>2025-02-16T16:48:36.716Z</time>
      </trkpt>
      <trkpt lat="46.35499" lon="-0.45292">
        <ele>49.59</ele>
        <time>2025-02-16T16:48:40.689Z</time>
      </trkpt>
      <trkpt lat="46.35473" lon="-0.45289">
        <ele>49.87</ele>
        <time>2025-02-16T16:48:44.667Z</time>
      </trkpt>
      <trkpt lat="46.35448" lon="-0.45287">
        <ele>50.23</ele>
        <time>2025-02-16T16:48:48.651Z</time>
      </trkpt>
      <trkpt lat="46.35422" lon="-0.45284">
        <ele>50.66</ele>
        <time>2025-02-16T16:48:52.640Z</time>
      </trkpt>
      <trkpt lat="46.35395" lon="-0.45288">
        <ele>50.98</ele>
        <time>2025-02-16T16:48:56.634Z</time>
      </trkpt>
      <trkpt lat="46.35368" lon="-0.45291">
        <ele>51.17</ele>
        <time>2025-02-16T16:49:00.634Z</time>
      </trkpt>
      <trkpt lat="46.35349" lon="-0.45297">
        <ele>51.27</ele>
        <time>2025-02-16T16:49:04.638Z</time>
      </trkpt>
      <trkpt lat="46.35329" lon="-0.45304">
        <ele>51.34</ele>
        <time>2025-02-16T16:49:08.646Z</time>
      </trkpt>
      <trkpt lat="46.35304" lon="-0.45314">
        <ele>51.44</ele>
        <time>2025-02-16T16:49:12.659Z</time>
      </trkpt>
      <trkpt lat="46.35278" lon="-0.45325">
        <ele>51.39</ele>
        <time>2025-02-16T16:49:16.677Z</time>
      </trkpt>
      <trkpt lat="46.35252" lon="-0.45336">
        <ele>51.22</ele>
        <time>2025-02-16T16:49:20.701Z</time>
      </trkpt>
      <trkpt lat="46.35232" lon="-0.45342">
        <ele>50.97</ele>
        <time>2025-02-16T16:49:24.729Z</time>
      </trkpt>
      <trkpt lat="46.35211" lon="-0.45349">
        <ele>50.61</ele>
        <time>2025-02-16T16:49:28.761Z</time>
      </trkpt>
      <trkpt lat="46.35192" lon="-0.4535">
        <ele>50.21</ele>
        <time>2025-02-16T16:49:32.797Z</time>
      </trkpt>
      <trkpt lat="46.35173" lon="-0.45351">
        <ele>49.81</ele>
        <time>2025-02-16T16:49:36.837Z</time>
      </trkpt>
      <trkpt lat="46.35166" lon="-0.45351">
        <ele>49.38</ele>
        <time>2025-02-16T16:49:40.878Z</time>
      </trkpt>
      <trkpt lat="46.35164" lon="-0.45357">
        <ele>48.92</ele>
        <time>2025-02-16T16:49:44.920Z</time>
      </trkpt>
      <trkpt lat="46.35145" lon="-0.45359">
        <ele>48.48</ele>
        <time>2025-02-16T16:49:48.966Z</time>
      </trkpt>
      <trkpt lat="46.35125" lon="-0.45362">
        <ele>48</ele>
        <time>2025-02-16T16:49:53.016Z</time>
      </trkpt>
      <trkpt lat="46.35125" lon="-0.45362">
        <ele>47.46</ele>
        <time>2025-02-16T16:49:57.066Z</time>
      </trkpt>
      <trkpt lat="46.35116" lon="-0.45367">
        <ele>46.91</ele>
        <time>2025-02-16T16:50:01.118Z</time>
      </trkpt>
      <trkpt lat="46.35106" lon="-0.45372">
        <ele>46.34</ele>
        <time>2025-02-16T16:50:05.172Z</time>
      </trkpt>
      <trkpt lat="46.35087" lon="-0.45389">
        <ele>45.71</ele>
        <time>2025-02-16T16:50:09.230Z</time>
      </trkpt>
      <trkpt lat="46.35072" lon="-0.45413">
        <ele>45.02</ele>
        <time>2025-02-16T16:50:13.293Z</time>
      </trkpt>
      <trkpt lat="46.3506" lon="-0.4544">
        <ele>44.3</ele>
        <time>2025-02-16T16:50:17.360Z</time>
      </trkpt>
      <trkpt lat="46.35047" lon="-0.45468">
        <ele>43.6</ele>
        <time>2025-02-16T16:50:21.432Z</time>
      </trkpt>
      <trkpt lat="46.35035" lon="-0.45495">
        <ele>42.97</ele>
        <time>2025-02-16T16:50:25.508Z</time>
      </trkpt>
      <trkpt lat="46.35035" lon="-0.45495">
        <ele>42.45</ele>
        <time>2025-02-16T16:50:29.584Z</time>
      </trkpt>
      <trkpt lat="46.35025" lon="-0.45517">
        <ele>41.89</ele>
        <time>2025-02-16T16:50:33.664Z</time>
      </trkpt>
      <trkpt lat="46.35014" lon="-0.4554">
        <ele>41.44</ele>
        <time>2025-02-16T16:50:37.748Z</time>
      </trkpt>
      <trkpt lat="46.35003" lon="-0.45555">
        <ele>41.07</ele>
        <time>2025-02-16T16:50:41.835Z</time>
      </trkpt>
      <trkpt lat="46.35003" lon="-0.45555">
        <ele>40.7</ele>
        <time>2025-02-16T16:50:45.922Z</time>
      </trkpt>
      <trkpt lat="46.3498" lon="-0.45582">
        <ele>40.41</ele>
        <time>2025-02-16T16:50:50.015Z</time>
      </trkpt>
      <trkpt lat="46.34956" lon="-0.45609">
        <ele>40.03</ele>
        <time>2025-02-16T16:50:54.114Z</time>
      </trkpt>
      <trkpt lat="46.34932" lon="-0.45636">
        <ele>39.77</ele>
        <time>2025-02-16T16:50:58.219Z</time>
      </trkpt>
      <trkpt lat="46.34919" lon="-0.45656">
        <ele>39.54</ele>
        <time>2025-02-16T16:51:02.328Z</time>
      </trkpt>
      <trkpt lat="46.34907" lon="-0.45675">
        <ele>39.31</ele>
        <time>2025-02-16T16:51:06.440Z</time>
      </trkpt>
      <trkpt lat="46.34894" lon="-0.45707">
        <ele>39.08</ele>
        <time>2025-02-16T16:51:10.558Z</time>
      </trkpt>
      <trkpt lat="46.34881" lon="-0.45739">
        <ele>38.86</ele>
        <time>2025-02-16T16:51:14.681Z</time>
      </trkpt>
      <trkpt lat="46.34862" lon="-0.45765">
        <ele>38.67</ele>
        <time>2025-02-16T16:51:18.809Z</time>
      </trkpt>
      <trkpt lat="46.34841" lon="-0.45788">
        <ele>38.42</ele>
        <time>2025-02-16T16:51:22.942Z</time>
      </trkpt>
      <trkpt lat="46.34821" lon="-0.45811">
        <ele>38.12</ele>
        <time>2025-02-16T16:51:27.080Z</time>
      </trkpt>
      <trkpt lat="46.34801" lon="-0.45834">
        <ele>37.77</ele>
        <time>2025-02-16T16:51:31.223Z</time>
      </trkpt>
      <trkpt lat="46.34779" lon="-0.45865">
        <ele>37.54</ele>
        <time>2025-02-16T16:51:35.373Z</time>
      </trkpt>
      <trkpt lat="46.34757" lon="-0.45897">
        <ele>37.19</ele>
        <time>2025-02-16T16:51:39.529Z</time>
      </trkpt>
      <trkpt lat="46.34735" lon="-0.45928">
        <ele>36.8</ele>
        <time>2025-02-16T16:51:43.691Z</time>
      </trkpt>
      <trkpt lat="46.34716" lon="-0.45955">
        <ele>36.39</ele>
        <time>2025-02-16T16:51:47.858Z</time>
      </trkpt>
      <trkpt lat="46.34698" lon="-0.45982">
        <ele>35.97</ele>
        <time>2025-02-16T16:51:52.031Z</time>
      </trkpt>
      <trkpt lat="46.34679" lon="-0.4601">
        <ele>35.51</ele>
        <time>2025-02-16T16:51:56.209Z</time>
      </trkpt>
      <trkpt lat="46.34661" lon="-0.46038">
        <ele>35.01</ele>
        <time>2025-02-16T16:52:00.392Z</time>
      </trkpt>
      <trkpt lat="46.34643" lon="-0.46065">
        <ele>34.47</ele>
        <time>2025-02-16T16:52:04.580Z</time>
      </trkpt>
      <trkpt lat="46.34656" lon="-0.46082">
        <ele>33.92</ele>
        <time>2025-02-16T16:52:08.772Z</time>
      </trkpt>
      <trkpt lat="46.34674" lon="-0.46105">
        <ele>33.24</ele>
        <time>2025-02-16T16:52:12.969Z</time>
      </trkpt>
      <trkpt lat="46.34692" lon="-0.46128">
        <ele>32.51</ele>
        <time>2025-02-16T16:52:17.171Z</time>
      </trkpt>
      <trkpt lat="46.34715" lon="-0.46153">
        <ele>31.71</ele>
        <time>2025-02-16T16:52:21.378Z</time>
      </trkpt>
      <trkpt lat="46.34738" lon="-0.46179">
        <ele>30.99</ele>
        <time>2025-02-16T16:52:25.591Z</time>
      </trkpt>
      <trkpt lat="46.34761" lon="-0.46205">
        <ele>30.19</ele>
        <time>2025-02-16T16:52:29.810Z</time>
      </trkpt>
      <trkpt lat="46.34784" lon="-0.46231">
        <ele>29.24</ele>
        <time>2025-02-16T16:52:34.035Z</time>
      </trkpt>
      <trkpt lat="46.34801" lon="-0.46251">
        <ele>28.26</ele>
        <time>2025-02-16T16:52:38.264Z</time>
      </trkpt>
      <trkpt lat="46.34819" lon="-0.46272">
        <ele>27.19</ele>
        <time>2025-02-16T16:52:42.498Z</time>
      </trkpt>
      <trkpt lat="46.34836" lon="-0.46293">
        <ele>26.16</ele>
        <time>2025-02-16T16:52:46.736Z</time>
      </trkpt>
      <trkpt lat="46.34836" lon="-0.46304">
        <ele>25.31</ele>
        <time>2025-02-16T16:52:50.976Z</time>
      </trkpt>
      <trkpt lat="46.34827" lon="-0.46327">
        <ele>24.55</ele>
        <time>2025-02-16T16:52:55.220Z</time>
      </trkpt>
      <trkpt lat="46.34819" lon="-0.46351">
        <ele>23.82</ele>
        <time>2025-02-16T16:52:59.467Z</time>
      </trkpt>
      <trkpt lat="46.34803" lon="-0.46384">
        <ele>23.16</ele>
        <time>2025-02-16T16:53:03.720Z</time>
      </trkpt>
      <trkpt lat="46.34791" lon="-0.46413">
        <ele>22.54</ele>
        <time>2025-02-16T16:53:07.977Z</time>
      </trkpt>
      <trkpt lat="46.34778" lon="-0.46441">
        <ele>21.97</ele>
        <time>2025-02-16T16:53:12.239Z</time>
      </trkpt>
      <trkpt lat="46.34767" lon="-0.46479">
        <ele>21.39</ele>
        <time>2025-02-16T16:53:16.507Z</time>
      </trkpt>
      <trkpt lat="46.34755" lon="-0.46516">
        <ele>20.86</ele>
        <time>2025-02-16T16:53:20.781Z</time>
      </trkpt>
      <trkpt lat="46.34744" lon="-0.46554">
        <ele>20.33</ele>
        <time>2025-02-16T16:53:25.060Z</time>
      </trkpt>
      <trkpt lat="46.34733" lon="-0.46591">
        <ele>19.83</ele>
        <time>2025-02-16T16:53:29.345Z</time>
      </trkpt>
      <trkpt lat="46.34756" lon="-0.4661">
        <ele>19.42</ele>
        <time>2025-02-16T16:53:33.635Z</time>
      </trkpt>
      <trkpt lat="46.34779" lon="-0.46629">
        <ele>19.09</ele>
        <time>2025-02-16T16:53:37.930Z</time>
      </trkpt>
      <trkpt lat="46.34802" lon="-0.46647">
        <ele>18.85</ele>
        <time>2025-02-16T16:53:42.231Z</time>
      </trkpt>
      <trkpt lat="46.34825" lon="-0.46666">
        <ele>18.62</ele>
        <time>2025-02-16T16:53:46.537Z</time>
      </trkpt>
      <trkpt lat="46.34841" lon="-0.4668">
        <ele>18.53</ele>
        <time>2025-02-16T16:53:50.847Z</time>
      </trkpt>
      <trkpt lat="46.34857" lon="-0.46694">
        <ele>18.56</ele>
        <time>2025-02-16T16:53:55.161Z</time>
      </trkpt>
      <trkpt lat="46.34874" lon="-0.46707">
        <ele>18.72</ele>
        <time>2025-02-16T16:53:59.478Z</time>
      </trkpt>
      <trkpt lat="46.34886" lon="-0.46683">
        <ele>18.76</ele>
        <time>2025-02-16T16:54:03.799Z</time>
      </trkpt>
      <trkpt lat="46.34886" lon="-0.46683">
        <ele>18.7</ele>
        <time>2025-02-16T16:54:08.120Z</time>
      </trkpt>
      <trkpt lat="46.349" lon="-0.46657">
        <ele>18.68</ele>
        <time>2025-02-16T16:54:12.446Z</time>
      </trkpt>
      <trkpt lat="46.34913" lon="-0.4663">
        <ele>18.61</ele>
        <time>2025-02-16T16:54:16.777Z</time>
      </trkpt>
      <trkpt lat="46.34924" lon="-0.46594">
        <ele>18.45</ele>
        <time>2025-02-16T16:54:21.113Z</time>
      </trkpt>
      <trkpt lat="46.34934" lon="-0.46559">
        <ele>18.27</ele>
        <time>2025-02-16T16:54:25.454Z</time>
      </trkpt>
      <trkpt lat="46.34947" lon="-0.46527">
        <ele>18.1</ele>
        <time>2025-02-16T16:54:29.800Z</time>
      </trkpt>
      <trkpt lat="46.3496" lon="-0.46496">
        <ele>17.93</ele>
        <time>2025-02-16T16:54:34.151Z</time>
      </trkpt>
      <trkpt lat="46.34973" lon="-0.46464">
        <ele>17.83</ele>
        <time>2025-02-16T16:54:38.508Z</time>
      </trkpt>
      <trkpt lat="46.3498" lon="-0.46439">
        <ele>17.69</ele>
        <time>2025-02-16T16:54:42.868Z</time>
      </trkpt>
      <trkpt lat="46.34986" lon="-0.46413">
        <ele>17.53</ele>
        <time>2025-02-16T16:54:47.232Z</time>
      </trkpt>
      <trkpt lat="46.34992" lon="-0.46376">
        <ele>17.33</ele>
        <time>2025-02-16T16:54:51.601Z</time>
      </trkpt>
      <trkpt lat="46.34999" lon="-0.4634">
        <ele>17.14</ele>
        <time>2025-02-16T16:54:55.976Z</time>
      </trkpt>
      <trkpt lat="46.35005" lon="-0.46304">
        <ele>16.94</ele>
        <time>2025-02-16T16:55:00.356Z</time>
      </trkpt>
      <trkpt lat="46.35005" lon="-0.46295">
        <ele>16.76</ele>
        <time>2025-02-16T16:55:04.737Z</time>
      </trkpt>
      <trkpt lat="46.34995" lon="-0.46274">
        <ele>16.57</ele>
        <time>2025-02-16T16:55:09.122Z</time>
      </trkpt>
      <trkpt lat="46.34992" lon="-0.46252">
        <ele>16.47</ele>
        <time>2025-02-16T16:55:13.510Z</time>
      </trkpt>
      <trkpt lat="46.34996" lon="-0.46218">
        <ele>16.4</ele>
        <time>2025-02-16T16:55:17.902Z</time>
      </trkpt>
      <trkpt lat="46.34999" lon="-0.46184">
        <ele>16.32</ele>
        <time>2025-02-16T16:55:22.299Z</time>
      </trkpt>
      <trkpt lat="46.35002" lon="-0.4615">
        <ele>16.31</ele>
        <time>2025-02-16T16:55:26.701Z</time>
      </trkpt>
      <trkpt lat="46.35005" lon="-0.46117">
        <ele>16.35</ele>
        <time>2025-02-16T16:55:31.108Z</time>
      </trkpt>
      <trkpt lat="46.35012" lon="-0.46076">
        <ele>16.46</ele>
        <time>2025-02-16T16:55:35.520Z</time>
      </trkpt>
      <trkpt lat="46.3502" lon="-0.46044">
        <ele>16.59</ele>
        <time>2025-02-16T16:55:39.937Z</time>
      </trkpt>
      <trkpt lat="46.35027" lon="-0.4604">
        <ele>16.81</ele>
        <time>2025-02-16T16:55:44.356Z</time>
      </trkpt>
      <trkpt lat="46.35027" lon="-0.4604">
        <ele>17.09</ele>
        <time>2025-02-16T16:55:48.775Z</time>
      </trkpt>
      <trkpt lat="46.35044" lon="-0.46045">
        <ele>17.47</ele>
        <time>2025-02-16T16:55:53.197Z</time>
      </trkpt>
      <trkpt lat="46.35046" lon="-0.46046">
        <ele>17.87</ele>
        <time>2025-02-16T16:55:57.619Z</time>
      </trkpt>
      <trkpt lat="46.35065" lon="-0.46059">
        <ele>18.41</ele>
        <time>2025-02-16T16:56:02.046Z</time>
      </trkpt>
      <trkpt lat="46.35087" lon="-0.46078">
        <ele>19.02</ele>
        <time>2025-02-16T16:56:06.478Z</time>
      </trkpt>
      <trkpt lat="46.35108" lon="-0.46098">
        <ele>19.66</ele>
        <time>2025-02-16T16:56:10.915Z</time>
      </trkpt>
      <trkpt lat="46.3513" lon="-0.46107">
        <ele>20.36</ele>
        <time>2025-02-16T16:56:15.356Z</time>
      </trkpt>
      <trkpt lat="46.35151" lon="-0.46116">
        <ele>21.03</ele>
        <time>2025-02-16T16:56:19.802Z</time>
      </trkpt>
      <trkpt lat="46.35173" lon="-0.46125">
        <ele>21.71</ele>
        <time>2025-02-16T16:56:24.252Z</time>
      </trkpt>
      <trkpt lat="46.35175" lon="-0.46145">
        <ele>22.31</ele>
        <time>2025-02-16T16:56:28.705Z</time>
      </trkpt>
      <trkpt lat="46.35153" lon="-0.46164">
        <ele>22.8</ele>
        <time>2025-02-16T16:56:33.163Z</time>
      </trkpt>
      <trkpt lat="46.35151" lon="-0.46171">
        <ele>23.37</ele>
        <time>2025-02-16T16:56:37.622Z</time>
      </trkpt>
      <trkpt lat="46.35158" lon="-0.46188">
        <ele>23.96</ele>
        <time>2025-02-16T16:56:42.084Z</time>
      </trkpt>
      <trkpt lat="46.35148" lon="-0.46197">
        <ele>24.5</ele>
        <time>2025-02-16T16:56:46.548Z</time>
      </trkpt>
      <trkpt lat="46.35143" lon="-0.46203">
        <ele>25.07</ele>
        <time>2025-02-16T16:56:51.013Z</time>
      </trkpt>
      <trkpt lat="46.35123" lon="-0.46231">
        <ele>25.64</ele>
        <time>2025-02-16T16:56:55.484Z</time>
      </trkpt>
      <trkpt lat="46.35113" lon="-0.46261">
        <ele>26.32</ele>
        <time>2025-02-16T16:56:59.960Z</time>
      </trkpt>
      <trkpt lat="46.35108" lon="-0.46291">
        <ele>27.04</ele>
        <time>2025-02-16T16:57:04.440Z</time>
      </trkpt>
      <trkpt lat="46.3511" lon="-0.46313">
        <ele>27.74</ele>
        <time>2025-02-16T16:57:08.923Z</time>
      </trkpt>
      <trkpt lat="46.35113" lon="-0.46336">
        <ele>28.45</ele>
        <time>2025-02-16T16:57:13.409Z</time>
      </trkpt>
      <trkpt lat="46.3511" lon="-0.46357">
        <ele>29.13</ele>
        <time>2025-02-16T16:57:17.898Z</time>
      </trkpt>
      <trkpt lat="46.35104" lon="-0.4638">
        <ele>29.85</ele>
        <time>2025-02-16T16:57:22.391Z</time>
      </trkpt>
      <trkpt lat="46.35098" lon="-0.46402">
        <ele>30.6</ele>
        <time>2025-02-16T16:57:26.887Z</time>
      </trkpt>
      <trkpt lat="46.35121" lon="-0.46419">
        <ele>31.44</ele>
        <time>2025-02-16T16:57:31.388Z</time>
      </trkpt>
      <trkpt lat="46.35132" lon="-0.46443">
        <ele>32.19</ele>
        <time>2025-02-16T16:57:35.893Z</time>
      </trkpt>
      <trkpt lat="46.35112" lon="-0.46464">
        <ele>32.96</ele>
        <time>2025-02-16T16:57:40.403Z</time>
      </trkpt>
      <trkpt lat="46.35091" lon="-0.46471">
        <ele>33.75</ele>
        <time>2025-02-16T16:57:44.917Z</time>
      </trkpt>
      <trkpt lat="46.35085" lon="-0.46516">
        <ele>34.69</ele>
        <time>2025-02-16T16:57:49.438Z</time>
      </trkpt>
      <trkpt lat="46.35084" lon="-0.46524">
        <ele>35.55</ele>
        <time>2025-02-16T16:57:53.960Z</time>
      </trkpt>
      <trkpt lat="46.35076" lon="-0.46568">
        <ele>36.54</ele>
        <time>2025-02-16T16:57:58.488Z</time>
      </trkpt>
      <trkpt lat="46.35068" lon="-0.46609">
        <ele>37.51</ele>
        <time>2025-02-16T16:58:03.022Z</time>
      </trkpt>
      <trkpt lat="46.35069" lon="-0.46609">
        <ele>38.36</ele>
        <time>2025-02-16T16:58:07.556Z</time>
      </trkpt>
      <trkpt lat="46.35072" lon="-0.46619">
        <ele>39.24</ele>
        <time>2025-02-16T16:58:12.092Z</time>
      </trkpt>
      <trkpt lat="46.35065" lon="-0.46625">
        <ele>40.1</ele>
        <time>2025-02-16T16:58:16.629Z</time>
      </trkpt>
      <trkpt lat="46.35057" lon="-0.46636">
        <ele>40.96</ele>
        <time>2025-02-16T16:58:21.169Z</time>
      </trkpt>
      <trkpt lat="46.35074" lon="-0.46649">
        <ele>41.85</ele>
        <time>2025-02-16T16:58:25.712Z</time>
      </trkpt>
      <trkpt lat="46.35092" lon="-0.46661">
        <ele>42.78</ele>
        <time>2025-02-16T16:58:30.259Z</time>
      </trkpt>
      <trkpt lat="46.35108" lon="-0.46673">
        <ele>43.74</ele>
        <time>2025-02-16T16:58:34.810Z</time>
      </trkpt>
      <trkpt lat="46.35125" lon="-0.46704">
        <ele>44.72</ele>
        <time>2025-02-16T16:58:39.367Z</time>
      </trkpt>
      <trkpt lat="46.35143" lon="-0.46735">
        <ele>45.63</ele>
        <time>2025-02-16T16:58:43.929Z</time>
      </trkpt>
      <trkpt lat="46.35149" lon="-0.46759">
        <ele>46.52</ele>
        <time>2025-02-16T16:58:48.495Z</time>
      </trkpt>
      <trkpt lat="46.35155" lon="-0.46782">
        <ele>47.38</ele>
        <time>2025-02-16T16:58:53.064Z</time>
      </trkpt>
      <trkpt lat="46.35142" lon="-0.468">
        <ele>48.23</ele>
        <time>2025-02-16T16:58:57.637Z</time>
      </trkpt>
      <trkpt lat="46.35122" lon="-0.46828">
        <ele>49.02</ele>
        <time>2025-02-16T16:59:02.215Z</time>
      </trkpt>
      <trkpt lat="46.35102" lon="-0.46855">
        <ele>49.77</ele>
        <time>2025-02-16T16:59:06.799Z</time>
      </trkpt>
      <trkpt lat="46.35082" lon="-0.46876">
        <ele>50.53</ele>
        <time>2025-02-16T16:59:11.388Z</time>
      </trkpt>
      <trkpt lat="46.35062" lon="-0.46898">
        <ele>51.27</ele>
        <time>2025-02-16T16:59:15.982Z</time>
      </trkpt>
      <trkpt lat="46.35042" lon="-0.46919">
        <ele>52.02</ele>
        <time>2025-02-16T16:59:20.581Z</time>
      </trkpt>
      <trkpt lat="46.35022" lon="-0.46943">
        <ele>52.78</ele>
        <time>2025-02-16T16:59:25.185Z</time>
      </trkpt>
      <trkpt lat="46.35016" lon="-0.46958">
        <ele>53.52</ele>
        <time>2025-02-16T16:59:29.791Z</time>
      </trkpt>
      <trkpt lat="46.35005" lon="-0.46967">
        <ele>54.22</ele>
        <time>2025-02-16T16:59:34.400Z</time>
      </trkpt>
      <trkpt lat="46.35018" lon="-0.4698">
        <ele>54.85</ele>
        <time>2025-02-16T16:59:39.012Z</time>
      </trkpt>
      <trkpt lat="46.35037" lon="-0.47001">
        <ele>55.46</ele>
        <time>2025-02-16T16:59:43.629Z</time>
      </trkpt>
      <trkpt lat="46.3505" lon="-0.47022">
        <ele>56.09</ele>
        <time>2025-02-16T16:59:48.250Z</time>
      </trkpt>
      <trkpt lat="46.3507" lon="-0.47055">
        <ele>56.75</ele>
        <time>2025-02-16T16:59:52.877Z</time>
      </trkpt>
      <trkpt lat="46.3508" lon="-0.4708">
        <ele>57.34</ele>
        <time>2025-02-16T16:59:57.508Z</time>
      </trkpt>
      <trkpt lat="46.35091" lon="-0.47106">
        <ele>57.8</ele>
        <time>2025-02-16T17:00:02.143Z</time>
      </trkpt>
      <trkpt lat="46.35091" lon="-0.47106">
        <ele>58.21</ele>
        <time>2025-02-16T17:00:06.778Z</time>
      </trkpt>
      <trkpt lat="46.35105" lon="-0.47134">
        <ele>58.58</ele>
        <time>2025-02-16T17:00:11.418Z</time>
      </trkpt>
      <trkpt lat="46.35119" lon="-0.47162">
        <ele>58.93</ele>
        <time>2025-02-16T17:00:16.062Z</time>
      </trkpt>
      <trkpt lat="46.35136" lon="-0.47195">
        <ele>59.22</ele>
        <time>2025-02-16T17:00:20.712Z</time>
      </trkpt>
      <trkpt lat="46.35153" lon="-0.47227">
        <ele>59.44</ele>
        <time>2025-02-16T17:00:25.368Z</time>
      </trkpt>
      <trkpt lat="46.35171" lon="-0.4726">
        <ele>59.55</ele>
        <time>2025-02-16T17:00:30.030Z</time>
      </trkpt>
      <trkpt lat="46.35188" lon="-0.47293">
        <ele>59.56</ele>
        <time>2025-02-16T17:00:34.697Z</time>
      </trkpt>
      <trkpt lat="46.35177" lon="-0.47303">
        <ele>59.48</ele>
        <time>2025-02-16T17:00:39.367Z</time>
      </trkpt>
      <trkpt lat="46.35164" lon="-0.47319">
        <ele>59.3</ele>
        <time>2025-02-16T17:00:44.040Z</time>
      </trkpt>
      <trkpt lat="46.35151" lon="-0.47332">
        <ele>59.01</ele>
        <time>2025-02-16T17:00:48.716Z</time>
      </trkpt>
      <trkpt lat="46.35138" lon="-0.47346">
        <ele>58.6</ele>
        <time>2025-02-16T17:00:53.396Z</time>
      </trkpt>
      <trkpt lat="46.35128" lon="-0.47381">
        <ele>58.04</ele>
        <time>2025-02-16T17:00:58.081Z</time>
      </trkpt>
      <trkpt lat="46.3512" lon="-0.4741">
        <ele>57.37</ele>
        <time>2025-02-16T17:01:02.770Z</time>
      </trkpt>
      <trkpt lat="46.35113" lon="-0.47439">
        <ele>56.68</ele>
        <time>2025-02-16T17:01:07.463Z</time>
      </trkpt>
      <trkpt lat="46.35113" lon="-0.47439">
        <ele>55.97</ele>
        <time>2025-02-16T17:01:12.156Z</time>
      </trkpt>
      <trkpt lat="46.35102" lon="-0.47479">
        <ele>55.17</ele>
        <time>2025-02-16T17:01:16.855Z</time>
      </trkpt>
      <trkpt lat="46.35091" lon="-0.47519">
        <ele>54.32</ele>
        <time>2025-02-16T17:01:21.560Z</time>
      </trkpt>
      <trkpt lat="46.3508" lon="-0.4756">
        <ele>53.36</ele>
        <time>2025-02-16T17:01:26.271Z</time>
      </trkpt>
      <trkpt lat="46.3507" lon="-0.476">
        <ele>52.34</ele>
        <time>2025-02-16T17:01:30.988Z</time>
      </trkpt>
      <trkpt lat="46.35061" lon="-0.47641">
        <ele>51.34</ele>
        <time>2025-02-16T17:01:35.711Z</time>
      </trkpt>
      <trkpt lat="46.35053" lon="-0.47683">
        <ele>50.33</ele>
        <time>2025-02-16T17:01:40.440Z</time>
      </trkpt>
      <trkpt lat="46.35045" lon="-0.47725">
        <ele>49.28</ele>
        <time>2025-02-16T17:01:45.175Z</time>
      </trkpt>
      <trkpt lat="46.35037" lon="-0.47767">
        <ele>48.26</ele>
        <time>2025-02-16T17:01:49.916Z</time>
      </trkpt>
      <trkpt lat="46.35029" lon="-0.47808">
        <ele>47.28</ele>
        <time>2025-02-16T17:01:54.663Z</time>
      </trkpt>
      <trkpt lat="46.35037" lon="-0.47812">
        <ele>46.46</ele>
        <time>2025-02-16T17:01:59.412Z</time>
      </trkpt>
      <trkpt lat="46.35037" lon="-0.47837">
        <ele>45.62</ele>
        <time>2025-02-16T17:02:04.165Z</time>
      </trkpt>
      <trkpt lat="46.35037" lon="-0.47862">
        <ele>44.88</ele>
        <time>2025-02-16T17:02:08.921Z</time>
      </trkpt>
      <trkpt lat="46.35037" lon="-0.47894">
        <ele>44.2</ele>
        <time>2025-02-16T17:02:13.681Z</time>
      </trkpt>
      <trkpt lat="46.35039" lon="-0.47937">
        <ele>43.53</ele>
        <time>2025-02-16T17:02:18.447Z</time>
      </trkpt>
      <trkpt lat="46.3504" lon="-0.47979">
        <ele>42.89</ele>
        <time>2025-02-16T17:02:23.219Z</time>
      </trkpt>
      <trkpt lat="46.35044" lon="-0.48022">
        <ele>42.37</ele>
        <time>2025-02-16T17:02:27.997Z</time>
      </trkpt>
      <trkpt lat="46.35046" lon="-0.48047">
        <ele>41.92</ele>
        <time>2025-02-16T17:02:32.779Z</time>
      </trkpt>
      <trkpt lat="46.35048" lon="-0.48072">
        <ele>41.52</ele>
        <time>2025-02-16T17:02:37.564Z</time>
      </trkpt>
      <trkpt lat="46.3505" lon="-0.48096">
        <ele>41.14</ele>
        <time>2025-02-16T17:02:42.353Z</time>
      </trkpt>
      <trkpt lat="46.35052" lon="-0.48121">
        <ele>40.87</ele>
        <time>2025-02-16T17:02:47.145Z</time>
      </trkpt>
      <trkpt lat="46.35048" lon="-0.48138">
        <ele>40.69</ele>
        <time>2025-02-16T17:02:51.940Z</time>
      </trkpt>
      <trkpt lat="46.3505" lon="-0.48151">
        <ele>40.63</ele>
        <time>2025-02-16T17:02:56.736Z</time>
      </trkpt>
      <trkpt lat="46.35061" lon="-0.48183">
        <ele>40.7</ele>
        <time>2025-02-16T17:03:01.537Z</time>
      </trkpt>
      <trkpt lat="46.35061" lon="-0.48187">
        <ele>40.83</ele>
        <time>2025-02-16T17:03:06.339Z</time>
      </trkpt>
      <trkpt lat="46.35065" lon="-0.48227">
        <ele>41.05</ele>
        <time>2025-02-16T17:03:11.146Z</time>
      </trkpt>
      <trkpt lat="46.35068" lon="-0.48267">
        <ele>41.34</ele>
        <time>2025-02-16T17:03:15.959Z</time>
      </trkpt>
      <trkpt lat="46.35072" lon="-0.48307">
        <ele>41.67</ele>
        <time>2025-02-16T17:03:20.778Z</time>
      </trkpt>
      <trkpt lat="46.35075" lon="-0.48347">
        <ele>42</ele>
        <time>2025-02-16T17:03:25.602Z</time>
      </trkpt>
      <trkpt lat="46.35078" lon="-0.48387">
        <ele>42.4</ele>
        <time>2025-02-16T17:03:30.432Z</time>
      </trkpt>
      <trkpt lat="46.35085" lon="-0.48425">
        <ele>42.81</ele>
        <time>2025-02-16T17:03:35.267Z</time>
      </trkpt>
      <trkpt lat="46.35091" lon="-0.48463">
        <ele>43.27</ele>
        <time>2025-02-16T17:03:40.108Z</time>
      </trkpt>
      <trkpt lat="46.35098" lon="-0.48501">
        <ele>43.95</ele>
        <time>2025-02-16T17:03:44.954Z</time>
      </trkpt>
      <trkpt lat="46.35104" lon="-0.4852">
        <ele>44.6</ele>
        <time>2025-02-16T17:03:49.803Z</time>
      </trkpt>
      <trkpt lat="46.3512" lon="-0.48537">
        <ele>45.24</ele>
        <time>2025-02-16T17:03:54.656Z</time>
      </trkpt>
      <trkpt lat="46.35136" lon="-0.48554">
        <ele>45.78</ele>
        <time>2025-02-16T17:03:59.513Z</time>
      </trkpt>
      <trkpt lat="46.35161" lon="-0.48579">
        <ele>46.3</ele>
        <time>2025-02-16T17:04:04.376Z</time>
      </trkpt>
      <trkpt lat="46.35185" lon="-0.48603">
        <ele>46.77</ele>
        <time>2025-02-16T17:04:09.245Z</time>
      </trkpt>
      <trkpt lat="46.35209" lon="-0.48627">
        <ele>47.17</ele>
        <time>2025-02-16T17:04:14.120Z</time>
      </trkpt>
      <trkpt lat="46.35198" lon="-0.48644">
        <ele>47.34</ele>
        <time>2025-02-16T17:04:18.998Z</time>
      </trkpt>
      <trkpt lat="46.35179" lon="-0.48671">
        <ele>47.33</ele>
        <time>2025-02-16T17:04:23.881Z</time>
      </trkpt>
      <trkpt lat="46.3516" lon="-0.48699">
        <ele>47.14</ele>
        <time>2025-02-16T17:04:28.770Z</time>
      </trkpt>
      <trkpt lat="46.35141" lon="-0.48726">
        <ele>46.9</ele>
        <time>2025-02-16T17:04:33.664Z</time>
      </trkpt>
      <trkpt lat="46.35122" lon="-0.48753">
        <ele>46.54</ele>
        <time>2025-02-16T17:04:38.563Z</time>
      </trkpt>
      <trkpt lat="46.35103" lon="-0.48781">
        <ele>46.05</ele>
        <time>2025-02-16T17:04:43.468Z</time>
      </trkpt>
      <trkpt lat="46.35085" lon="-0.48808">
        <ele>45.33</ele>
        <time>2025-02-16T17:04:48.378Z</time>
      </trkpt>
      <trkpt lat="46.35087" lon="-0.48827">
        <ele>44.69</ele>
        <time>2025-02-16T17:04:53.291Z</time>
      </trkpt>
      <trkpt lat="46.35096" lon="-0.48855">
        <ele>43.83</ele>
        <time>2025-02-16T17:04:58.208Z</time>
      </trkpt>
      <trkpt lat="46.35106" lon="-0.48883">
        <ele>42.98</ele>
        <time>2025-02-16T17:05:03.129Z</time>
      </trkpt>
      <trkpt lat="46.35106" lon="-0.48896">
        <ele>42.1</ele>
        <time>2025-02-16T17:05:08.052Z</time>
      </trkpt>
      <trkpt lat="46.351" lon="-0.48904">
        <ele>41.14</ele>
        <time>2025-02-16T17:05:12.977Z</time>
      </trkpt>
      <trkpt lat="46.35074" lon="-0.48921">
        <ele>40.01</ele>
        <time>2025-02-16T17:05:17.907Z</time>
      </trkpt>
      <trkpt lat="46.35049" lon="-0.48939">
        <ele>38.91</ele>
        <time>2025-02-16T17:05:22.843Z</time>
      </trkpt>
      <trkpt lat="46.35024" lon="-0.48956">
        <ele>37.91</ele>
        <time>2025-02-16T17:05:27.785Z</time>
      </trkpt>
      <trkpt lat="46.34999" lon="-0.48973">
        <ele>36.93</ele>
        <time>2025-02-16T17:05:32.732Z</time>
      </trkpt>
      <trkpt lat="46.34979" lon="-0.48961">
        <ele>35.98</ele>
        <time>2025-02-16T17:05:37.684Z</time>
      </trkpt>
      <trkpt lat="46.34959" lon="-0.48949">
        <ele>34.95</ele>
        <time>2025-02-16T17:05:42.640Z</time>
      </trkpt>
      <trkpt lat="46.34939" lon="-0.48936">
        <ele>33.93</ele>
        <time>2025-02-16T17:05:47.600Z</time>
      </trkpt>
      <trkpt lat="46.34912" lon="-0.48933">
        <ele>32.84</ele>
        <time>2025-02-16T17:05:52.566Z</time>
      </trkpt>
      <trkpt lat="46.34885" lon="-0.4893">
        <ele>31.89</ele>
        <time>2025-02-16T17:05:57.537Z</time>
      </trkpt>
      <trkpt lat="46.34877" lon="-0.48939">
        <ele>31.12</ele>
        <time>2025-02-16T17:06:02.510Z</time>
      </trkpt>
      <trkpt lat="46.34872" lon="-0.48964">
        <ele>30.44</ele>
        <time>2025-02-16T17:06:07.487Z</time>
      </trkpt>
      <trkpt lat="46.34864" lon="-0.49003">
        <ele>29.85</ele>
        <time>2025-02-16T17:06:12.469Z</time>
      </trkpt>
      <trkpt lat="46.34853" lon="-0.49035">
        <ele>29.37</ele>
        <time>2025-02-16T17:06:17.456Z</time>
      </trkpt>
      <trkpt lat="46.34839" lon="-0.49066">
        <ele>29.04</ele>
        <time>2025-02-16T17:06:22.448Z</time>
      </trkpt>
      <trkpt lat="46.34825" lon="-0.49096">
        <ele>28.8</ele>
        <time>2025-02-16T17:06:27.446Z</time>
      </trkpt>
      <trkpt lat="46.3481" lon="-0.49127">
        <ele>28.58</ele>
        <time>2025-02-16T17:06:32.449Z</time>
      </trkpt>
      <trkpt lat="46.34796" lon="-0.49157">
        <ele>28.49</ele>
        <time>2025-02-16T17:06:37.457Z</time>
      </trkpt>
      <trkpt lat="46.34782" lon="-0.49187">
        <ele>28.46</ele>
        <time>2025-02-16T17:06:42.470Z</time>
      </trkpt>
      <trkpt lat="46.34772" lon="-0.49211">
        <ele>28.57</ele>
        <time>2025-02-16T17:06:47.487Z</time>
      </trkpt>
      <trkpt lat="46.34763" lon="-0.49235">
        <ele>28.78</ele>
        <time>2025-02-16T17:06:52.507Z</time>
      </trkpt>
      <trkpt lat="46.34749" lon="-0.49274">
        <ele>29.07</ele>
        <time>2025-02-16T17:06:57.533Z</time>
      </trkpt>
      <trkpt lat="46.34735" lon="-0.49314">
        <ele>29.48</ele>
        <time>2025-02-16T17:07:02.566Z</time>
      </trkpt>
      <trkpt lat="46.34722" lon="-0.49354">
        <ele>30.02</ele>
        <time>2025-02-16T17:07:07.605Z</time>
      </trkpt>
      <trkpt lat="46.34708" lon="-0.49394">
        <ele>30.65</ele>
        <time>2025-02-16T17:07:12.650Z</time>
      </trkpt>
      <trkpt lat="46.34694" lon="-0.49434">
        <ele>31.26</ele>
        <time>2025-02-16T17:07:17.701Z</time>
      </trkpt>
      <trkpt lat="46.34681" lon="-0.49473">
        <ele>31.92</ele>
        <time>2025-02-16T17:07:22.758Z</time>
      </trkpt>
      <trkpt lat="46.34667" lon="-0.49513">
        <ele>32.55</ele>
        <time>2025-02-16T17:07:27.821Z</time>
      </trkpt>
      <trkpt lat="46.34653" lon="-0.49552">
        <ele>33.29</ele>
        <time>2025-02-16T17:07:32.890Z</time>
      </trkpt>
      <trkpt lat="46.34672" lon="-0.49565">
        <ele>34.32</ele>
        <time>2025-02-16T17:07:37.964Z</time>
      </trkpt>
      <trkpt lat="46.34672" lon="-0.49565">
        <ele>35.2</ele>
        <time>2025-02-16T17:07:43.038Z</time>
      </trkpt>
      <trkpt lat="46.347" lon="-0.49585">
        <ele>36.35</ele>
        <time>2025-02-16T17:07:48.118Z</time>
      </trkpt>
      <trkpt lat="46.34727" lon="-0.49604">
        <ele>37.49</ele>
        <time>2025-02-16T17:07:53.204Z</time>
      </trkpt>
      <trkpt lat="46.34755" lon="-0.49623">
        <ele>38.5</ele>
        <time>2025-02-16T17:07:58.296Z</time>
      </trkpt>
      <trkpt lat="46.34782" lon="-0.49642">
        <ele>39.45</ele>
        <time>2025-02-16T17:08:03.394Z</time>
      </trkpt>
      <trkpt lat="46.34791" lon="-0.49638">
        <ele>40.31</ele>
        <time>2025-02-16T17:08:08.494Z</time>
      </trkpt>
      <trkpt lat="46.34804" lon="-0.49597">
        <ele>41.14</ele>
        <time>2025-02-16T17:08:13.600Z</time>
      </trkpt>
      <trkpt lat="46.34818" lon="-0.49557">
        <ele>41.95</ele>
        <time>2025-02-16T17:08:18.712Z</time>
      </trkpt>
      <trkpt lat="46.34832" lon="-0.49516">
        <ele>42.63</ele>
        <time>2025-02-16T17:08:23.831Z</time>
      </trkpt>
      <trkpt lat="46.34846" lon="-0.49475">
        <ele>43.25</ele>
        <time>2025-02-16T17:08:28.956Z</time>
      </trkpt>
      <trkpt lat="46.3486" lon="-0.49435">
        <ele>43.9</ele>
        <time>2025-02-16T17:08:34.087Z</time>
      </trkpt>
      <trkpt lat="46.34873" lon="-0.49394">
        <ele>44.52</ele>
        <time>2025-02-16T17:08:39.225Z</time>
      </trkpt>
      <trkpt lat="46.34887" lon="-0.49353">
        <ele>45.01</ele>
        <time>2025-02-16T17:08:44.369Z</time>
      </trkpt>
      <trkpt lat="46.34901" lon="-0.49313">
        <ele>45.32</ele>
        <time>2025-02-16T17:08:49.519Z</time>
      </trkpt>
      <trkpt lat="46.34915" lon="-0.49272">
        <ele>45.59</ele>
        <time>2025-02-16T17:08:54.675Z</time>
      </trkpt>
      <trkpt lat="46.34929" lon="-0.49231">
        <ele>45.92</ele>
        <time>2025-02-16T17:08:59.838Z</time>
      </trkpt>
      <trkpt lat="46.34942" lon="-0.49191">
        <ele>46.24</ele>
        <time>2025-02-16T17:09:05.007Z</time>
      </trkpt>
      <trkpt lat="46.34956" lon="-0.49151">
        <ele>46.6</ele>
        <time>2025-02-16T17:09:10.182Z</time>
      </trkpt>
      <trkpt lat="46.34967" lon="-0.49134">
        <ele>46.88</ele>
        <time>2025-02-16T17:09:15.360Z</time>
      </trkpt>
      <trkpt lat="46.34971" lon="-0.49158">
        <ele>47.18</ele>
        <time>2025-02-16T17:09:20.542Z</time>
      </trkpt>
      <trkpt lat="46.34976" lon="-0.49183">
        <ele>47.51</ele>
        <time>2025-02-16T17:09:25.727Z</time>
      </trkpt>
      <trkpt lat="46.34982" lon="-0.49221">
        <ele>47.85</ele>
        <time>2025-02-16T17:09:30.918Z</time>
      </trkpt>
      <trkpt lat="46.34989" lon="-0.49259">
        <ele>48.22</ele>
        <time>2025-02-16T17:09:36.114Z</time>
      </trkpt>
      <trkpt lat="46.34996" lon="-0.49298">
        <ele>48.51</ele>
        <time>2025-02-16T17:09:41.316Z</time>
      </trkpt>
      <trkpt lat="46.35003" lon="-0.49336">
        <ele>48.64</ele>
        <time>2025-02-16T17:09:46.523Z</time>
      </trkpt>
      <trkpt lat="46.35003" lon="-0.49336">
        <ele>48.82</ele>
        <time>2025-02-16T17:09:51.730Z</time>
      </trkpt>
      <trkpt lat="46.35007" lon="-0.49363">
        <ele>49</ele>
        <time>2025-02-16T17:09:56.941Z</time>
      </trkpt>
      <trkpt lat="46.35012" lon="-0.49391">
        <ele>49.17</ele>
        <time>2025-02-16T17:10:02.156Z</time>
      </trkpt>
      <trkpt lat="46.35012" lon="-0.49424">
        <ele>49.32</ele>
        <time>2025-02-16T17:10:07.376Z</time>
      </trkpt>
      <trkpt lat="46.35013" lon="-0.49456">
        <ele>49.51</ele>
        <time>2025-02-16T17:10:12.600Z</time>
      </trkpt>
      <trkpt lat="46.35014" lon="-0.49488">
        <ele>49.65</ele>
        <time>2025-02-16T17:10:17.828Z</time>
      </trkpt>
      <trkpt lat="46.3502" lon="-0.49525">
        <ele>49.74</ele>
        <time>2025-02-16T17:10:23.062Z</time>
      </trkpt>
      <trkpt lat="46.35026" lon="-0.49563">
        <ele>49.82</ele>
        <time>2025-02-16T17:10:28.301Z</time>
      </trkpt>
      <trkpt lat="46.35032" lon="-0.496">
        <ele>49.84</ele>
        <time>2025-02-16T17:10:33.545Z</time>
      </trkpt>
      <trkpt lat="46.35038" lon="-0.49638">
        <ele>49.89</ele>
        <time>2025-02-16T17:10:38.795Z</time>
      </trkpt>
      <trkpt lat="46.35044" lon="-0.49675">
        <ele>50.03</ele>
        <time>2025-02-16T17:10:44.050Z</time>
      </trkpt>
      <trkpt lat="46.35046" lon="-0.49707">
        <ele>50.11</ele>
        <time>2025-02-16T17:10:49.310Z</time>
      </trkpt>
      <trkpt lat="46.35048" lon="-0.49739">
        <ele>50.27</ele>
        <time>2025-02-16T17:10:54.574Z</time>
      </trkpt>
      <trkpt lat="46.35045" lon="-0.49782">
        <ele>50.51</ele>
        <time>2025-02-16T17:10:59.844Z</time>
      </trkpt>
      <trkpt lat="46.35042" lon="-0.49825">
        <ele>50.74</ele>
        <time>2025-02-16T17:11:05.120Z</time>
      </trkpt>
      <trkpt lat="46.35034" lon="-0.4986">
        <ele>51</ele>
        <time>2025-02-16T17:11:10.401Z</time>
      </trkpt>
      <trkpt lat="46.35026" lon="-0.49896">
        <ele>51.29</ele>
        <time>2025-02-16T17:11:15.687Z</time>
      </trkpt>
      <trkpt lat="46.35019" lon="-0.49932">
        <ele>51.59</ele>
        <time>2025-02-16T17:11:20.979Z</time>
      </trkpt>
      <trkpt lat="46.35011" lon="-0.49968">
        <ele>51.82</ele>
        <time>2025-02-16T17:11:26.276Z</time>
      </trkpt>
      <trkpt lat="46.35003" lon="-0.50003">
        <ele>52.04</ele>
        <time>2025-02-16T17:11:31.578Z</time>
      </trkpt>
      <trkpt lat="46.34998" lon="-0.50045">
        <ele>52.43</ele>
        <time>2025-02-16T17:11:36.886Z</time>
      </trkpt>
      <trkpt lat="46.34992" lon="-0.50087">
        <ele>52.77</ele>
        <time>2025-02-16T17:11:42.200Z</time>
      </trkpt>
      <trkpt lat="46.3499" lon="-0.50119">
        <ele>53.07</ele>
        <time>2025-02-16T17:11:47.518Z</time>
      </trkpt>
      <trkpt lat="46.34988" lon="-0.50151">
        <ele>53.33</ele>
        <time>2025-02-16T17:11:52.841Z</time>
      </trkpt>
      <trkpt lat="46.34992" lon="-0.50182">
        <ele>53.59</ele>
        <time>2025-02-16T17:11:58.168Z</time>
      </trkpt>
      <trkpt lat="46.34997" lon="-0.50213">
        <ele>53.82</ele>
        <time>2025-02-16T17:12:03.499Z</time>
      </trkpt>
      <trkpt lat="46.34997" lon="-0.50213">
        <ele>54.02</ele>
        <time>2025-02-16T17:12:08.830Z</time>
      </trkpt>
      <trkpt lat="46.35018" lon="-0.50231">
        <ele>54.28</ele>
        <time>2025-02-16T17:12:14.166Z</time>
      </trkpt>
      <trkpt lat="46.3504" lon="-0.50249">
        <ele>54.47</ele>
        <time>2025-02-16T17:12:19.507Z</time>
      </trkpt>
      <trkpt lat="46.35061" lon="-0.50267">
        <ele>54.66</ele>
        <time>2025-02-16T17:12:24.853Z</time>
      </trkpt>
      <trkpt lat="46.35078" lon="-0.50283">
        <ele>54.72</ele>
        <time>2025-02-16T17:12:30.203Z</time>
      </trkpt>
      <trkpt lat="46.35095" lon="-0.50299">
        <ele>54.77</ele>
        <time>2025-02-16T17:12:35.557Z</time>
      </trkpt>
      <trkpt lat="46.35112" lon="-0.50319">
        <ele>54.79</ele>
        <time>2025-02-16T17:12:40.916Z</time>
      </trkpt>
      <trkpt lat="46.35128" lon="-0.50339">
        <ele>54.79</ele>
        <time>2025-02-16T17:12:46.279Z</time>
      </trkpt>
      <trkpt lat="46.35145" lon="-0.50359">
        <ele>54.72</ele>
        <time>2025-02-16T17:12:51.646Z</time>
      </trkpt>
      <trkpt lat="46.35151" lon="-0.50361">
        <ele>54.73</ele>
        <time>2025-02-16T17:12:57.015Z</time>
      </trkpt>
      <trkpt lat="46.35158" lon="-0.50361">
        <ele>54.75</ele>
        <time>2025-02-16T17:13:02.385Z</time>
      </trkpt>
      <trkpt lat="46.35166" lon="-0.50368">
        <ele>54.79</ele>
        <time>2025-02-16T17:13:07.757Z</time>
      </trkpt>
      <trkpt lat="46.35182" lon="-0.50386">
        <ele>54.88</ele>
        <time>2025-02-16T17:13:13.133Z</time>
      </trkpt>
      <trkpt lat="46.35198" lon="-0.50404">
        <ele>54.88</ele>
        <time>2025-02-16T17:13:18.513Z</time>
      </trkpt>
      <trkpt lat="46.3521" lon="-0.5042">
        <ele>54.9</ele>
        <time>2025-02-16T17:13:23.896Z</time>
      </trkpt>
      <trkpt lat="46.35221" lon="-0.50437">
        <ele>54.88</ele>
        <time>2025-02-16T17:13:29.282Z</time>
      </trkpt>
      <trkpt lat="46.35233" lon="-0.50455">
        <ele>54.87</ele>
        <time>2025-02-16T17:13:34.672Z</time>
      </trkpt>
      <trkpt lat="46.35246" lon="-0.50473">
        <ele>54.99</ele>
        <time>2025-02-16T17:13:40.065Z</time>
      </trkpt>
      <trkpt lat="46.35265" lon="-0.50496">
        <ele>55.12</ele>
        <time>2025-02-16T17:13:45.464Z</time>
      </trkpt>
      <trkpt lat="46.35284" lon="-0.5052">
        <ele>55.28</ele>
        <time>2025-02-16T17:13:50.868Z</time>
      </trkpt>
      <trkpt lat="46.3531" lon="-0.50545">
        <ele>55.29</ele>
        <time>2025-02-16T17:13:56.278Z</time>
      </trkpt>
      <trkpt lat="46.35336" lon="-0.5057">
        <ele>55.34</ele>
        <time>2025-02-16T17:14:01.694Z</time>
      </trkpt>
      <trkpt lat="46.35362" lon="-0.50595">
        <ele>55.35</ele>
        <time>2025-02-16T17:14:07.116Z</time>
      </trkpt>
      <trkpt lat="46.35387" lon="-0.5062">
        <ele>55.37</ele>
        <time>2025-02-16T17:14:12.544Z</time>
      </trkpt>
      <trkpt lat="46.35413" lon="-0.50644">
        <ele>55.54</ele>
        <time>2025-02-16T17:14:17.979Z</time>
      </trkpt>
      <trkpt lat="46.35436" lon="-0.50665">
        <ele>55.7</ele>
        <time>2025-02-16T17:14:23.419Z</time>
      </trkpt>
      <trkpt lat="46.35458" lon="-0.50685">
        <ele>55.81</ele>
        <time>2025-02-16T17:14:28.864Z</time>
      </trkpt>
      <trkpt lat="46.35481" lon="-0.50706">
        <ele>55.9</ele>
        <time>2025-02-16T17:14:34.315Z</time>
      </trkpt>
      <trkpt lat="46.35503" lon="-0.50726">
        <ele>55.97</ele>
        <time>2025-02-16T17:14:39.771Z</time>
      </trkpt>
      <trkpt lat="46.35527" lon="-0.50735">
        <ele>56.07</ele>
        <time>2025-02-16T17:14:45.232Z</time>
      </trkpt>
      <trkpt lat="46.3555" lon="-0.50743">
        <ele>56.16</ele>
        <time>2025-02-16T17:14:50.698Z</time>
      </trkpt>
      <trkpt lat="46.35563" lon="-0.50758">
        <ele>56.27</ele>
        <time>2025-02-16T17:14:56.167Z</time>
      </trkpt>
      <trkpt lat="46.35576" lon="-0.50773">
        <ele>56.38</ele>
        <time>2025-02-16T17:15:01.639Z</time>
      </trkpt>
      <trkpt lat="46.3558" lon="-0.5078">
        <ele>56.5</ele>
        <time>2025-02-16T17:15:07.112Z</time>
      </trkpt>
      <trkpt lat="46.35591" lon="-0.50815">
        <ele>56.66</ele>
        <time>2025-02-16T17:15:12.591Z</time>
      </trkpt>
      <trkpt lat="46.35602" lon="-0.50851">
        <ele>56.82</ele>
        <time>2025-02-16T17:15:18.075Z</time>
      </trkpt>
      <trkpt lat="46.35613" lon="-0.50886">
        <ele>57.01</ele>
        <time>2025-02-16T17:15:23.565Z</time>
      </trkpt>
      <trkpt lat="46.35623" lon="-0.50922">
        <ele>57.08</ele>
        <time>2025-02-16T17:15:29.060Z</time>
      </trkpt>
      <trkpt lat="46.35634" lon="-0.50957">
        <ele>57.13</ele>
        <time>2025-02-16T17:15:34.560Z</time>
      </trkpt>
      <trkpt lat="46.35645" lon="-0.50992">
        <ele>57.06</ele>
        <time>2025-02-16T17:15:40.066Z</time>
      </trkpt>
      <trkpt lat="46.35659" lon="-0.51024">
        <ele>57.07</ele>
        <time>2025-02-16T17:15:45.577Z</time>
      </trkpt>
      <trkpt lat="46.35673" lon="-0.51057">
        <ele>57.08</ele>
        <time>2025-02-16T17:15:51.093Z</time>
      </trkpt>
      <trkpt lat="46.35687" lon="-0.51089">
        <ele>57</ele>
        <time>2025-02-16T17:15:56.614Z</time>
      </trkpt>
      <trkpt lat="46.35701" lon="-0.51121">
        <ele>56.74</ele>
        <time>2025-02-16T17:16:02.141Z</time>
      </trkpt>
      <trkpt lat="46.35714" lon="-0.51149">
        <ele>56.37</ele>
        <time>2025-02-16T17:16:07.672Z</time>
      </trkpt>
      <trkpt lat="46.35728" lon="-0.51177">
        <ele>56.19</ele>
        <time>2025-02-16T17:16:13.208Z</time>
      </trkpt>
      <trkpt lat="46.35741" lon="-0.51204">
        <ele>56.09</ele>
        <time>2025-02-16T17:16:18.749Z</time>
      </trkpt>
      <trkpt lat="46.35728" lon="-0.51221">
        <ele>55.81</ele>
        <time>2025-02-16T17:16:24.293Z</time>
      </trkpt>
      <trkpt lat="46.35716" lon="-0.51237">
        <ele>55.52</ele>
        <time>2025-02-16T17:16:29.841Z</time>
      </trkpt>
      <trkpt lat="46.357" lon="-0.5126">
        <ele>55.19</ele>
        <time>2025-02-16T17:16:35.393Z</time>
      </trkpt>
      <trkpt lat="46.35684" lon="-0.51284">
        <ele>54.84</ele>
        <time>2025-02-16T17:16:40.950Z</time>
      </trkpt>
      <trkpt lat="46.35668" lon="-0.51307">
        <ele>54.59</ele>
        <time>2025-02-16T17:16:46.511Z</time>
      </trkpt>
      <trkpt lat="46.35653" lon="-0.51324">
        <ele>54.4</ele>
        <time>2025-02-16T17:16:52.076Z</time>
      </trkpt>
      <trkpt lat="46.35638" lon="-0.5134">
        <ele>54.25</ele>
        <time>2025-02-16T17:16:57.645Z</time>
      </trkpt>
      <trkpt lat="46.35619" lon="-0.51368">
        <ele>54.15</ele>
        <time>2025-02-16T17:17:03.219Z</time>
      </trkpt>
      <trkpt lat="46.356" lon="-0.51397">
        <ele>54.2</ele>
        <time>2025-02-16T17:17:08.799Z</time>
      </trkpt>
      <trkpt lat="46.3558" lon="-0.51426">
        <ele>54.38</ele>
        <time>2025-02-16T17:17:14.384Z</time>
      </trkpt>
      <trkpt lat="46.35574" lon="-0.51438">
        <ele>54.57</ele>
        <time>2025-02-16T17:17:19.972Z</time>
      </trkpt>
      <trkpt lat="46.35579" lon="-0.51458">
        <ele>54.79</ele>
        <time>2025-02-16T17:17:25.562Z</time>
      </trkpt>
      <trkpt lat="46.35589" lon="-0.51497">
        <ele>55.15</ele>
        <time>2025-02-16T17:17:31.158Z</time>
      </trkpt>
      <trkpt lat="46.35598" lon="-0.51536">
        <ele>55.53</ele>
        <time>2025-02-16T17:17:36.760Z</time>
      </trkpt>
      <trkpt lat="46.35608" lon="-0.51575">
        <ele>55.9</ele>
        <time>2025-02-16T17:17:42.368Z</time>
      </trkpt>
      <trkpt lat="46.35618" lon="-0.51614">
        <ele>56.28</ele>
        <time>2025-02-16T17:17:47.981Z</time>
      </trkpt>
      <trkpt lat="46.35628" lon="-0.51653">
        <ele>56.75</ele>
        <time>2025-02-16T17:17:53.600Z</time>
      </trkpt>
      <trkpt lat="46.35637" lon="-0.51692">
        <ele>57.23</ele>
        <time>2025-02-16T17:17:59.225Z</time>
      </trkpt>
      <trkpt lat="46.35647" lon="-0.5173">
        <ele>57.68</ele>
        <time>2025-02-16T17:18:04.856Z</time>
      </trkpt>
      <trkpt lat="46.35663" lon="-0.51765">
        <ele>58.07</ele>
        <time>2025-02-16T17:18:10.492Z</time>
      </trkpt>
      <trkpt lat="46.35679" lon="-0.518">
        <ele>58.57</ele>
        <time>2025-02-16T17:18:16.134Z</time>
      </trkpt>
      <trkpt lat="46.35695" lon="-0.51835">
        <ele>59</ele>
        <time>2025-02-16T17:18:21.782Z</time>
      </trkpt>
      <trkpt lat="46.35711" lon="-0.5187">
        <ele>59.34</ele>
        <time>2025-02-16T17:18:27.436Z</time>
      </trkpt>
      <trkpt lat="46.35727" lon="-0.51905">
        <ele>59.63</ele>
        <time>2025-02-16T17:18:33.096Z</time>
      </trkpt>
      <trkpt lat="46.35744" lon="-0.5194">
        <ele>59.93</ele>
        <time>2025-02-16T17:18:38.761Z</time>
      </trkpt>
      <trkpt lat="46.3576" lon="-0.51975">
        <ele>60.35</ele>
        <time>2025-02-16T17:18:44.432Z</time>
      </trkpt>
      <trkpt lat="46.35776" lon="-0.52009">
        <ele>60.68</ele>
        <time>2025-02-16T17:18:50.109Z</time>
      </trkpt>
      <trkpt lat="46.35786" lon="-0.52041">
        <ele>61.03</ele>
        <time>2025-02-16T17:18:55.791Z</time>
      </trkpt>
      <trkpt lat="46.35797" lon="-0.52072">
        <ele>61.38</ele>
        <time>2025-02-16T17:19:01.478Z</time>
      </trkpt>
      <trkpt lat="46.35808" lon="-0.52104">
        <ele>61.69</ele>
        <time>2025-02-16T17:19:07.170Z</time>
      </trkpt>
      <trkpt lat="46.35814" lon="-0.52132">
        <ele>62.01</ele>
        <time>2025-02-16T17:19:12.866Z</time>
      </trkpt>
      <trkpt lat="46.35821" lon="-0.52159">
        <ele>62.28</ele>
        <time>2025-02-16T17:19:18.566Z</time>
      </trkpt>
      <trkpt lat="46.35828" lon="-0.52195">
        <ele>62.5</ele>
        <time>2025-02-16T17:19:24.271Z</time>
      </trkpt>
      <trkpt lat="46.35835" lon="-0.52231">
        <ele>62.8</ele>
        <time>2025-02-16T17:19:29.981Z</time>
      </trkpt>
      <trkpt lat="46.35842" lon="-0.52267">
        <ele>63.1</ele>
        <time>2025-02-16T17:19:35.696Z</time>
      </trkpt>
      <trkpt lat="46.35849" lon="-0.52303">
        <ele>63.36</ele>
        <time>2025-02-16T17:19:41.416Z</time>
      </trkpt>
      <trkpt lat="46.35855" lon="-0.52344">
        <ele>63.68</ele>
        <time>2025-02-16T17:19:47.142Z</time>
      </trkpt>
      <trkpt lat="46.35861" lon="-0.52385">
        <ele>64.02</ele>
        <time>2025-02-16T17:19:52.874Z</time>
      </trkpt>
      <trkpt lat="46.35868" lon="-0.52426">
        <ele>64.28</ele>
        <time>2025-02-16T17:19:58.612Z</time>
      </trkpt>
      <trkpt lat="46.35874" lon="-0.52467">
        <ele>64.52</ele>
        <time>2025-02-16T17:20:04.356Z</time>
      </trkpt>
      <trkpt lat="46.35881" lon="-0.52507">
        <ele>64.8</ele>
        <time>2025-02-16T17:20:10.105Z</time>
      </trkpt>
      <trkpt lat="46.35887" lon="-0.52548">
        <ele>65.1</ele>
        <time>2025-02-16T17:20:15.860Z</time>
      </trkpt>
      <trkpt lat="46.35902" lon="-0.52552">
        <ele>65.45</ele>
        <time>2025-02-16T17:20:21.618Z</time>
      </trkpt>
      <trkpt lat="46.35923" lon="-0.52558">
        <ele>65.85</ele>
        <time>2025-02-16T17:20:27.380Z</time>
      </trkpt>
      <trkpt lat="46.35944" lon="-0.52565">
        <ele>66.25</ele>
        <time>2025-02-16T17:20:33.147Z</time>
      </trkpt>
      <trkpt lat="46.35964" lon="-0.52571">
        <ele>66.64</ele>
        <time>2025-02-16T17:20:38.918Z</time>
      </trkpt>
      <trkpt lat="46.3596" lon="-0.52582">
        <ele>67.04</ele>
        <time>2025-02-16T17:20:44.691Z</time>
      </trkpt>
      <trkpt lat="46.35934" lon="-0.52594">
        <ele>67.44</ele>
        <time>2025-02-16T17:20:50.469Z</time>
      </trkpt>
      <trkpt lat="46.35908" lon="-0.52606">
        <ele>67.79</ele>
        <time>2025-02-16T17:20:56.253Z</time>
      </trkpt>
      <trkpt lat="46.35891" lon="-0.52614">
        <ele>68.21</ele>
        <time>2025-02-16T17:21:02.040Z</time>
      </trkpt>
      <trkpt lat="46.35874" lon="-0.52623">
        <ele>68.69</ele>
        <time>2025-02-16T17:21:07.831Z</time>
      </trkpt>
      <trkpt lat="46.35846" lon="-0.52636">
        <ele>69.26</ele>
        <time>2025-02-16T17:21:13.628Z</time>
      </trkpt>
      <trkpt lat="46.35818" lon="-0.52649">
        <ele>69.92</ele>
        <time>2025-02-16T17:21:19.431Z</time>
      </trkpt>
      <trkpt lat="46.35789" lon="-0.52663">
        <ele>70.52</ele>
        <time>2025-02-16T17:21:25.240Z</time>
      </trkpt>
      <trkpt lat="46.35761" lon="-0.52676">
        <ele>71.09</ele>
        <time>2025-02-16T17:21:31.055Z</time>
      </trkpt>
      <trkpt lat="46.35733" lon="-0.52689">
        <ele>71.65</ele>
        <time>2025-02-16T17:21:36.876Z</time>
      </trkpt>
      <trkpt lat="46.35707" lon="-0.52703">
        <ele>72.15</ele>
        <time>2025-02-16T17:21:42.702Z</time>
      </trkpt>
      <trkpt lat="46.35681" lon="-0.52717">
        <ele>72.58</ele>
        <time>2025-02-16T17:21:48.534Z</time>
      </trkpt>
      <trkpt lat="46.35655" lon="-0.52731">
        <ele>72.96</ele>
        <time>2025-02-16T17:21:54.371Z</time>
      </trkpt>
      <trkpt lat="46.3563" lon="-0.52745">
        <ele>73.3</ele>
        <time>2025-02-16T17:22:00.214Z</time>
      </trkpt>
      <trkpt lat="46.35601" lon="-0.52755">
        <ele>73.52</ele>
        <time>2025-02-16T17:22:06.062Z</time>
      </trkpt>
      <trkpt lat="46.35572" lon="-0.52765">
        <ele>73.64</ele>
        <time>2025-02-16T17:22:11.916Z</time>
      </trkpt>
      <trkpt lat="46.35543" lon="-0.52775">
        <ele>73.77</ele>
        <time>2025-02-16T17:22:17.776Z</time>
      </trkpt>
      <trkpt lat="46.35514" lon="-0.52786">
        <ele>73.87</ele>
        <time>2025-02-16T17:22:23.642Z</time>
      </trkpt>
      <trkpt lat="46.35486" lon="-0.52796">
        <ele>73.86</ele>
        <time>2025-02-16T17:22:29.514Z</time>
      </trkpt>
      <trkpt lat="46.35457" lon="-0.52806">
        <ele>73.77</ele>
        <time>2025-02-16T17:22:35.392Z</time>
      </trkpt>
      <trkpt lat="46.35428" lon="-0.52816">
        <ele>73.52</ele>
        <time>2025-02-16T17:22:41.276Z</time>
      </trkpt>
      <trkpt lat="46.35399" lon="-0.52825">
        <ele>73.14</ele>
        <time>2025-02-16T17:22:47.166Z</time>
      </trkpt>
      <trkpt lat="46.3537" lon="-0.52835">
        <ele>72.61</ele>
        <time>2025-02-16T17:22:53.062Z</time>
      </trkpt>
      <trkpt lat="46.35341" lon="-0.52844">
        <ele>72.05</ele>
        <time>2025-02-16T17:22:58.964Z</time>
      </trkpt>
      <trkpt lat="46.35313" lon="-0.52853">
        <ele>71.43</ele>
        <time>2025-02-16T17:23:04.872Z</time>
      </trkpt>
      <trkpt lat="46.35284" lon="-0.52863">
        <ele>70.76</ele>
        <time>2025-02-16T17:23:10.786Z</time>
      </trkpt>
      <trkpt lat="46.35255" lon="-0.52872">
        <ele>70.13</ele>
        <time>2025-02-16T17:23:16.706Z</time>
      </trkpt>
      <trkpt lat="46.35226" lon="-0.52881">
        <ele>69.52</ele>
        <time>2025-02-16T17:23:22.631Z</time>
      </trkpt>
      <trkpt lat="46.35197" lon="-0.52891">
        <ele>68.88</ele>
        <time>2025-02-16T17:23:28.562Z</time>
      </trkpt>
      <trkpt lat="46.35168" lon="-0.529">
        <ele>68.25</ele>
        <time>2025-02-16T17:23:34.499Z</time>
      </trkpt>
      <trkpt lat="46.35139" lon="-0.5291">
        <ele>67.56</ele>
        <time>2025-02-16T17:23:40.442Z</time>
      </trkpt>
      <trkpt lat="46.3511" lon="-0.52919">
        <ele>66.89</ele>
        <time>2025-02-16T17:23:46.391Z</time>
      </trkpt>
      <trkpt lat="46.35083" lon="-0.5293">
        <ele>66.16</ele>
        <time>2025-02-16T17:23:52.346Z</time>
      </trkpt>
      <trkpt lat="46.35056" lon="-0.52941">
        <ele>65.42</ele>
        <time>2025-02-16T17:23:58.307Z</time>
      </trkpt>
      <trkpt lat="46.35028" lon="-0.52953">
        <ele>64.67</ele>
        <time>2025-02-16T17:24:04.273Z</time>
      </trkpt>
      <trkpt lat="46.35001" lon="-0.52964">
        <ele>63.93</ele>
        <time>2025-02-16T17:24:10.245Z</time>
      </trkpt>
      <trkpt lat="46.35004" lon="-0.53003">
        <ele>63.22</ele>
        <time>2025-02-16T17:24:16.222Z</time>
      </trkpt>
      <trkpt lat="46.35006" lon="-0.53041">
        <ele>62.6</ele>
        <time>2025-02-16T17:24:22.205Z</time>
      </trkpt>
      <trkpt lat="46.35009" lon="-0.5308">
        <ele>61.99</ele>
        <time>2025-02-16T17:24:28.193Z</time>
      </trkpt>
      <trkpt lat="46.35012" lon="-0.53119">
        <ele>61.36</ele>
        <time>2025-02-16T17:24:34.186Z</time>
      </trkpt>
      <trkpt lat="46.34993" lon="-0.53128">
        <ele>60.73</ele>
        <time>2025-02-16T17:24:40.183Z</time>
      </trkpt>
      <trkpt lat="46.34974" lon="-0.53138">
        <ele>60.18</ele>
        <time>2025-02-16T17:24:46.184Z</time>
      </trkpt>
      <trkpt lat="46.34946" lon="-0.53153">
        <ele>59.64</ele>
        <time>2025-02-16T17:24:52.192Z</time>
      </trkpt>
      <trkpt lat="46.34917" lon="-0.53168">
        <ele>59.1</ele>
        <time>2025-02-16T17:24:58.206Z</time>
      </trkpt>
      <trkpt lat="46.34888" lon="-0.53183">
        <ele>58.54</ele>
        <time>2025-02-16T17:25:04.226Z</time>
      </trkpt>
      <trkpt lat="46.3486" lon="-0.53198">
        <ele>57.99</ele>
        <time>2025-02-16T17:25:10.252Z</time>
      </trkpt>
      <trkpt lat="46.34831" lon="-0.53213">
        <ele>57.4</ele>
        <time>2025-02-16T17:25:16.284Z</time>
      </trkpt>
      <trkpt lat="46.34802" lon="-0.53228">
        <ele>56.82</ele>
        <time>2025-02-16T17:25:22.322Z</time>
      </trkpt>
      <trkpt lat="46.34774" lon="-0.53243">
        <ele>56.33</ele>
        <time>2025-02-16T17:25:28.366Z</time>
      </trkpt>
      <trkpt lat="46.34763" lon="-0.53243">
        <ele>55.85</ele>
        <time>2025-02-16T17:25:34.412Z</time>
      </trkpt>
      <trkpt lat="46.34752" lon="-0.53232">
        <ele>55.34</ele>
        <time>2025-02-16T17:25:40.461Z</time>
      </trkpt>
      <trkpt lat="46.34744" lon="-0.53232">
        <ele>54.85</ele>
        <time>2025-02-16T17:25:46.512Z</time>
      </trkpt>
      <trkpt lat="46.34716" lon="-0.53247">
        <ele>54.36</ele>
        <time>2025-02-16T17:25:52.569Z</time>
      </trkpt>
      <trkpt lat="46.34688" lon="-0.53261">
        <ele>53.84</ele>
        <time>2025-02-16T17:25:58.631Z</time>
      </trkpt>
      <trkpt lat="46.3466" lon="-0.53275">
        <ele>53.28</ele>
        <time>2025-02-16T17:26:04.699Z</time>
      </trkpt>
      <trkpt lat="46.34653" lon="-0.53299">
        <ele>52.79</ele>
        <time>2025-02-16T17:26:10.771Z</time>
      </trkpt>
      <trkpt lat="46.34647" lon="-0.53307">
        <ele>52.3</ele>
        <time>2025-02-16T17:26:16.845Z</time>
      </trkpt>
      <trkpt lat="46.34618" lon="-0.53322">
        <ele>51.78</ele>
        <time>2025-02-16T17:26:22.925Z</time>
      </trkpt>
      <trkpt lat="46.3459" lon="-0.53337">
        <ele>51.25</ele>
        <time>2025-02-16T17:26:29.011Z</time>
      </trkpt>
      <trkpt lat="46.34561" lon="-0.53352">
        <ele>50.68</ele>
        <time>2025-02-16T17:26:35.103Z</time>
      </trkpt>
      <trkpt lat="46.34532" lon="-0.53367">
        <ele>50.11</ele>
        <time>2025-02-16T17:26:41.201Z</time>
      </trkpt>
      <trkpt lat="46.34504" lon="-0.53382">
        <ele>49.57</ele>
        <time>2025-02-16T17:26:47.305Z</time>
      </trkpt>
      <trkpt lat="46.34475" lon="-0.53397">
        <ele>49.04</ele>
        <time>2025-02-16T17:26:53.415Z</time>
      </trkpt>
      <trkpt lat="46.34446" lon="-0.53411">
        <ele>48.45</ele>
        <time>2025-02-16T17:26:59.531Z</time>
      </trkpt>
      <trkpt lat="46.34418" lon="-0.53426">
        <ele>47.83</ele>
        <time>2025-02-16T17:27:05.653Z</time>
      </trkpt>
      <trkpt lat="46.34389" lon="-0.53441">
        <ele>47.15</ele>
        <time>2025-02-16T17:27:11.781Z</time>
      </trkpt>
      <trkpt lat="46.3436" lon="-0.53456">
        <ele>46.6</ele>
        <time>2025-02-16T17:27:17.916Z</time>
      </trkpt>
      <trkpt lat="46.34332" lon="-0.53471">
        <ele>46.01</ele>
        <time>2025-02-16T17:27:24.057Z</time>
      </trkpt>
      <trkpt lat="46.34303" lon="-0.53486">
        <ele>45.32</ele>
        <time>2025-02-16T17:27:30.204Z</time>
      </trkpt>
      <trkpt lat="46.34274" lon="-0.53501">
        <ele>44.6</ele>
        <time>2025-02-16T17:27:36.357Z</time>
      </trkpt>
      <trkpt lat="46.34246" lon="-0.53515">
        <ele>43.9</ele>
        <time>2025-02-16T17:27:42.516Z</time>
      </trkpt>
      <trkpt lat="46.34227" lon="-0.53526">
        <ele>43.23</ele>
        <time>2025-02-16T17:27:48.679Z</time>
      </trkpt>
      <trkpt lat="46.34209" lon="-0.53537">
        <ele>42.54</ele>
        <time>2025-02-16T17:27:54.846Z</time>
      </trkpt>
      <trkpt lat="46.34193" lon="-0.53547">
        <ele>41.8</ele>
        <time>2025-02-16T17:28:01.016Z</time>
      </trkpt>
      <trkpt lat="46.34177" lon="-0.53556">
        <ele>41.05</ele>
        <time>2025-02-16T17:28:07.190Z</time>
      </trkpt>
      <trkpt lat="46.3416" lon="-0.53556">
        <ele>40.27</ele>
        <time>2025-02-16T17:28:13.367Z</time>
      </trkpt>
      <trkpt lat="46.34134" lon="-0.53539">
        <ele>39.48</ele>
        <time>2025-02-16T17:28:19.550Z</time>
      </trkpt>
      <trkpt lat="46.3412" lon="-0.53524">
        <ele>38.69</ele>
        <time>2025-02-16T17:28:25.736Z</time>
      </trkpt>
      <trkpt lat="46.34106" lon="-0.53509">
        <ele>37.83</ele>
        <time>2025-02-16T17:28:31.926Z</time>
      </trkpt>
      <trkpt lat="46.34091" lon="-0.53503">
        <ele>36.92</ele>
        <time>2025-02-16T17:28:38.119Z</time>
      </trkpt>
      <trkpt lat="46.34074" lon="-0.53513">
        <ele>35.98</ele>
        <time>2025-02-16T17:28:44.316Z</time>
      </trkpt>
      <trkpt lat="46.34055" lon="-0.53537">
        <ele>35.04</ele>
        <time>2025-02-16T17:28:50.518Z</time>
      </trkpt>
      <trkpt lat="46.34035" lon="-0.53561">
        <ele>34.05</ele>
        <time>2025-02-16T17:28:56.725Z</time>
      </trkpt>
      <trkpt lat="46.34015" lon="-0.53579">
        <ele>33.05</ele>
        <time>2025-02-16T17:29:02.937Z</time>
      </trkpt>
      <trkpt lat="46.33995" lon="-0.53597">
        <ele>32.06</ele>
        <time>2025-02-16T17:29:09.153Z</time>
      </trkpt>
      <trkpt lat="46.33968" lon="-0.53611">
        <ele>31.04</ele>
        <time>2025-02-16T17:29:15.375Z</time>
      </trkpt>
      <trkpt lat="46.3394" lon="-0.53626">
        <ele>30.01</ele>
        <time>2025-02-16T17:29:21.603Z</time>
      </trkpt>
      <trkpt lat="46.33913" lon="-0.5364">
        <ele>28.98</ele>
        <time>2025-02-16T17:29:27.837Z</time>
      </trkpt>
      <trkpt lat="46.33886" lon="-0.53655">
        <ele>27.87</ele>
        <time>2025-02-16T17:29:34.077Z</time>
      </trkpt>
      <trkpt lat="46.33859" lon="-0.53669">
        <ele>26.82</ele>
        <time>2025-02-16T17:29:40.322Z</time>
      </trkpt>
      <trkpt lat="46.33832" lon="-0.53684">
        <ele>25.79</ele>
        <time>2025-02-16T17:29:46.573Z</time>
      </trkpt>
      <trkpt lat="46.33805" lon="-0.53698">
        <ele>24.73</ele>
        <time>2025-02-16T17:29:52.830Z</time>
      </trkpt>
      <trkpt lat="46.33778" lon="-0.53713">
        <ele>23.68</ele>
        <time>2025-02-16T17:29:59.093Z</time>
      </trkpt>
      <trkpt lat="46.33767" lon="-0.53675">
        <ele>22.77</ele>
        <time>2025-02-16T17:30:05.361Z</time>
      </trkpt>
      <trkpt lat="46.33757" lon="-0.53637">
        <ele>21.95</ele>
        <time>2025-02-16T17:30:11.635Z</time>
      </trkpt>
      <trkpt lat="46.33747" lon="-0.53599">
        <ele>21.18</ele>
        <time>2025-02-16T17:30:17.915Z</time>
      </trkpt>
      <trkpt lat="46.33736" lon="-0.53561">
        <ele>20.42</ele>
        <time>2025-02-16T17:30:24.200Z</time>
      </trkpt>
      <trkpt lat="46.33726" lon="-0.53522">
        <ele>19.65</ele>
        <time>2025-02-16T17:30:30.491Z</time>
      </trkpt>
      <trkpt lat="46.33715" lon="-0.53484">
        <ele>18.86</ele>
        <time>2025-02-16T17:30:36.788Z</time>
      </trkpt>
      <trkpt lat="46.33705" lon="-0.53447">
        <ele>18.05</ele>
        <time>2025-02-16T17:30:43.090Z</time>
      </trkpt>
      <trkpt lat="46.33696" lon="-0.53409">
        <ele>17.25</ele>
        <time>2025-02-16T17:30:49.398Z</time>
      </trkpt>
      <trkpt lat="46.33687" lon="-0.5337">
        <ele>16.55</ele>
        <time>2025-02-16T17:30:55.712Z</time>
      </trkpt>
      <trkpt lat="46.33678" lon="-0.53332">
        <ele>15.84</ele>
        <time>2025-02-16T17:31:02.031Z</time>
      </trkpt>
      <trkpt lat="46.33669" lon="-0.53294">
        <ele>15.1</ele>
        <time>2025-02-16T17:31:08.356Z</time>
      </trkpt>
      <trkpt lat="46.3366" lon="-0.53256">
        <ele>14.49</ele>
        <time>2025-02-16T17:31:14.686Z</time>
      </trkpt>
      <trkpt lat="46.33634" lon="-0.53262">
        <ele>13.87</ele>
        <time>2025-02-16T17:31:21.022Z</time>
      </trkpt>
      <trkpt lat="46.33616" lon="-0.5327">
        <ele>13.22</ele>
        <time>2025-02-16T17:31:27.361Z</time>
      </trkpt>
      <trkpt lat="46.33599" lon="-0.53277">
        <ele>12.61</ele>
        <time>2025-02-16T17:31:33.704Z</time>
      </trkpt>
      <trkpt lat="46.33575" lon="-0.53287">
        <ele>12.03</ele>
        <time>2025-02-16T17:31:40.052Z</time>
      </trkpt>
      <trkpt lat="46.33551" lon="-0.53296">
        <ele>11.47</ele>
        <time>2025-02-16T17:31:46.405Z</time>
      </trkpt>
      <trkpt lat="46.33527" lon="-0.53306">
        <ele>10.92</ele>
        <time>2025-02-16T17:31:52.763Z</time>
      </trkpt>
      <trkpt lat="46.33503" lon="-0.53316">
        <ele>10.33</ele>
        <time>2025-02-16T17:31:59.126Z</time>
      </trkpt>
      <trkpt lat="46.33478" lon="-0.53329">
        <ele>9.81</ele>
        <time>2025-02-16T17:32:05.494Z</time>
      </trkpt>
      <trkpt lat="46.33453" lon="-0.53343">
        <ele>9.34</ele>
        <time>2025-02-16T17:32:11.867Z</time>
      </trkpt>
      <trkpt lat="46.33429" lon="-0.53356">
        <ele>8.87</ele>
        <time>2025-02-16T17:32:18.246Z</time>
      </trkpt>
      <trkpt lat="46.33404" lon="-0.53369">
        <ele>8.39</ele>
        <time>2025-02-16T17:32:24.630Z</time>
      </trkpt>
      <trkpt lat="46.33379" lon="-0.53382">
        <ele>7.96</ele>
        <time>2025-02-16T17:32:31.019Z</time>
      </trkpt>
      <trkpt lat="46.33357" lon="-0.53395">
        <ele>7.56</ele>
        <time>2025-02-16T17:32:37.413Z</time>
      </trkpt>
      <trkpt lat="46.33334" lon="-0.53407">
        <ele>7.22</ele>
        <time>2025-02-16T17:32:43.812Z</time>
      </trkpt>
      <trkpt lat="46.33312" lon="-0.53419">
        <ele>6.88</ele>
        <time>2025-02-16T17:32:50.216Z</time>
      </trkpt>
      <trkpt lat="46.33285" lon="-0.53435">
        <ele>6.52</ele>
        <time>2025-02-16T17:32:56.625Z</time>
      </trkpt>
      <trkpt lat="46.33259" lon="-0.53451">
        <ele>6.2</ele>
        <time>2025-02-16T17:33:03.040Z</time>
      </trkpt>
      <trkpt lat="46.33232" lon="-0.53467">
        <ele>5.94</ele>
        <time>2025-02-16T17:33:09.461Z</time>
      </trkpt>
      <trkpt lat="46.33205" lon="-0.53483">
        <ele>5.68</ele>
        <time>2025-02-16T17:33:15.888Z</time>
      </trkpt>
      <trkpt lat="46.33178" lon="-0.53499">
        <ele>5.48</ele>
        <time>2025-02-16T17:33:22.321Z</time>
      </trkpt>
      <trkpt lat="46.33151" lon="-0.53515">
        <ele>5.35</ele>
        <time>2025-02-16T17:33:28.759Z</time>
      </trkpt>
      <trkpt lat="46.33125" lon="-0.53532">
        <ele>5.29</ele>
        <time>2025-02-16T17:33:35.203Z</time>
      </trkpt>
      <trkpt lat="46.33098" lon="-0.53548">
        <ele>5.32</ele>
        <time>2025-02-16T17:33:41.653Z</time>
      </trkpt>
      <trkpt lat="46.33082" lon="-0.53542">
        <ele>5.32</ele>
        <time>2025-02-16T17:33:48.106Z</time>
      </trkpt>
      <trkpt lat="46.33066" lon="-0.53537">
        <ele>5.29</ele>
        <time>2025-02-16T17:33:54.563Z</time>
      </trkpt>
      <trkpt lat="46.33039" lon="-0.53546">
        <ele>5.25</ele>
        <time>2025-02-16T17:34:01.025Z</time>
      </trkpt>
      <trkpt lat="46.33013" lon="-0.53556">
        <ele>5.29</ele>
        <time>2025-02-16T17:34:07.493Z</time>
      </trkpt>
      <trkpt lat="46.32986" lon="-0.53565">
        <ele>5.39</ele>
        <time>2025-02-16T17:34:13.966Z</time>
      </trkpt>
      <trkpt lat="46.32968" lon="-0.53577">
        <ele>5.51</ele>
        <time>2025-02-16T17:34:20.443Z</time>
      </trkpt>
      <trkpt lat="46.3295" lon="-0.53588">
        <ele>5.65</ele>
        <time>2025-02-16T17:34:26.924Z</time>
      </trkpt>
      <trkpt lat="46.32929" lon="-0.53608">
        <ele>5.81</ele>
        <time>2025-02-16T17:34:33.410Z</time>
      </trkpt>
      <trkpt lat="46.32909" lon="-0.53627">
        <ele>5.97</ele>
        <time>2025-02-16T17:34:39.901Z</time>
      </trkpt>
      <trkpt lat="46.32899" lon="-0.53645">
        <ele>6.18</ele>
        <time>2025-02-16T17:34:46.395Z</time>
      </trkpt>
      <trkpt lat="46.32899" lon="-0.53645">
        <ele>6.41</ele>
        <time>2025-02-16T17:34:52.889Z</time>
      </trkpt>
      <trkpt lat="46.32889" lon="-0.53665">
        <ele>6.67</ele>
        <time>2025-02-16T17:34:59.386Z</time>
      </trkpt>
      <trkpt lat="46.32879" lon="-0.53685">
        <ele>6.9</ele>
        <time>2025-02-16T17:35:05.887Z</time>
      </trkpt>
      <trkpt lat="46.32872" lon="-0.53713">
        <ele>7.15</ele>
        <time>2025-02-16T17:35:12.392Z</time>
      </trkpt>
      <trkpt lat="46.32872" lon="-0.53749">
        <ele>7.5</ele>
        <time>2025-02-16T17:35:18.902Z</time>
      </trkpt>
      <trkpt lat="46.32872" lon="-0.53749">
        <ele>7.8</ele>
        <time>2025-02-16T17:35:25.412Z</time>
      </trkpt>
      <trkpt lat="46.32877" lon="-0.53786">
        <ele>8.17</ele>
        <time>2025-02-16T17:35:31.927Z</time>
      </trkpt>
      <trkpt lat="46.32881" lon="-0.53823">
        <ele>8.63</ele>
        <time>2025-02-16T17:35:38.447Z</time>
      </trkpt>
      <trkpt lat="46.32885" lon="-0.53859">
        <ele>8.97</ele>
        <time>2025-02-16T17:35:44.972Z</time>
      </trkpt>
      <trkpt lat="46.32886" lon="-0.5389">
        <ele>9.23</ele>
        <time>2025-02-16T17:35:51.502Z</time>
      </trkpt>
      <trkpt lat="46.32887" lon="-0.53921">
        <ele>9.48</ele>
        <time>2025-02-16T17:35:58.036Z</time>
      </trkpt>
      <trkpt lat="46.32877" lon="-0.53921">
        <ele>9.66</ele>
        <time>2025-02-16T17:36:04.572Z</time>
      </trkpt>
      <trkpt lat="46.32856" lon="-0.53915">
        <ele>9.8</ele>
        <time>2025-02-16T17:36:11.112Z</time>
      </trkpt>
      <trkpt lat="46.32835" lon="-0.5391">
        <ele>9.95</ele>
        <time>2025-02-16T17:36:17.657Z</time>
      </trkpt>
      <trkpt lat="46.32812" lon="-0.53904">
        <ele>10.07</ele>
        <time>2025-02-16T17:36:24.206Z</time>
      </trkpt>
      <trkpt lat="46.32788" lon="-0.53897">
        <ele>10.19</ele>
        <time>2025-02-16T17:36:30.760Z</time>
      </trkpt>
      <trkpt lat="46.32765" lon="-0.53891">
        <ele>10.29</ele>
        <time>2025-02-16T17:36:37.319Z</time>
      </trkpt>
      <trkpt lat="46.3274" lon="-0.53878">
        <ele>10.28</ele>
        <time>2025-02-16T17:36:43.883Z</time>
      </trkpt>
      <trkpt lat="46.32716" lon="-0.53865">
        <ele>10.3</ele>
        <time>2025-02-16T17:36:50.452Z</time>
      </trkpt>
      <trkpt lat="46.32694" lon="-0.5385">
        <ele>10.27</ele>
        <time>2025-02-16T17:36:57.026Z</time>
      </trkpt>
      <trkpt lat="46.32684" lon="-0.53852">
        <ele>10.23</ele>
        <time>2025-02-16T17:37:03.602Z</time>
      </trkpt>
      <trkpt lat="46.32669" lon="-0.53872">
        <ele>10.18</ele>
        <time>2025-02-16T17:37:10.182Z</time>
      </trkpt>
      <trkpt lat="46.32654" lon="-0.53891">
        <ele>10.13</ele>
        <time>2025-02-16T17:37:16.766Z</time>
      </trkpt>
      <trkpt lat="46.32626" lon="-0.53906">
        <ele>10.09</ele>
        <time>2025-02-16T17:37:23.356Z</time>
      </trkpt>
      <trkpt lat="46.32613" lon="-0.53902">
        <ele>10.02</ele>
        <time>2025-02-16T17:37:29.949Z</time>
      </trkpt>
      <trkpt lat="46.32598" lon="-0.53887">
        <ele>9.91</ele>
        <time>2025-02-16T17:37:36.546Z</time>
      </trkpt>
      <trkpt lat="46.32578" lon="-0.5388">
        <ele>9.71</ele>
        <time>2025-02-16T17:37:43.147Z</time>
      </trkpt>
      <trkpt lat="46.32553" lon="-0.53865">
        <ele>9.29</ele>
        <time>2025-02-16T17:37:49.753Z</time>
      </trkpt>
      <trkpt lat="46.32527" lon="-0.5385">
        <ele>8.82</ele>
        <time>2025-02-16T17:37:56.365Z</time>
      </trkpt>
      <trkpt lat="46.32503" lon="-0.53847">
        <ele>8.53</ele>
        <time>2025-02-16T17:38:02.981Z</time>
      </trkpt>
      <trkpt lat="46.3248" lon="-0.53844">
        <ele>8.27</ele>
        <time>2025-02-16T17:38:09.602Z</time>
      </trkpt>
      <trkpt lat="46.32456" lon="-0.53842">
        <ele>8</ele>
        <time>2025-02-16T17:38:16.228Z</time>
      </trkpt>
      <trkpt lat="46.3246" lon="-0.53857">
        <ele>7.71</ele>
        <time>2025-02-16T17:38:22.856Z</time>
      </trkpt>
      <trkpt lat="46.3246" lon="-0.53862">
        <ele>7.43</ele>
        <time>2025-02-16T17:38:29.485Z</time>
      </trkpt>
      <trkpt lat="46.3246" lon="-0.53865">
        <ele>7.14</ele>
        <time>2025-02-16T17:38:36.114Z</time>
      </trkpt>
      <trkpt lat="46.32471" lon="-0.5388">
        <ele>6.84</ele>
        <time>2025-02-16T17:38:42.746Z</time>
      </trkpt>
      <trkpt lat="46.32477" lon="-0.53919">
        <ele>6.5</ele>
        <time>2025-02-16T17:38:49.384Z</time>
      </trkpt>
      <trkpt lat="46.32482" lon="-0.53958">
        <ele>6.27</ele>
        <time>2025-02-16T17:38:56.027Z</time>
      </trkpt>
      <trkpt lat="46.32487" lon="-0.53996">
        <ele>6.06</ele>
        <time>2025-02-16T17:39:02.676Z</time>
      </trkpt>
      <trkpt lat="46.32493" lon="-0.54035">
        <ele>5.84</ele>
        <time>2025-02-16T17:39:09.330Z</time>
      </trkpt>
      <trkpt lat="46.32495" lon="-0.54067">
        <ele>5.67</ele>
        <time>2025-02-16T17:39:15.989Z</time>
      </trkpt>
      <trkpt lat="46.32498" lon="-0.54099">
        <ele>5.43</ele>
        <time>2025-02-16T17:39:22.652Z</time>
      </trkpt>
      <trkpt lat="46.32501" lon="-0.54131">
        <ele>5.17</ele>
        <time>2025-02-16T17:39:29.320Z</time>
      </trkpt>
      <trkpt lat="46.32501" lon="-0.54171">
        <ele>4.96</ele>
        <time>2025-02-16T17:39:35.993Z</time>
      </trkpt>
      <trkpt lat="46.325" lon="-0.54211">
        <ele>4.84</ele>
        <time>2025-02-16T17:39:42.672Z</time>
      </trkpt>
      <trkpt lat="46.325" lon="-0.54251">
        <ele>4.74</ele>
        <time>2025-02-16T17:39:49.356Z</time>
      </trkpt>
      <trkpt lat="46.32499" lon="-0.5429">
        <ele>4.6</ele>
        <time>2025-02-16T17:39:56.046Z</time>
      </trkpt>
      <trkpt lat="46.32499" lon="-0.54309">
        <ele>4.47</ele>
        <time>2025-02-16T17:40:02.738Z</time>
      </trkpt>
      <trkpt lat="46.32495" lon="-0.54348">
        <ele>4.33</ele>
        <time>2025-02-16T17:40:09.436Z</time>
      </trkpt>
      <trkpt lat="46.3248" lon="-0.54381">
        <ele>4.29</ele>
        <time>2025-02-16T17:40:16.139Z</time>
      </trkpt>
      <trkpt lat="46.32466" lon="-0.54414">
        <ele>4.28</ele>
        <time>2025-02-16T17:40:22.848Z</time>
      </trkpt>
      <trkpt lat="46.32451" lon="-0.54446">
        <ele>4.37</ele>
        <time>2025-02-16T17:40:29.562Z</time>
      </trkpt>
      <trkpt lat="46.32437" lon="-0.54479">
        <ele>4.39</ele>
        <time>2025-02-16T17:40:36.281Z</time>
      </trkpt>
      <trkpt lat="46.32427" lon="-0.5452">
        <ele>4.25</ele>
        <time>2025-02-16T17:40:43.006Z</time>
      </trkpt>
      <trkpt lat="46.32417" lon="-0.5456">
        <ele>4.15</ele>
        <time>2025-02-16T17:40:49.737Z</time>
      </trkpt>
      <trkpt lat="46.32407" lon="-0.54584">
        <ele>4.19</ele>
        <time>2025-02-16T17:40:56.472Z</time>
      </trkpt>
      <trkpt lat="46.32399" lon="-0.54622">
        <ele>4.22</ele>
        <time>2025-02-16T17:41:03.213Z</time>
      </trkpt>
      <trkpt lat="46.32392" lon="-0.54659">
        <ele>4.31</ele>
        <time>2025-02-16T17:41:09.959Z</time>
      </trkpt>
      <trkpt lat="46.32379" lon="-0.54698">
        <ele>4.45</ele>
        <time>2025-02-16T17:41:16.711Z</time>
      </trkpt>
      <trkpt lat="46.3237" lon="-0.54719">
        <ele>4.56</ele>
        <time>2025-02-16T17:41:23.466Z</time>
      </trkpt>
      <trkpt lat="46.32355" lon="-0.54745">
        <ele>4.71</ele>
        <time>2025-02-16T17:41:30.226Z</time>
      </trkpt>
      <trkpt lat="46.3234" lon="-0.54771">
        <ele>4.97</ele>
        <time>2025-02-16T17:41:36.991Z</time>
      </trkpt>
      <trkpt lat="46.32334" lon="-0.54792">
        <ele>5.18</ele>
        <time>2025-02-16T17:41:43.759Z</time>
      </trkpt>
      <trkpt lat="46.32334" lon="-0.54812">
        <ele>5.37</ele>
        <time>2025-02-16T17:41:50.530Z</time>
      </trkpt>
      <trkpt lat="46.32336" lon="-0.54837">
        <ele>5.58</ele>
        <time>2025-02-16T17:41:57.304Z</time>
      </trkpt>
      <trkpt lat="46.32336" lon="-0.54837">
        <ele>5.74</ele>
        <time>2025-02-16T17:42:04.078Z</time>
      </trkpt>
      <trkpt lat="46.32339" lon="-0.54865">
        <ele>5.94</ele>
        <time>2025-02-16T17:42:10.856Z</time>
      </trkpt>
      <trkpt lat="46.32342" lon="-0.54893">
        <ele>6.07</ele>
        <time>2025-02-16T17:42:17.638Z</time>
      </trkpt>
      <trkpt lat="46.32342" lon="-0.54921">
        <ele>6.23</ele>
        <time>2025-02-16T17:42:24.424Z</time>
      </trkpt>
      <trkpt lat="46.32336" lon="-0.54947">
        <ele>6.34</ele>
        <time>2025-02-16T17:42:31.214Z</time>
      </trkpt>
      <trkpt lat="46.32324" lon="-0.54976">
        <ele>6.43</ele>
        <time>2025-02-16T17:42:38.008Z</time>
      </trkpt>
      <trkpt lat="46.32312" lon="-0.55005">
        <ele>6.5</ele>
        <time>2025-02-16T17:42:44.807Z</time>
      </trkpt>
      <trkpt lat="46.32308" lon="-0.55037">
        <ele>6.51</ele>
        <time>2025-02-16T17:42:51.611Z</time>
      </trkpt>
      <trkpt lat="46.32304" lon="-0.55069">
        <ele>6.56</ele>
        <time>2025-02-16T17:42:58.419Z</time>
      </trkpt>
      <trkpt lat="46.32296" lon="-0.55103">
        <ele>6.62</ele>
        <time>2025-02-16T17:43:05.232Z</time>
      </trkpt>
      <trkpt lat="46.32289" lon="-0.55138">
        <ele>6.65</ele>
        <time>2025-02-16T17:43:12.050Z</time>
      </trkpt>
      <trkpt lat="46.32287" lon="-0.55166">
        <ele>6.72</ele>
        <time>2025-02-16T17:43:18.872Z</time>
      </trkpt>
      <trkpt lat="46.32292" lon="-0.55199">
        <ele>6.7</ele>
        <time>2025-02-16T17:43:25.699Z</time>
      </trkpt>
      <trkpt lat="46.32297" lon="-0.55233">
        <ele>6.63</ele>
        <time>2025-02-16T17:43:32.531Z</time>
      </trkpt>
      <trkpt lat="46.32303" lon="-0.55267">
        <ele>6.56</ele>
        <time>2025-02-16T17:43:39.367Z</time>
      </trkpt>
      <trkpt lat="46.32308" lon="-0.55301">
        <ele>6.58</ele>
        <time>2025-02-16T17:43:46.208Z</time>
      </trkpt>
      <trkpt lat="46.32309" lon="-0.55332">
        <ele>6.61</ele>
        <time>2025-02-16T17:43:53.054Z</time>
      </trkpt>
      <trkpt lat="46.3231" lon="-0.55363">
        <ele>6.69</ele>
        <time>2025-02-16T17:43:59.904Z</time>
      </trkpt>
      <trkpt lat="46.32309" lon="-0.55405">
        <ele>6.71</ele>
        <time>2025-02-16T17:44:06.760Z</time>
      </trkpt>
      <trkpt lat="46.32307" lon="-0.55447">
        <ele>6.69</ele>
        <time>2025-02-16T17:44:13.621Z</time>
      </trkpt>
      <trkpt lat="46.32305" lon="-0.55489">
        <ele>6.75</ele>
        <time>2025-02-16T17:44:20.488Z</time>
      </trkpt>
      <trkpt lat="46.32304" lon="-0.5553">
        <ele>6.82</ele>
        <time>2025-02-16T17:44:27.361Z</time>
      </trkpt>
      <trkpt lat="46.3231" lon="-0.55566">
        <ele>6.99</ele>
        <time>2025-02-16T17:44:34.239Z</time>
      </trkpt>
      <trkpt lat="46.32317" lon="-0.55602">
        <ele>7.16</ele>
        <time>2025-02-16T17:44:41.122Z</time>
      </trkpt>
      <trkpt lat="46.32323" lon="-0.55638">
        <ele>7.28</ele>
        <time>2025-02-16T17:44:48.010Z</time>
      </trkpt>
      <trkpt lat="46.3233" lon="-0.55659">
        <ele>7.43</ele>
        <time>2025-02-16T17:44:54.902Z</time>
      </trkpt>
      <trkpt lat="46.32342" lon="-0.55683">
        <ele>7.7</ele>
        <time>2025-02-16T17:45:01.798Z</time>
      </trkpt>
      <trkpt lat="46.32368" lon="-0.55698">
        <ele>7.89</ele>
        <time>2025-02-16T17:45:08.699Z</time>
      </trkpt>
      <trkpt lat="46.32396" lon="-0.55706">
        <ele>8.13</ele>
        <time>2025-02-16T17:45:15.606Z</time>
      </trkpt>
      <trkpt lat="46.3242" lon="-0.55714">
        <ele>8.4</ele>
        <time>2025-02-16T17:45:22.518Z</time>
      </trkpt>
      <trkpt lat="46.32445" lon="-0.55722">
        <ele>8.68</ele>
        <time>2025-02-16T17:45:29.435Z</time>
      </trkpt>
      <trkpt lat="46.32469" lon="-0.5573">
        <ele>8.84</ele>
        <time>2025-02-16T17:45:36.357Z</time>
      </trkpt>
      <trkpt lat="46.32484" lon="-0.5573">
        <ele>8.96</ele>
        <time>2025-02-16T17:45:43.282Z</time>
      </trkpt>
      <trkpt lat="46.32488" lon="-0.55738">
        <ele>9.01</ele>
        <time>2025-02-16T17:45:50.209Z</time>
      </trkpt>
      <trkpt lat="46.32505" lon="-0.55751">
        <ele>8.99</ele>
        <time>2025-02-16T17:45:57.139Z</time>
      </trkpt>
      <trkpt lat="46.32523" lon="-0.55764">
        <ele>8.92</ele>
        <time>2025-02-16T17:46:04.073Z</time>
      </trkpt>
      <trkpt lat="46.3255" lon="-0.55769">
        <ele>8.93</ele>
        <time>2025-02-16T17:46:11.013Z</time>
      </trkpt>
      <trkpt lat="46.32577" lon="-0.55773">
        <ele>8.99</ele>
        <time>2025-02-16T17:46:17.958Z</time>
      </trkpt>
      <trkpt lat="46.32604" lon="-0.55777">
        <ele>9.01</ele>
        <time>2025-02-16T17:46:24.909Z</time>
      </trkpt>
      <trkpt lat="46.32611" lon="-0.55777">
        <ele>8.89</ele>
        <time>2025-02-16T17:46:31.861Z</time>
      </trkpt>
      <trkpt lat="46.32631" lon="-0.55781">
        <ele>8.78</ele>
        <time>2025-02-16T17:46:38.817Z</time>
      </trkpt>
      <trkpt lat="46.32651" lon="-0.55786">
        <ele>8.58</ele>
        <time>2025-02-16T17:46:45.777Z</time>
      </trkpt>
      <trkpt lat="46.32664" lon="-0.5579">
        <ele>8.29</ele>
        <time>2025-02-16T17:46:52.740Z</time>
      </trkpt>
      <trkpt lat="46.32677" lon="-0.55799">
        <ele>7.89</ele>
        <time>2025-02-16T17:46:59.706Z</time>
      </trkpt>
      <trkpt lat="46.32694" lon="-0.5582">
        <ele>7.34</ele>
        <time>2025-02-16T17:47:06.676Z</time>
      </trkpt>
      <trkpt lat="46.32701" lon="-0.55839">
        <ele>6.78</ele>
        <time>2025-02-16T17:47:13.649Z</time>
      </trkpt>
      <trkpt lat="46.32702" lon="-0.55848">
        <ele>6.36</ele>
        <time>2025-02-16T17:47:20.623Z</time>
      </trkpt>
      <trkpt lat="46.32702" lon="-0.55848">
        <ele>6.02</ele>
        <time>2025-02-16T17:47:27.597Z</time>
      </trkpt>
      <trkpt lat="46.32708" lon="-0.55883">
        <ele>5.5</ele>
        <time>2025-02-16T17:47:34.576Z</time>
      </trkpt>
      <trkpt lat="46.32714" lon="-0.55919">
        <ele>5.16</ele>
        <time>2025-02-16T17:47:41.561Z</time>
      </trkpt>
      <trkpt lat="46.32722" lon="-0.55955">
        <ele>4.93</ele>
        <time>2025-02-16T17:47:48.551Z</time>
      </trkpt>
      <trkpt lat="46.32731" lon="-0.55992">
        <ele>4.78</ele>
        <time>2025-02-16T17:47:55.546Z</time>
      </trkpt>
      <trkpt lat="46.32742" lon="-0.56024">
        <ele>4.6</ele>
        <time>2025-02-16T17:48:02.546Z</time>
      </trkpt>
      <trkpt lat="46.32752" lon="-0.56056">
        <ele>4.37</ele>
        <time>2025-02-16T17:48:09.551Z</time>
      </trkpt>
      <trkpt lat="46.32754" lon="-0.56065">
        <ele>4.17</ele>
        <time>2025-02-16T17:48:16.557Z</time>
      </trkpt>
      <trkpt lat="46.32768" lon="-0.56099">
        <ele>3.95</ele>
        <time>2025-02-16T17:48:23.569Z</time>
      </trkpt>
      <trkpt lat="46.32782" lon="-0.56133">
        <ele>3.86</ele>
        <time>2025-02-16T17:48:30.586Z</time>
      </trkpt>
      <trkpt lat="46.32795" lon="-0.56168">
        <ele>3.88</ele>
        <time>2025-02-16T17:48:37.609Z</time>
      </trkpt>
      <trkpt lat="46.32804" lon="-0.56211">
        <ele>3.96</ele>
        <time>2025-02-16T17:48:44.638Z</time>
      </trkpt>
      <trkpt lat="46.32806" lon="-0.56226">
        <ele>3.9</ele>
        <time>2025-02-16T17:48:51.669Z</time>
      </trkpt>
      <trkpt lat="46.32802" lon="-0.56264">
        <ele>3.78</ele>
        <time>2025-02-16T17:48:58.705Z</time>
      </trkpt>
      <trkpt lat="46.32799" lon="-0.56302">
        <ele>3.69</ele>
        <time>2025-02-16T17:49:05.747Z</time>
      </trkpt>
      <trkpt lat="46.32795" lon="-0.5634">
        <ele>3.63</ele>
        <time>2025-02-16T17:49:12.794Z</time>
      </trkpt>
      <trkpt lat="46.32792" lon="-0.56378">
        <ele>3.55</ele>
        <time>2025-02-16T17:49:19.846Z</time>
      </trkpt>
      <trkpt lat="46.32788" lon="-0.56416">
        <ele>3.45</ele>
        <time>2025-02-16T17:49:26.904Z</time>
      </trkpt>
      <trkpt lat="46.32784" lon="-0.56453">
        <ele>3.44</ele>
        <time>2025-02-16T17:49:33.967Z</time>
      </trkpt>
      <trkpt lat="46.32776" lon="-0.56486">
        <ele>3.58</ele>
        <time>2025-02-16T17:49:41.035Z</time>
      </trkpt>
      <trkpt lat="46.32767" lon="-0.56519">
        <ele>3.74</ele>
        <time>2025-02-16T17:49:48.108Z</time>
      </trkpt>
      <trkpt lat="46.32759" lon="-0.56552">
        <ele>3.91</ele>
        <time>2025-02-16T17:49:55.186Z</time>
      </trkpt>
      <trkpt lat="46.32757" lon="-0.56562">
        <ele>4.03</ele>
        <time>2025-02-16T17:50:02.265Z</time>
      </trkpt>
      <trkpt lat="46.32759" lon="-0.56575">
        <ele>4.16</ele>
        <time>2025-02-16T17:50:09.346Z</time>
      </trkpt>
      <trkpt lat="46.32754" lon="-0.56614">
        <ele>4.29</ele>
        <time>2025-02-16T17:50:16.432Z</time>
      </trkpt>
      <trkpt lat="46.32761" lon="-0.56657">
        <ele>4.44</ele>
        <time>2025-02-16T17:50:23.524Z</time>
      </trkpt>
      <trkpt lat="46.32761" lon="-0.56699">
        <ele>4.57</ele>
        <time>2025-02-16T17:50:30.622Z</time>
      </trkpt>
      <trkpt lat="46.3276" lon="-0.56742">
        <ele>4.64</ele>
        <time>2025-02-16T17:50:37.726Z</time>
      </trkpt>
      <trkpt lat="46.3276" lon="-0.56784">
        <ele>4.76</ele>
        <time>2025-02-16T17:50:44.836Z</time>
      </trkpt>
      <trkpt lat="46.3276" lon="-0.56827">
        <ele>4.93</ele>
        <time>2025-02-16T17:50:51.952Z</time>
      </trkpt>
      <trkpt lat="46.3276" lon="-0.5687">
        <ele>5.17</ele>
        <time>2025-02-16T17:50:59.074Z</time>
      </trkpt>
      <trkpt lat="46.3276" lon="-0.56912">
        <ele>5.29</ele>
        <time>2025-02-16T17:51:06.202Z</time>
      </trkpt>
      <trkpt lat="46.3276" lon="-0.56955">
        <ele>5.43</ele>
        <time>2025-02-16T17:51:13.336Z</time>
      </trkpt>
      <trkpt lat="46.32759" lon="-0.56997">
        <ele>5.64</ele>
        <time>2025-02-16T17:51:20.476Z</time>
      </trkpt>
      <trkpt lat="46.32759" lon="-0.5704">
        <ele>5.8</ele>
        <time>2025-02-16T17:51:27.622Z</time>
      </trkpt>
      <trkpt lat="46.32759" lon="-0.57082">
        <ele>5.89</ele>
        <time>2025-02-16T17:51:34.773Z</time>
      </trkpt>
      <trkpt lat="46.32759" lon="-0.57125">
        <ele>5.91</ele>
        <time>2025-02-16T17:51:41.930Z</time>
      </trkpt>
      <trkpt lat="46.32759" lon="-0.57167">
        <ele>5.99</ele>
        <time>2025-02-16T17:51:49.093Z</time>
      </trkpt>
      <trkpt lat="46.32759" lon="-0.57208">
        <ele>6.22</ele>
        <time>2025-02-16T17:51:56.262Z</time>
      </trkpt>
      <trkpt lat="46.32758" lon="-0.57232">
        <ele>6.34</ele>
        <time>2025-02-16T17:52:03.434Z</time>
      </trkpt>
      <trkpt lat="46.32758" lon="-0.57232">
        <ele>6.35</ele>
        <time>2025-02-16T17:52:10.606Z</time>
      </trkpt>
      <trkpt lat="46.32756" lon="-0.57267">
        <ele>6.44</ele>
        <time>2025-02-16T17:52:17.783Z</time>
      </trkpt>
      <trkpt lat="46.32754" lon="-0.57303">
        <ele>6.45</ele>
        <time>2025-02-16T17:52:24.965Z</time>
      </trkpt>
      <trkpt lat="46.3275" lon="-0.57322">
        <ele>6.3</ele>
        <time>2025-02-16T17:52:32.150Z</time>
      </trkpt>
      <trkpt lat="46.32728" lon="-0.57306">
        <ele>5.99</ele>
        <time>2025-02-16T17:52:39.340Z</time>
      </trkpt>
      <trkpt lat="46.32706" lon="-0.57289">
        <ele>5.7</ele>
        <time>2025-02-16T17:52:46.535Z</time>
      </trkpt>
      <trkpt lat="46.32684" lon="-0.57273">
        <ele>5.42</ele>
        <time>2025-02-16T17:52:53.735Z</time>
      </trkpt>
      <trkpt lat="46.32671" lon="-0.57268">
        <ele>5.21</ele>
        <time>2025-02-16T17:53:00.937Z</time>
      </trkpt>
      <trkpt lat="46.32666" lon="-0.57275">
        <ele>5.05</ele>
        <time>2025-02-16T17:53:08.141Z</time>
      </trkpt>
      <trkpt lat="46.32656" lon="-0.57311">
        <ele>4.94</ele>
        <time>2025-02-16T17:53:15.350Z</time>
      </trkpt>
      <trkpt lat="46.32645" lon="-0.57348">
        <ele>4.81</ele>
        <time>2025-02-16T17:53:22.565Z</time>
      </trkpt>
      <trkpt lat="46.32631" lon="-0.5737">
        <ele>4.67</ele>
        <time>2025-02-16T17:53:29.784Z</time>
      </trkpt>
      <trkpt lat="46.32617" lon="-0.57393">
        <ele>4.51</ele>
        <time>2025-02-16T17:53:37.007Z</time>
      </trkpt>
      <trkpt lat="46.32606" lon="-0.57421">
        <ele>4.42</ele>
        <time>2025-02-16T17:53:44.234Z</time>
      </trkpt>
      <trkpt lat="46.32593" lon="-0.5744">
        <ele>4.37</ele>
        <time>2025-02-16T17:53:51.465Z</time>
      </trkpt>
      <trkpt lat="46.32589" lon="-0.57442">
        <ele>4.31</ele>
        <time>2025-02-16T17:53:58.697Z</time>
      </trkpt>
      <trkpt lat="46.32572" lon="-0.57449">
        <ele>4.29</ele>
        <time>2025-02-16T17:54:05.933Z</time>
      </trkpt>
      <trkpt lat="46.32557" lon="-0.57485">
        <ele>4.23</ele>
        <time>2025-02-16T17:54:13.175Z</time>
      </trkpt>
      <trkpt lat="46.32545" lon="-0.57521">
        <ele>4.23</ele>
        <time>2025-02-16T17:54:20.422Z</time>
      </trkpt>
      <trkpt lat="46.32533" lon="-0.57557">
        <ele>4.3</ele>
        <time>2025-02-16T17:54:27.675Z</time>
      </trkpt>
      <trkpt lat="46.3252" lon="-0.57592">
        <ele>4.29</ele>
        <time>2025-02-16T17:54:34.933Z</time>
      </trkpt>
      <trkpt lat="46.3251" lon="-0.57622">
        <ele>4.26</ele>
        <time>2025-02-16T17:54:42.196Z</time>
      </trkpt>
      <trkpt lat="46.32499" lon="-0.57651">
        <ele>4.25</ele>
        <time>2025-02-16T17:54:49.463Z</time>
      </trkpt>
      <trkpt lat="46.32488" lon="-0.5768">
        <ele>4.21</ele>
        <time>2025-02-16T17:54:56.735Z</time>
      </trkpt>
      <trkpt lat="46.32475" lon="-0.57708">
        <ele>4.16</ele>
        <time>2025-02-16T17:55:04.012Z</time>
      </trkpt>
      <trkpt lat="46.32463" lon="-0.57736">
        <ele>4.21</ele>
        <time>2025-02-16T17:55:11.293Z</time>
      </trkpt>
      <trkpt lat="46.3245" lon="-0.57743">
        <ele>4.38</ele>
        <time>2025-02-16T17:55:18.577Z</time>
      </trkpt>
      <trkpt lat="46.32448" lon="-0.5776">
        <ele>4.58</ele>
        <time>2025-02-16T17:55:25.863Z</time>
      </trkpt>
      <trkpt lat="46.3243" lon="-0.57792">
        <ele>4.84</ele>
        <time>2025-02-16T17:55:33.155Z</time>
      </trkpt>
      <trkpt lat="46.32413" lon="-0.57824">
        <ele>5.12</ele>
        <time>2025-02-16T17:55:40.453Z</time>
      </trkpt>
      <trkpt lat="46.32396" lon="-0.57856">
        <ele>5.46</ele>
        <time>2025-02-16T17:55:47.756Z</time>
      </trkpt>
      <trkpt lat="46.32385" lon="-0.57883">
        <ele>5.71</ele>
        <time>2025-02-16T17:55:55.064Z</time>
      </trkpt>
      <trkpt lat="46.32375" lon="-0.5791">
        <ele>5.94</ele>
        <time>2025-02-16T17:56:02.376Z</time>
      </trkpt>
      <trkpt lat="46.32362" lon="-0.57923">
        <ele>6.11</ele>
        <time>2025-02-16T17:56:09.691Z</time>
      </trkpt>
      <trkpt lat="46.32347" lon="-0.57959">
        <ele>6.29</ele>
        <time>2025-02-16T17:56:17.012Z</time>
      </trkpt>
      <trkpt lat="46.32332" lon="-0.57996">
        <ele>6.33</ele>
        <time>2025-02-16T17:56:24.339Z</time>
      </trkpt>
      <trkpt lat="46.32317" lon="-0.58033">
        <ele>6.27</ele>
        <time>2025-02-16T17:56:31.672Z</time>
      </trkpt>
      <trkpt lat="46.32302" lon="-0.58069">
        <ele>6.09</ele>
        <time>2025-02-16T17:56:39.010Z</time>
      </trkpt>
      <trkpt lat="46.32287" lon="-0.58105">
        <ele>6.01</ele>
        <time>2025-02-16T17:56:46.354Z</time>
      </trkpt>
      <trkpt lat="46.32274" lon="-0.58142">
        <ele>6</ele>
        <time>2025-02-16T17:56:53.704Z</time>
      </trkpt>
      <trkpt lat="46.32269" lon="-0.5815">
        <ele>5.98</ele>
        <time>2025-02-16T17:57:01.055Z</time>
      </trkpt>
      <trkpt lat="46.32258" lon="-0.58172">
        <ele>5.96</ele>
        <time>2025-02-16T17:57:08.410Z</time>
      </trkpt>
      <trkpt lat="46.32246" lon="-0.58193">
        <ele>5.97</ele>
        <time>2025-02-16T17:57:15.769Z</time>
      </trkpt>
      <trkpt lat="46.32231" lon="-0.58228">
        <ele>6.05</ele>
        <time>2025-02-16T17:57:23.134Z</time>
      </trkpt>
      <trkpt lat="46.32229" lon="-0.58234">
        <ele>6.15</ele>
        <time>2025-02-16T17:57:30.500Z</time>
      </trkpt>
      <trkpt lat="46.32251" lon="-0.58254">
        <ele>6.33</ele>
        <time>2025-02-16T17:57:37.871Z</time>
      </trkpt>
      <trkpt lat="46.32274" lon="-0.58275">
        <ele>6.4</ele>
        <time>2025-02-16T17:57:45.247Z</time>
      </trkpt>
      <trkpt lat="46.32296" lon="-0.58294">
        <ele>6.52</ele>
        <time>2025-02-16T17:57:52.629Z</time>
      </trkpt>
      <trkpt lat="46.32319" lon="-0.58313">
        <ele>6.53</ele>
        <time>2025-02-16T17:58:00.016Z</time>
      </trkpt>
      <trkpt lat="46.32342" lon="-0.58325">
        <ele>6.65</ele>
        <time>2025-02-16T17:58:07.408Z</time>
      </trkpt>
      <trkpt lat="46.32365" lon="-0.58336">
        <ele>6.86</ele>
        <time>2025-02-16T17:58:14.805Z</time>
      </trkpt>
      <trkpt lat="46.32387" lon="-0.58348">
        <ele>7.11</ele>
        <time>2025-02-16T17:58:22.206Z</time>
      </trkpt>
      <trkpt lat="46.32409" lon="-0.58357">
        <ele>7.2</ele>
        <time>2025-02-16T17:58:29.612Z</time>
      </trkpt>
      <trkpt lat="46.3243" lon="-0.58367">
        <ele>7.21</ele>
        <time>2025-02-16T17:58:37.022Z</time>
      </trkpt>
      <trkpt lat="46.32427" lon="-0.58378">
        <ele>7.29</ele>
        <time>2025-02-16T17:58:44.434Z</time>
      </trkpt>
    </trkseg>
  </trk>
</gpx>